[[{"header":{"parameterUnit":"m.s-1","parameterCategory":1,"la1":30.6,"la2":28.766,"lo1":-90.7593,"lo2":-88.6598,"dy":0.0162,"dx":0.0183,"nx":116,"ny":114,"refTime":"2024-02-02T06:00:00:Z","depth":0,"parameterNumber":2,"parameterNumberName":"U-component_of_WINDS"},"data":[0.0,0.0,0.0,0.0,0.0,0.0,0.0,0.0,0.0,0.0,0.0,0.0,0.0,0.0,0.0,0.0,0.0,0.0,0.0,0.0,0.0,0.0,0.0,0.0,0.0,0.0,0.0,0.0,0.0,0.0,0.0,0.0,0.0,0.0,0.0,0.0,0.0,0.0,0.0,0.0,0.0,0.0,0.0,0.0,0.0,0.0,0.0,0.0,0.0,0.0,0.0,0.0,0.0,0.0,0.0,0.0,0.0,0.0,0.0,0.0,0.0,0.0,0.0,0.0,0.0,0.0,0.0,0.0,0.0,0.0,0.0,0.0,0.0,0.0,0.0,0.0,0.0,0.0,0.0,0.0,0.0,0.0,0.0,0.0,0.0,0.0,0.0,0.0,0.0,0.0,0.0,0.0,0.0,0.0,0.0,0.0,0.0,0.0,0.0,0.0,0.0,0.0,0.0,0.0,0.0,0.0,0.0,0.0,0.0,0.0,0.0,0.0,0.0,0.0,0.0,0.0,0.0,0.0,0.0,0.0,0.0,0.0,0.0,0.0,0.0,0.0,0.0,0.0,0.0,0.0,0.0,0.0,0.0,0.0,0.0,0.0,0.0,0.0,0.0,0.0,0.0,0.0,0.0,0.0,0.0,0.0,0.0,0.0,0.0,0.0,0.0,0.0,0.0,0.0,0.0,0.0,0.0,0.0,0.0,0.0,0.0,0.0,0.0,0.0,0.0,0.0,0.0,0.0,0.0,0.0,0.0,0.0,0.0,0.0,0.0,0.0,0.0,0.0,0.0,0.0,0.0,0.0,0.0,0.0,0.0,0.0,0.0,0.0,0.0,0.0,0.0,0.0,0.0,0.0,0.0,0.0,0.0,0.0,0.0,0.0,0.0,0.0,0.0,0.0,0.0,0.0,0.0,0.0,0.0,0.0,0.0,0.0,0.0,0.0,0.0,0.0,0.0,0.0,0.0,0.0,0.0,0.0,0.0,0.0,0.0,0.0,0.0,0.0,0.0,0.0,0.0,0.0,0.0,0.0,0.0,0.0,0.0,0.0,0.0,0.0,0.0,0.0,0.0,0.0,0.0,0.0,0.0,0.0,0.0,0.0,0.0,0.0,0.0,0.0,0.0,0.0,0.0,0.0,0.0,0.0,0.0,0.0,0.0,0.0,0.0,0.0,0.0,0.0,0.0,0.0,0.0,0.0,0.0,0.0,0.0,0.0,0.0,0.0,0.0,0.0,0.0,0.0,0.0,0.0,0.0,0.0,0.0,0.0,0.0,0.0,0.0,0.0,0.0,0.0,0.0,0.0,0.0,0.0,0.0,0.0,0.0,0.0,0.0,0.0,0.0,0.0,0.0,0.0,0.0,0.0,0.0,0.0,0.0,0.0,0.0,0.0,0.0,0.0,0.0,0.0,0.0,0.0,0.0,0.0,0.0,0.0,0.0,0.0,0.0,0.0,0.0,0.0,0.0,0.0,0.0,0.0,0.0,0.0,0.0,0.0,0.0,0.0,0.0,0.0,0.0,0.0,0.0,0.0,0.0,0.0,0.0,0.0,0.0,0.0,0.0,0.0,0.0,0.0,0.0,0.0,0.0,0.0,0.0,0.0,0.0,0.0,0.0,0.0,0.0,0.0,0.0,0.0,0.0,0.0,0.0,0.0,0.0,0.0,0.0,0.0,0.0,0.0,0.0,0.0,0.0,0.0,0.0,0.0,0.0,0.0,0.0,0.0,0.0,0.0,0.0,0.0,0.0,0.0,0.0,0.0,0.0,0.0,0.0,0.0,0.0,0.0,0.0,0.0,0.0,0.0,0.0,0.0,0.0,0.0,0.0,0.0,0.0,0.0,0.0,0.0,0.0,0.0,0.0,0.0,0.0,0.0,0.0,0.0,0.0,0.0,0.0,0.0,0.0,0.0,0.0,0.0,0.0,0.0,0.0,0.0,0.0,0.0,0.0,0.0,0.0,0.0,0.0,0.0,0.0,0.0,0.0,0.0,0.0,0.0,0.0,0.0,0.0,0.0,0.0,0.0,0.0,0.0,0.0,0.0,0.0,0.0,0.0,0.0,0.0,0.0,0.0,0.0,0.0,0.0,0.0,0.0,0.0,0.0,0.0,0.0,0.0,0.0,0.0,0.0,0.0,0.0,0.0,0.0,0.0,0.0,0.0,0.0,0.0,0.0,0.0,0.0,0.0,0.0,0.0,0.0,0.0,0.0,0.0,0.0,0.0,0.0,0.0,0.0,0.0,0.0,0.0,0.0,0.0,0.0,0.0,0.0,0.0,0.0,0.0,0.0,0.0,0.0,0.0,0.0,0.0,0.0,0.0,0.0,0.0,0.0,0.0,0.0,0.0,0.0,0.0,0.0,0.0,0.0,0.0,0.0,0.0,0.0,0.0,0.0,0.0,0.0,0.0,0.0,0.0,0.0,0.0,0.0,0.0,0.0,0.0,0.0,0.0,0.0,0.0,0.0,0.0,0.0,0.0,0.0,0.0,0.0,0.0,0.0,0.0,0.0,0.0,0.0,0.0,0.0,0.0,0.0,0.0,0.0,0.0,0.0,0.0,0.0,0.0,0.0,0.0,0.0,0.0,0.0,0.0,0.0,0.0,0.0,0.0,0.0,0.0,0.0,0.0,0.0,0.0,0.0,0.0,0.0,0.0,0.0,0.0,0.0,0.0,0.0,0.0,0.0,0.0,0.0,0.0,0.0,0.0,0.0,0.0,0.0,0.0,0.0,0.0,0.0,0.0,0.0,0.0,0.0,0.0,0.0,0.0,0.0,0.0,0.0,0.0,0.0,0.0,0.0,0.0,0.0,0.0,0.0,0.0,0.0,0.0,0.0,0.0,0.0,0.0,0.0,0.0,0.0,0.0,0.0,0.0,0.0,0.0,0.0,0.0,0.0,0.0,0.0,0.0,0.0,0.0,0.0,0.0,0.0,0.0,0.0,0.0,0.0,0.0,0.0,0.0,0.0,0.0,0.0,0.0,0.0,0.0,0.0,0.0,0.0,0.0,0.0,0.0,0.0,0.0,0.0,0.0,0.0,0.0,0.0,0.0,0.0,0.0,0.0,0.0,0.0,0.0,0.0,0.0,0.0,0.0,0.0,0.0,0.0,0.0,0.0,0.0,0.0,0.0,0.0,0.0,0.0,0.0,0.0,0.0,0.0,0.0,0.0,0.0,0.0,0.0,0.0,0.0,0.0,0.0,0.0,0.0,0.0,0.0,0.0,0.0,0.0,0.0,0.0,0.0,0.0,0.0,0.0,0.0,0.0,0.0,0.0,0.0,0.0,0.0,0.0,0.0,0.0,0.0,0.0,0.0,0.0,0.0,0.0,0.0,0.0,0.0,0.0,0.0,0.0,0.0,0.0,0.0,0.0,0.0,0.0,0.0,0.0,0.0,0.0,0.0,0.0,0.0,0.0,0.0,0.0,0.0,0.0,0.0,0.0,0.0,0.0,0.0,0.0,0.0,0.0,0.0,0.0,0.0,0.0,0.0,0.0,0.0,0.0,0.0,0.0,0.0,0.0,0.0,0.0,0.0,0.0,0.0,0.0,0.0,0.0,0.0,0.0,0.0,0.0,0.0,0.0,0.0,0.0,0.0,0.0,0.0,0.0,0.0,0.0,0.0,0.0,0.0,0.0,0.0,0.0,0.0,0.0,0.0,0.0,0.0,0.0,0.0,0.0,0.0,0.0,0.0,0.0,0.0,0.0,0.0,0.0,0.0,0.0,0.0,0.0,0.0,0.0,0.0,0.0,0.0,0.0,0.0,0.0,0.0,0.0,0.0,0.0,0.0,0.0,0.0,0.0,0.0,0.0,0.0,0.0,0.0,0.0,0.0,0.0,0.0,0.0,0.0,0.0,0.0,0.0,0.0,0.0,0.0,0.0,0.0,0.0,0.0,0.0,0.0,0.0,0.0,0.0,0.0,0.0,0.0,0.0,0.0,0.0,0.0,0.0,0.0,0.0,0.0,0.0,0.0,0.0,0.0,0.0,0.0,0.0,0.0,0.0,0.0,0.0,0.0,0.0,0.0,0.0,0.0,0.0,0.0,0.0,0.0,0.0,0.0,0.0,0.0,0.0,0.0,0.0,0.0,0.0,0.0,0.0,0.0,0.0,0.0,0.0,0.0,0.0,0.0,0.0,0.0,0.0,0.0,0.0,0.0,0.0,0.0,0.0,0.0,0.0,0.0,0.0,0.0,0.0,0.0,0.0,0.0,0.0,0.0,0.0,0.0,0.0,0.0,0.0,0.0,0.0,0.0,0.0,0.0,0.0,0.0,0.0,0.0,0.0,0.0,0.0,0.0,0.0,0.0,0.0,0.0,0.0,0.0,0.0,0.0,0.0,0.0,0.0,0.0,0.0,0.0,0.0,0.0,0.0,0.0,0.0,0.0,0.0,0.0,0.0,0.0,0.0,0.0,0.0,0.0,0.0,0.0,0.0,0.0,0.0,0.0,0.0,0.0,0.0,0.0,0.0,0.0,0.0,0.0,0.0,0.0,0.0,0.0,0.0,0.0,0.0,0.0,0.0,0.0,0.0,0.0,0.0,0.0,0.0,0.0,0.0,0.0,0.0,0.0,0.0,0.0,0.0,0.0,0.0,0.0,0.0,0.0,0.0,0.0,0.0,0.0,0.0,0.0,0.0,0.0,0.0,0.0,0.0,0.0,0.0,0.0,0.0,0.0,0.0,0.0,0.0,0.0,0.0,0.0,0.0,0.0,0.0,0.0,0.0,0.0,0.0,0.0,0.0,0.0,0.0,0.0,0.0,0.0,0.0,0.0,0.0,0.0,0.0,0.0,0.0,0.0,0.0,0.0,0.0,0.0,0.0,0.0,0.0,0.0,0.0,0.0,0.0,0.0,0.0,0.0,0.0,0.0,0.0,0.0,0.0,0.0,0.0,0.0,0.0,0.0,0.0,0.0,0.0,0.0,0.0,0.0,0.0,0.0,0.0,0.0,0.0,0.0,0.0,0.0,0.0,0.0,0.0,0.0,0.0,0.0,0.0,0.0,0.0,0.0,0.0,0.0,0.0,0.0,0.0,0.0,0.0,0.0,0.0,0.0,0.0,0.0,0.0,0.0,0.0,0.0,0.0,0.0,0.0,0.0,0.0,0.0,0.0,0.0,0.0,0.0,0.0,0.0,0.0,0.0,0.0,0.0,0.0,0.0,0.0,0.0,0.0,0.0,0.0,0.0,0.0,0.0,0.0,0.0,0.0,0.0,0.0,0.0,0.0,0.0,0.0,0.0,0.0,0.0,0.0,0.0,0.0,0.0,0.0,0.0,0.0,0.0,0.0,0.0,0.0,0.0,0.0,0.0,0.0,0.0,0.0,0.0,0.0,0.0,0.0,0.0,0.0,0.0,0.0,0.0,0.0,0.0,0.0,0.0,0.0,0.0,0.0,0.0,0.0,0.0,0.0,0.0,0.0,0.0,0.0,0.0,0.0,0.0,0.0,0.0,0.0,0.0,0.0,0.0,0.0,0.0,0.0,0.0,0.0,0.0,0.0,0.0,0.0,0.0,0.0,0.0,0.0,0.0,0.0,0.0,0.0,0.0,0.0,0.0,0.0,0.0,0.0,0.0,0.0,0.0,0.0,0.0,0.0,0.0,0.0,0.0,0.0,0.0,0.0,0.0,0.0,0.0,0.0,0.0,0.0,0.0,0.0,0.0,0.0,0.0,0.0,0.0,0.0,0.0,0.0,0.0,0.0,0.0,0.0,0.0,0.0,0.0,0.0,0.0,0.0,0.0,0.0,0.0,0.0,0.0,0.0,0.0,0.0,0.0,0.0,0.0,0.0,0.0,0.0,0.0,0.0,0.0,0.0,0.0,0.0,0.0,0.0,0.0,0.0,0.0,0.0,0.0,0.0,0.0,0.0,0.0,0.0,0.0,0.0,0.0,0.0,0.0,0.0,0.0,0.0,0.0,0.0,0.0,0.0,0.0,0.0,0.0,0.0,0.0,0.0,0.0,0.0,0.0,0.0,0.0,0.0,0.0,0.0,0.0,0.0,0.0,0.0,0.0,0.0,0.0,0.0,0.0,0.0,0.0,0.0,0.0,0.0,0.0,0.0,0.0,0.0,7.6709,7.3722,0.0,0.0,0.0,0.0,0.0,0.0,0.0,0.0,0.0,0.0,0.0,0.0,0.0,0.0,0.0,0.0,0.0,0.0,0.0,0.0,0.0,0.0,0.0,0.0,0.0,0.0,0.0,0.0,0.0,0.0,0.0,0.0,0.0,0.0,1.276,1.3269,1.396,1.4662,1.6221,1.8976,2.2713,2.1244,2.0303,1.9895,0.0,0.0,0.0,0.0,0.0,0.0,0.0,0.0,0.0,0.0,0.0,0.0,0.0,0.0,0.0,0.0,0.0,0.0,0.0,0.0,0.0,0.0,0.0,0.0,0.0,0.0,0.0,0.0,0.0,0.0,0.0,0.0,0.0,0.0,0.0,0.0,0.0,0.0,0.0,0.0,0.0,0.0,0.0,0.0,0.0,0.0,0.0,0.0,0.0,0.0,0.0,0.0,0.0,0.0,0.0,0.0,0.0,0.0,0.0,0.0,0.0,0.0,0.0,0.0,0.0,0.0,0.0,0.0,0.0,0.0,8.0912,7.9701,0.0,0.0,0.0,0.0,0.0,0.0,0.0,0.0,0.0,0.0,0.0,0.0,0.0,0.0,0.0,0.0,0.0,0.0,0.0,0.0,0.0,0.0,0.0,1.0443,1.0484,1.0663,1.0921,1.1248,1.1784,1.2032,1.2439,1.2896,1.2659,1.2512,1.2512,1.3037,1.3858,1.4889,1.8603,2.2313,2.5826,2.5817,2.5073,2.3711,2.0994,0.0,0.0,0.0,0.0,0.0,0.0,0.0,0.0,0.0,0.0,0.0,0.0,0.0,0.0,0.0,0.0,0.0,0.0,0.0,0.0,0.0,0.0,0.0,0.0,0.0,0.0,0.0,0.0,0.0,0.0,0.0,0.0,0.0,0.0,0.0,0.0,0.0,0.0,0.0,0.0,0.0,0.0,0.0,0.0,0.0,0.0,0.0,0.0,0.0,0.0,0.0,0.0,0.0,0.0,0.0,0.0,0.0,0.0,0.0,0.0,0.0,0.0,0.0,7.5409,7.6477,7.7416,7.7755,8.1015,8.6252,8.6491,8.7467,8.86,8.4316,0.0,0.0,0.0,0.0,0.0,0.0,0.0,0.0,0.0,0.0,0.0,0.0,0.0,0.0,0.0,0.0,0.0,0.0,0.0,0.0,0.0,1.1087,1.1062,1.1356,1.165,1.166,1.1309,1.1781,1.1965,1.1801,1.1939,1.207,1.207,1.314,1.4911,1.7456,2.3308,2.6886,2.8348,2.8125,2.8413,2.8988,2.7049,2.4737,2.248,0.0,0.0,0.0,0.0,0.0,0.0,0.0,0.0,0.0,0.0,0.0,0.0,0.0,0.0,0.0,0.0,0.0,0.0,0.0,0.0,0.0,0.0,0.0,0.0,0.0,0.0,0.0,0.0,0.0,0.0,0.0,0.0,0.0,0.0,0.0,0.0,0.0,0.0,0.0,0.0,0.0,4.0585,4.2703,0.0,0.0,0.0,0.0,0.0,0.0,0.0,0.0,0.0,0.0,0.0,0.0,0.0,6.4248,7.2697,7.4105,7.9184,8.7811,8.8626,8.9551,9.0632,9.0673,9.1919,9.3966,9.4267,0.0,9.5304,9.0948,0.0,0.0,0.0,0.0,0.0,0.0,0.0,0.0,0.0,0.0,0.0,0.0,0.0,0.0,0.0,0.0,0.0,0.0,0.0,0.0,0.0,1.1836,1.2429,1.2994,1.4114,1.4267,1.31,1.3474,1.3159,1.1913,1.1944,1.2149,1.2483,1.4525,1.7934,2.2539,2.5805,2.8484,3.0435,3.0644,3.1314,3.2274,3.1873,2.9246,2.5006,2.5096,0.0,0.0,0.0,0.0,0.0,0.0,0.0,0.0,0.0,0.0,0.0,0.0,0.0,0.0,0.0,0.0,0.0,0.0,0.0,0.0,0.0,0.0,0.0,0.0,0.0,0.0,0.0,0.0,0.0,0.0,0.0,0.0,0.0,0.0,0.0,0.0,0.0,0.0,0.0,3.7947,4.2568,4.617,4.3962,4.1791,0.0,0.0,0.0,0.0,0.0,0.0,0.0,0.0,0.0,6.3146,6.62,7.1716,8.0039,8.1469,8.4639,8.9984,9.0731,9.1612,9.2578,9.321,9.4076,9.5177,9.6035,9.7283,9.8305,9.5879,9.3199,9.0261,0.0,0.0,0.0,0.0,7.8519,7.9213,0.0,0.0,0.0,0.0,0.0,0.0,0.0,0.0,0.0,0.0,0.0,0.0,1.2304,1.3538,1.4497,1.5154,1.6461,1.6447,1.4605,1.4865,1.4186,1.1991,1.2044,1.2324,1.2714,1.6444,2.1006,2.6466,2.7688,2.952,3.2057,3.2225,3.3001,3.4108,3.4716,3.2347,2.7821,2.8228,2.6323,2.2821,0.0,0.0,0.0,0.0,0.0,0.0,0.0,0.0,0.0,0.0,0.0,0.0,0.0,0.0,0.0,0.0,0.0,0.0,0.0,0.0,0.0,0.0,0.0,0.0,0.0,0.0,0.0,0.0,0.0,0.0,0.0,0.0,0.0,0.0,0.0,0.0,0.0,3.9408,4.5023,4.9389,4.775,4.6238,0.0,0.0,0.0,0.0,0.0,0.0,5.5235,5.7236,6.2283,7.1087,7.3619,7.806,8.4822,8.6272,8.7905,8.9969,9.0825,9.1764,9.3133,9.3905,9.4772,9.5663,9.6848,9.8221,9.9597,9.8762,9.596,9.2166,9.0952,8.8008,8.4345,8.3665,8.4143,8.5474,0.0,0.0,0.0,0.0,0.0,0.0,0.0,0.0,0.0,0.0,0.0,1.5581,1.5896,1.6793,1.7492,1.7758,1.7947,1.7021,1.4754,1.502,1.4152,1.1703,1.2231,1.2613,1.2613,1.8364,2.3261,2.7173,2.912,3.1077,3.2804,3.2274,3.2833,3.4343,3.4477,3.3532,3.1556,3.1685,3.0013,2.6802,2.2391,0.0,0.0,0.0,0.0,0.0,0.0,0.0,0.0,0.0,0.0,0.0,0.0,0.0,0.0,0.0,0.0,0.0,0.0,0.0,0.0,0.0,0.0,0.0,0.0,0.0,0.0,0.0,0.0,0.0,0.0,0.0,0.0,0.0,0.0,0.0,0.0,0.0,0.0,5.1139,5.4386,0.0,0.0,0.0,0.0,4.6981,4.8097,5.2734,6.113,6.4201,6.9353,7.7423,8.0207,8.2555,8.4728,8.607,8.8301,9.1275,9.2011,9.3537,9.5456,9.5456,9.6276,9.7643,9.8064,9.8661,9.9444,9.8759,9.8873,9.8895,9.3821,9.0846,8.9356,8.9843,8.9158,8.867,0.0,0.0,0.0,0.0,0.0,0.0,0.0,0.0,0.5106,0.4406,0.973,1.5511,2.0565,1.9618,1.8929,1.9762,2.062,2.0311,1.8443,1.7582,1.5896,1.3138,1.3103,1.4727,1.807,2.2648,2.6451,2.9421,3.1099,3.2239,3.2814,3.3265,3.3807,3.4471,3.5069,3.498,3.4383,3.4734,3.3138,3.0034,2.8906,2.5441,0.0,0.0,0.0,0.0,0.0,0.0,0.0,0.0,0.0,0.0,0.0,0.0,0.0,0.0,0.0,0.0,0.0,0.0,0.0,0.0,0.0,0.0,0.0,0.0,0.0,0.0,0.0,0.0,0.0,0.0,0.0,0.0,0.0,0.0,0.0,0.0,0.0,5.1155,5.3173,0.0,5.3255,5.4527,5.5315,5.5357,5.9355,6.433,6.9719,7.0753,7.3545,7.8451,7.967,8.1244,8.3693,8.4622,8.6454,8.9123,9.0294,9.2176,9.4724,9.5912,9.7292,9.8989,9.9761,10.0018,9.9864,9.9861,9.9902,9.9848,9.8015,9.6846,9.6153,9.6162,9.5427,9.455,0.0,0.0,0.0,0.0,0.0,0.0,0.0,0.0,0.4998,0.4393,0.9962,1.6416,2.2724,2.1761,2.0973,2.1806,2.2575,2.193,1.9618,1.829,1.6188,1.2997,1.3843,1.6938,2.2476,2.5488,2.8287,3.0868,3.2374,3.3288,3.3473,3.3959,3.445,3.5111,3.542,3.5413,3.5359,3.64,3.5376,3.305,3.2289,2.8562,2.3283,0.0,0.0,0.0,0.0,0.0,0.0,0.0,0.0,0.0,0.0,0.0,0.0,0.0,0.0,0.0,0.0,0.0,0.0,0.0,0.0,0.0,0.0,0.0,0.0,0.0,0.0,0.0,0.0,0.0,0.0,0.0,0.0,0.0,0.0,4.5069,5.0805,5.1569,5.4021,5.5977,5.6737,5.8433,6.0132,6.1983,6.6367,7.0292,7.3533,7.4122,7.5673,7.8789,7.9417,8.0771,8.319,8.4248,8.5975,8.829,8.9739,9.166,9.4208,9.5843,9.7346,9.8905,10.0078,10.0581,10.0224,10.0344,10.0642,10.0656,10.0237,9.9937,9.9705,9.9205,9.8491,9.7635,0.0,0.0,0.0,0.0,0.0,0.0,0.0,0.5173,0.4876,0.4574,1.1991,1.8632,2.2248,2.3268,2.3831,2.3929,2.335,2.157,1.8053,1.6953,1.4862,1.1474,1.4673,1.9243,2.4913,2.6536,2.8696,3.1485,3.2937,3.4038,3.4795,3.4504,3.4891,3.6049,3.5483,3.4941,3.4589,3.648,3.6802,3.569,3.2322,2.9615,2.7149,0.0,0.0,0.0,0.0,0.0,0.0,0.0,0.0,0.0,0.0,0.0,0.0,0.0,0.0,0.0,0.0,0.0,0.0,0.0,0.0,0.0,0.0,0.0,0.0,0.0,0.0,0.0,0.0,0.0,0.0,0.0,0.0,0.0,4.3332,4.7484,5.1339,5.2942,5.7709,6.1542,6.3279,6.3984,6.4873,6.6201,6.7636,6.9556,7.2145,7.3986,7.6027,7.8444,8.0065,8.1833,8.3472,8.4833,8.6761,8.9266,9.0381,9.2106,9.4288,9.5389,9.6423,9.7539,9.9097,9.9981,10.0652,10.0292,10.0875,10.2071,10.0223,9.9605,9.9554,9.8476,9.7913,9.747,0.0,0.0,0.0,0.0,0.0,0.0,0.5425,0.5521,0.6348,0.8544,1.3726,1.8738,2.2887,2.335,2.3628,2.4258,2.3225,2.1729,1.9966,1.7957,1.6581,1.5947,1.946,2.2901,2.5979,2.9322,3.1651,3.3012,3.4298,3.4899,3.4712,3.5915,3.5648,3.4362,3.5537,3.5339,3.3963,3.5302,3.5344,3.4939,3.6178,3.4496,3.1105,0.0,0.0,0.0,0.0,0.0,0.0,0.0,0.0,0.0,0.0,0.0,0.0,0.0,0.0,0.0,0.0,0.0,0.0,0.0,0.0,0.0,0.0,0.0,0.0,0.0,0.0,0.0,0.0,0.0,0.0,0.0,4.1903,4.7443,4.7803,5.2879,5.7085,5.8164,6.0421,6.2346,6.3549,6.4224,6.5315,6.6808,6.7982,6.9704,7.2224,7.3128,7.5051,7.7866,7.891,8.0283,8.1964,8.3335,8.5184,8.7512,8.8835,9.0991,9.4007,9.554,9.7254,9.9087,10.0295,10.0649,10.0292,10.096,10.1201,10.0958,9.9675,9.9389,9.9722,9.8373,9.7114,9.5923,0.0,0.0,0.0,0.0,0.0,0.0,0.5795,0.5714,0.6806,1.0312,1.3885,1.7952,2.306,2.3514,2.3669,2.4176,2.2569,2.0854,1.9354,1.7446,1.7561,2.0236,2.2804,2.5594,2.8515,3.135,3.3042,3.3485,3.469,3.5067,3.4782,3.5664,3.5435,3.437,3.5066,3.4821,3.3697,3.4655,3.4693,3.4219,3.6645,3.5516,3.2353,3.3464,3.1289,2.7821,2.8836,2.8947,2.8364,2.6645,0.0,0.0,0.0,0.0,0.0,0.0,0.0,0.0,0.0,0.0,0.0,0.0,0.0,0.0,0.0,0.0,0.0,0.0,0.0,0.0,0.0,0.0,0.0,0.0,4.5323,5.0317,5.1944,5.5994,5.9114,5.9994,6.1326,6.2712,6.4075,6.4621,6.5511,6.6752,6.7761,6.9392,7.1561,7.2546,7.4445,7.7169,7.8555,8.0007,8.1674,8.3325,8.5035,8.6711,8.7974,8.986,9.2154,9.3655,9.5537,9.7914,9.902,9.9843,10.0823,10.1113,10.1698,10.2128,0.0,0.0,0.0,0.0,9.6333,9.5115,0.0,0.0,0.0,0.0,0.0,0.0,0.6264,0.5839,0.6816,1.0887,1.3319,1.6957,2.2857,2.3635,2.3791,2.3929,2.168,1.9445,1.7471,1.6822,1.8758,2.3919,2.5248,2.7622,3.1318,3.2436,3.309,3.3283,3.4324,3.4739,3.4707,3.447,3.4569,3.4818,3.4411,3.4027,3.3532,3.4695,3.4606,3.3777,3.5261,3.4408,3.2469,3.3713,3.2144,2.9368,3.0222,2.9915,2.9234,2.9726,0.0,0.0,0.0,0.0,0.0,0.0,0.0,0.0,0.0,0.0,0.0,0.0,0.0,0.0,0.0,0.0,0.0,0.0,0.0,0.0,0.0,0.0,0.0,0.0,4.9159,5.3712,5.5302,5.7187,5.8589,5.9777,6.1318,6.299,6.4736,6.4744,6.5276,6.6708,6.7458,6.8737,7.0616,7.2107,0.0,0.0,0.0,8.0342,8.1735,8.3847,8.5414,8.6711,8.783,8.8806,8.9868,9.1157,9.3007,9.5277,9.6465,9.8751,10.1492,10.0882,10.2002,10.397,10.2352,10.0771,9.9331,9.7149,9.5728,9.4791,0.0,0.0,0.0,0.0,0.0,0.0,0.6136,0.6106,0.7859,1.2668,1.4457,1.7121,2.2127,2.3186,2.3635,2.3888,2.0863,1.8568,1.7792,2.0604,2.3307,2.5544,2.8116,3.017,3.1754,3.2017,3.2504,3.3309,3.3476,3.3387,3.3109,3.4044,3.3917,3.2655,3.3956,3.4128,3.3782,3.5078,3.5312,3.4814,3.611,3.5892,3.4983,3.5601,3.6022,3.6314,3.7105,3.7831,3.8055,3.4922,3.4128,3.4154,3.3162,3.3011,0.0,0.0,0.0,0.0,0.0,0.0,0.0,0.0,0.0,0.0,0.0,0.0,0.0,0.0,0.0,0.0,0.0,0.0,0.0,4.29,4.8606,5.3247,5.461,5.6154,5.7888,5.9558,6.149,6.3087,6.4334,6.4133,6.4818,6.6767,6.7398,6.8773,7.1508,7.1981,7.3477,7.6236,7.7761,7.9144,8.0642,8.2527,8.4497,8.6711,8.7539,0.0,8.9931,9.1949,9.3598,9.5211,9.6712,9.851,10.0429,10.0308,10.0854,10.1851,10.1387,10.0034,9.7907,9.7196,9.564,9.4061,0.0,0.0,0.0,0.0,0.0,0.0,0.6721,0.6619,0.7816,1.1803,1.2752,1.4488,1.8171,1.9092,1.946,1.9489,1.8371,1.8002,1.868,2.2344,2.5908,2.8964,3.069,3.1804,3.2599,3.2627,3.2633,3.2753,3.2835,3.2907,3.2765,3.3524,3.3482,3.2873,3.3538,3.3804,3.3872,3.4547,3.4911,3.5059,3.5704,3.584,3.5704,3.6654,3.7164,3.7508,3.8746,3.9245,3.9137,3.7783,3.6955,3.6563,3.7034,3.6818,3.5491,0.0,0.0,0.0,0.0,0.0,0.0,0.0,0.0,0.0,0.0,0.0,0.0,0.0,0.0,3.4126,3.6952,0.0,4.3467,4.6817,5.0315,5.3054,5.4398,5.6103,5.7846,5.8887,6.099,6.2483,6.3363,6.4195,6.5031,6.6081,6.6978,6.8306,7.0124,7.136,7.3031,7.5091,7.6606,7.8377,8.0424,8.1538,8.3219,8.5573,8.6089,8.7269,8.8555,8.968,9.1475,9.359,9.4945,9.685,9.9176,10.02,10.0718,10.0649,10.0527,9.9522,9.8045,9.7172,9.5869,9.4558,0.0,0.0,0.0,0.0,0.0,0.0,0.0,0.7056,0.766,1.0406,1.083,1.183,1.4309,1.4947,1.4955,1.4316,1.6347,1.8256,1.96,2.3632,2.7807,3.1825,3.2183,3.2485,3.2738,3.2726,3.2428,3.1899,3.2324,3.2562,3.288,3.288,3.3198,3.3848,3.3513,3.3872,3.4646,3.4746,3.5149,3.5845,3.551,3.5631,3.5924,3.6852,3.693,3.6751,3.8164,3.7955,3.7289,3.8923,3.828,3.7047,3.9678,3.9556,3.7507,3.2738,3.355,0.0,0.0,0.0,0.0,0.0,0.0,0.0,0.0,3.4697,3.4484,3.5027,3.616,3.8233,4.2251,4.3658,4.5791,5.0723,5.2326,5.3283,5.4142,5.621,5.762,5.8084,6.0427,6.2103,6.2712,6.4291,6.5501,6.5867,6.7079,6.8034,6.8731,7.0664,7.2503,7.3753,7.5286,7.7298,7.9521,8.0492,8.2015,8.3994,8.4766,8.5796,8.7025,8.7297,8.9013,9.1969,9.3314,9.5341,9.7764,9.9582,10.0078,9.9465,9.9084,9.8753,9.8296,9.7193,9.6006,9.5013,0.0,0.0,0.0,0.0,0.0,0.0,0.0,0.0,0.7966,1.0121,1.083,1.1836,1.3867,1.4545,1.3891,1.1671,1.7025,2.0225,1.955,2.5706,2.9935,3.1149,3.174,3.1573,3.0877,3.0546,3.0785,3.1364,3.1485,3.1986,3.2666,3.2666,3.3243,3.4296,3.4533,3.5743,3.7479,3.7914,3.8331,3.8681,3.7639,3.7005,3.6557,3.6085,3.623,3.6846,3.6922,3.602,3.5048,3.7864,3.6855,3.5086,3.8047,3.875,3.7939,3.4703,3.3836,3.2287,2.5432,2.4876,2.7257,3.0651,3.2762,3.5845,0.0,4.138,3.9741,4.4175,4.5748,4.6832,4.7569,4.948,5.0819,5.0785,5.2375,5.3865,5.4334,5.5351,5.6422,5.7468,6.0489,6.2712,6.327,6.4497,6.6024,6.7592,6.7802,6.8655,7.004,7.0841,7.1645,7.2399,7.397,7.5407,7.6565,7.8796,8.0624,8.2286,8.4065,8.5543,8.6726,8.7639,8.9301,9.1538,9.4067,9.5538,9.6163,9.7153,9.7548,9.7664,9.6741,9.6776,9.7474,9.7193,9.5777,9.4103,0.0,0.0,0.0,0.0,0.0,0.0,0.0,0.0,0.0,0.8462,0.8613,0.8883,0.9638,0.998,0.9771,0.8824,1.4712,1.8824,1.9507,2.5525,2.987,3.1635,3.1643,3.1317,3.082,3.0952,3.0816,3.0429,3.1303,3.1924,3.2338,3.3219,3.4009,3.4743,3.5387,3.6456,3.7624,3.8039,3.8681,3.9219,3.8402,3.7876,3.7349,3.6608,3.6165,3.5903,3.4372,3.326,0.0,3.4566,3.3927,3.3152,3.7624,3.7295,3.5314,3.4486,3.2911,3.123,3.046,3.0848,3.2316,3.6305,3.8935,4.1029,4.3731,4.3433,4.3123,4.5263,4.6592,4.7675,4.8498,4.9874,5.1018,5.1533,5.297,5.437,5.4773,5.5443,5.6207,5.6942,5.8712,6.0621,6.263,6.4184,6.584,6.7383,6.8115,6.8533,6.9022,6.9915,7.082,7.191,7.2738,7.435,7.6567,7.7598,7.92,8.1734,8.2796,8.4276,8.6275,8.667,8.8185,9.0685,9.2585,9.3824,9.4613,9.5443,9.6088,9.6549,9.6155,9.5877,9.5899,9.5688,9.5456,9.5022,0.0,0.0,0.0,0.0,0.0,0.0,0.0,0.0,0.0,0.0,0.7026,0.6765,0.6506,0.6693,0.6947,0.704,1.2235,1.6557,1.8941,2.422,2.8389,3.0751,3.0963,3.0779,3.0129,3.0941,3.0865,2.9948,3.142,3.2106,3.2445,3.3714,3.4618,3.5388,3.5936,3.6675,3.7606,3.7911,3.8441,3.8974,3.8443,3.7952,3.754,3.6567,3.5247,3.3589,3.1826,3.0446,2.9429,2.9935,2.9127,2.8623,3.3552,3.3091,3.0855,3.1633,2.9708,2.8141,3.1912,3.3296,3.4558,3.8782,4.2281,4.4298,4.3685,4.4213,4.462,4.4857,4.583,4.6846,4.7619,4.9017,5.0383,5.1515,5.2923,5.4252,5.4939,5.5351,5.5931,5.6391,5.6954,5.845,6.1181,6.3394,6.5339,6.6624,6.795,6.8481,6.822,6.9328,7.0452,7.1708,7.2122,7.3559,7.6345,7.6622,7.7993,8.041,8.133,8.2848,8.53,8.5759,8.7032,8.9138,9.0478,9.1546,9.2501,9.3433,9.415,9.4938,9.4673,9.4596,9.4441,9.3808,9.4248,9.4931,0.0,0.0,0.0,0.0,0.0,0.0,0.0,0.0,0.0,0.0,0.0,0.0,0.0,0.6544,0.6853,0.6626,1.0222,1.3988,1.7531,2.1719,2.521,2.7547,2.9231,2.9404,2.8254,2.963,3.0407,3.0362,3.1537,3.2526,3.3331,3.3656,3.4587,3.6146,3.6146,3.6732,3.7924,3.7961,3.8181,3.8475,3.7239,3.6849,3.6714,3.5501,3.2561,2.9261,2.976,2.7788,2.5031,2.4069,2.1866,2.0222,2.3609,2.4567,2.4723,2.5891,2.3882,2.2141,2.588,2.8097,3.0422,3.4486,3.9548,4.3915,4.4679,4.4331,4.3979,4.4784,4.5311,4.5637,4.5637,4.7792,4.9716,5.0358,5.1818,5.3352,5.435,5.4865,5.5426,5.5885,5.5931,5.6973,5.9354,6.1952,6.4297,6.5924,6.7297,6.8272,6.8795,6.9705,7.0673,7.1201,7.2292,7.3389,7.4374,7.5676,7.6955,7.8067,7.9993,8.1762,8.353,8.5147,8.6209,8.6773,8.783,8.8801,8.9512,9.0634,9.1729,9.2625,9.157,9.2316,9.3616,9.1907,9.1811,9.2789,0.0,0.0,0.0,0.0,0.0,0.0,0.0,0.0,0.0,0.0,0.0,0.0,0.0,0.0,0.0,0.0,1.005,1.3017,1.4922,1.952,2.2758,2.4123,2.6936,2.8114,2.747,2.9107,2.9882,2.973,3.1055,3.1755,3.181,3.3156,3.4191,3.5014,3.5815,3.666,3.7631,3.7631,3.7704,3.7778,3.6922,3.5061,3.2948,3.1546,2.876,2.5265,0.0,2.0699,2.0455,2.0695,2.008,1.9853,2.3823,2.3623,2.2071,2.223,2.3278,2.5216,2.8912,3.1141,3.3159,3.6835,4.032,4.2778,4.2773,4.3047,4.3359,4.3962,4.1848,4.0707,4.4053,4.4221,4.5139,4.9286,5.1596,5.355,5.4773,5.4865,5.491,5.5426,5.5151,5.55,5.6973,5.9356,6.1929,6.4403,6.5909,6.6836,6.7451,6.8669,6.9758,7.0673,7.1423,7.2515,7.3783,7.4669,7.6005,7.7956,8.0342,8.1839,8.2733,8.3861,8.4693,8.5233,8.6323,8.6897,8.7187,8.8583,8.9667,9.0468,9.083,9.1124,9.1204,9.1726,9.1191,9.0526,0.0,0.0,0.0,0.0,0.0,0.0,0.0,0.0,0.0,0.0,0.0,0.0,0.0,0.0,0.0,0.0,0.0,1.081,1.2088,1.5908,1.8651,1.9891,2.291,2.4382,2.4007,2.5501,2.6166,2.5929,2.8089,2.926,2.9313,3.1997,3.3476,3.4179,3.5113,3.5843,3.6363,3.6102,3.5291,3.4381,3.3569,3.1196,2.823,2.7146,2.4454,0.0,1.7579,1.6116,1.5666,1.6275,1.6327,1.689,2.1029,2.1248,2.0374,2.1962,2.338,2.573,3.0747,3.2976,3.471,3.8141,4.0235,4.1335,4.1222,4.1853,4.2652,4.3312,4.0884,3.9664,4.2905,4.2573,4.302,4.7194,4.9976,5.2038,5.3235,5.3792,5.4259,5.4591,5.4619,5.5013,5.5504,5.7175,5.9442,6.2614,6.4083,6.5163,6.6338,6.7043,6.8149,6.9605,7.0154,7.1136,7.2782,7.3326,7.494,7.7733,7.9744,8.1088,8.208,8.2662,8.3189,8.3825,8.4941,8.5327,8.5327,8.6543,8.7456,8.7994,8.9103,8.9309,8.9103,9.0357,9.0098,8.9313,0.0,0.0,0.0,0.0,0.0,0.0,0.0,0.0,0.0,0.0,0.0,0.0,0.0,0.0,0.0,0.0,0.0,0.0,0.9266,1.1215,1.3021,1.4824,1.7346,1.8594,1.8518,1.9434,1.9924,1.9934,2.3196,2.5172,2.5981,2.9696,3.21,3.3172,3.3586,3.3794,3.3759,3.3117,3.1281,2.8633,2.7763,2.5681,2.3083,2.2471,1.9666,1.6294,1.6186,1.4013,1.106,1.123,1.1318,1.1982,1.5883,1.799,1.9911,2.4634,2.4355,2.4045,3.1367,3.3529,3.4797,3.8066,3.9289,3.9681,4.0142,4.0983,4.1701,4.2442,4.1838,4.1058,4.1507,4.2067,4.2884,4.3984,4.6907,4.931,5.0487,5.2127,5.3311,5.3851,5.4636,5.526,5.5257,5.5711,5.7309,6.075,6.1662,6.3029,6.5165,6.5297,6.6192,6.8344,6.875,6.9746,7.1356,7.1926,7.3881,7.706,7.8176,7.9464,8.112,8.1455,8.18,8.2272,8.3726,8.4032,8.3726,8.4846,8.5274,8.5327,8.6656,8.7119,8.7215,8.7988,8.8465,8.8991,0.0,0.0,0.0,0.0,0.0,0.0,0.0,0.0,0.0,0.0,0.0,0.0,0.0,0.0,0.0,0.0,0.0,0.0,0.717,0.921,1.0696,1.1293,1.5118,1.7227,1.6908,1.8759,1.9483,1.8906,2.0662,2.1364,2.1241,2.2985,2.4331,2.498,2.5566,2.5974,2.6236,2.6292,2.5651,2.4743,2.4134,2.2093,1.9149,1.8229,1.5958,1.3079,1.2274,1.1234,1.0445,1.1653,1.4251,1.7673,2.1331,2.293,2.4525,2.855,2.9458,3.0282,3.49,3.6292,3.6828,3.7742,3.7981,3.8322,3.9236,3.8856,3.8031,3.6972,3.3166,3.0314,3.1277,3.261,3.5123,3.9653,4.5148,4.9933,5.2622,5.3325,5.3985,5.4681,5.4985,5.5257,5.5244,5.5423,5.6272,5.8293,5.9575,6.0968,6.2683,6.4037,6.5566,6.7091,6.809,6.9264,7.0781,7.2904,7.4394,7.5235,7.6001,7.6792,7.7655,7.8625,7.9456,8.004,8.1324,8.2192,8.261,8.3419,8.3846,8.4336,8.5659,8.5696,8.4999,8.6927,8.6761,8.592,0.0,0.0,0.0,0.0,0.0,0.0,0.0,0.0,0.0,0.0,0.0,0.0,0.0,0.0,0.0,0.0,0.0,0.0,0.0,0.7076,0.8034,0.8068,1.0959,1.2541,1.2405,1.3939,1.4571,1.4412,1.66,1.768,1.7551,1.9877,2.1244,2.1829,2.2364,2.2751,2.3022,2.2959,2.2089,0.0,0.0,1.8079,1.5338,1.47,1.3308,1.1775,1.1091,1.1605,1.3016,1.6163,1.982,2.3546,2.6091,2.7093,2.7985,3.2184,3.2729,3.2601,3.609,3.7367,3.7636,3.7464,3.7464,3.7333,3.6288,3.5625,3.4604,3.2292,2.9093,2.7473,3.0192,3.1574,3.3889,3.8813,4.433,4.8733,5.0623,5.2367,5.3873,5.4534,5.4929,5.5199,5.4778,5.5003,5.5623,5.624,5.7581,5.9243,6.1253,6.225,6.3565,6.5299,6.6108,6.7593,6.9675,7.1563,7.3225,7.4191,7.486,7.5531,7.6324,7.7428,7.84,7.9125,8.0057,8.1019,8.1525,8.1449,8.188,8.274,8.3823,8.388,8.3274,8.4895,8.4917,8.4244,0.0,0.0,0.0,0.0,0.0,0.0,0.0,0.0,0.0,0.0,0.0,0.0,0.0,0.0,0.0,0.0,0.0,0.0,0.0,0.0,0.5587,0.5504,0.6512,0.7145,0.7319,0.7953,0.8436,0.8855,1.2224,1.4013,1.4403,1.7761,1.9667,1.9989,2.0545,2.0867,2.0812,2.0501,1.8955,1.6708,1.6237,1.4516,1.2253,0.0,1.1873,1.1678,1.158,1.3404,1.6728,2.1673,2.5393,2.8369,3.0292,3.062,3.0963,3.5288,3.4473,3.2952,3.6057,3.7129,3.7363,3.6986,3.7191,3.6525,3.2823,3.2189,3.1371,2.768,2.6517,2.7394,3.1325,3.2567,3.4382,3.896,4.3303,4.6239,4.7297,5.0507,5.3071,5.3558,5.4472,5.4738,5.3777,5.465,5.5172,5.4762,5.61,5.789,6.0244,6.0295,6.1212,6.3195,6.3911,6.5592,6.819,6.9229,7.086,7.3029,7.3611,7.4403,7.5531,7.6857,7.7887,7.8511,7.9296,7.9961,8.0399,7.9524,7.9833,8.0933,8.1721,8.1896,8.202,8.28,8.3143,8.311,0.0,0.0,0.0,0.0,0.0,0.0,0.0,0.0,0.0,0.0,0.572,0.0,0.0,0.0,0.0,0.0,0.0,0.0,0.0,0.0,0.0,0.4895,0.5732,0.619,0.6437,0.7057,0.7524,0.786,0.9311,1.0268,1.0575,1.1268,1.1763,1.2066,1.2339,1.2502,1.2865,1.3675,1.3842,1.3612,1.3523,1.3019,1.2422,1.2381,1.2165,0.0,1.1385,1.3908,1.7774,2.1009,2.4882,2.8877,3.3304,3.4676,3.4986,3.595,3.5525,3.4834,3.579,3.6389,3.6588,3.6627,3.6625,3.5721,3.1999,3.0121,2.7227,2.046,1.9231,1.9462,1.973,2.1807,2.6286,3.459,3.8244,4.2094,4.8438,5.0249,5.135,5.2416,5.323,5.3409,5.2751,5.3665,5.4374,5.5194,5.6217,5.7511,5.9128,5.9671,6.0645,6.2642,6.4062,6.5392,6.67,6.7785,6.8494,6.8958,6.9953,7.0909,7.1801,7.3803,7.5423,7.7056,7.7564,7.8401,7.9502,7.8763,7.8802,7.9398,8.0551,8.0591,8.0259,8.184,8.199,8.1541,0.0,0.0,0.0,0.0,0.0,0.0,0.0,0.0,0.0,0.4751,0.4768,0.4976,0.0,0.0,0.0,0.0,0.0,0.0,0.0,0.0,0.0,0.4794,0.5224,0.5479,0.5556,0.6318,0.6776,0.6936,0.0,0.8669,0.8861,0.9502,0.9879,1.0064,1.0719,1.1139,1.1457,1.2151,1.2566,1.277,1.277,1.277,1.2575,1.2575,1.2478,0.0,1.1775,1.3717,1.6906,1.949,2.3245,2.7717,3.3068,3.5197,3.5618,3.5679,3.5358,3.4998,3.539,3.582,3.6088,3.6258,3.5989,3.4435,2.9153,2.705,2.4018,1.6995,1.5173,1.5551,1.7474,2.069,2.5022,3.163,3.7151,4.2143,4.6365,4.888,5.0559,5.1433,5.1635,5.1452,5.1222,5.1657,5.2518,5.3964,5.5426,5.7149,5.8942,5.9661,6.036,6.1209,6.2365,6.3661,6.5239,6.5847,6.6872,6.7898,6.8327,6.9207,7.0165,7.1701,7.3199,7.4684,7.5889,7.6525,7.654,7.7116,7.7288,7.7063,7.8309,7.846,7.8366,7.9637,7.9656,7.9539,0.0,0.0,0.0,0.0,0.0,0.0,0.0,0.3151,0.351,0.4222,0.4054,0.4054,0.4599,0.4751,0.4449,0.0,0.0,0.0,0.0,0.0,0.0,0.0,0.0,0.4935,0.5012,0.0,0.0,0.6391,0.726,0.0,0.0,0.0,0.0,0.0,1.0486,1.1086,1.1421,1.2001,1.2469,0.0,0.0,1.277,1.277,0.0,0.0,0.0,0.0,1.3193,1.5155,1.774,2.1101,2.5168,3.0395,3.2675,3.3626,3.3908,3.3627,3.3403,3.4269,3.4957,3.5557,3.5491,3.5357,3.3365,2.6779,2.4471,2.1648,1.4421,1.2597,1.3356,1.6834,1.9576,2.3222,2.9064,3.3959,3.8469,4.3326,4.5664,4.7599,4.9697,4.9762,4.9472,4.9242,4.9432,5.0306,5.2107,5.4565,5.6676,5.8798,5.9572,5.9993,5.9591,6.051,6.1852,6.3619,6.4131,6.5294,6.6785,6.7212,6.7873,6.8905,7.0004,7.1243,7.2435,7.4027,7.4234,7.3683,7.502,7.5115,7.4472,7.5512,7.5958,7.6398,7.7154,7.7468,7.756,0.0,0.0,0.0,0.0,0.0,0.0,0.0,0.3273,0.3538,0.3932,0.3632,0.3519,0.3584,0.3552,0.3383,0.0,0.0,0.0,0.0,0.0,0.0,0.0,0.0,0.0,0.0,0.0,0.0,0.6391,0.6784,0.0,0.0,0.0,0.0,0.0,0.0,0.8874,0.9551,1.115,0.0,0.0,0.0,0.0,0.0,0.0,0.0,0.0,0.0,1.2391,1.3399,1.6194,1.8332,2.0361,2.3662,2.6855,2.9274,2.9637,2.9123,2.9168,3.1764,3.3391,3.4103,3.4277,3.4439,3.2984,2.646,2.4012,2.0459,1.168,1.0912,1.1913,1.2521,1.1773,1.4985,2.6858,2.3171,2.4259,4.0377,3.9483,3.9635,4.6145,4.7197,4.7272,4.6561,4.7418,4.848,4.9509,5.3597,5.6719,5.8278,5.851,5.8699,5.8986,5.9591,6.042,6.1479,6.2498,6.2962,6.3196,6.4644,6.5967,6.7396,6.8352,6.9889,7.1756,7.1474,7.1577,7.1988,7.2013,7.1978,7.1896,7.2857,7.3486,7.3813,7.5295,7.5958,7.628,0.0,0.0,0.0,0.0,0.0,0.0,0.0,0.3391,0.3552,0.4054,0.3786,0.3591,0.3521,0.329,0.304,0.0,0.0,0.0,0.0,0.0,0.0,0.0,0.0,0.0,0.0,0.0,0.5289,0.5823,0.5954,0.0,0.0,0.0,0.0,0.0,0.0,0.8893,1.0114,1.0656,0.0,0.0,0.0,0.0,0.0,0.0,0.0,0.0,0.0,0.0,1.292,1.4551,1.6322,1.8064,1.872,2.0545,2.3201,2.71,2.8134,2.8365,3.0764,3.1978,3.2628,3.2803,3.3062,3.1511,2.5138,2.2499,1.9254,1.1646,0.9287,0.8751,0.8787,1.1667,1.4955,1.8068,2.2955,2.8275,3.3778,3.6356,3.9179,4.2737,4.3509,4.4004,4.513,4.5257,4.6307,4.9052,5.1751,5.3964,5.5493,5.7037,5.7651,5.7611,5.7755,5.8773,6.0792,6.0194,6.0651,6.2314,6.2516,6.3217,6.4553,6.5917,6.7097,6.8191,6.9139,6.9605,6.9597,7.067,7.0627,6.9862,7.0857,7.1251,7.1461,7.2175,7.2558,7.293,0.0,0.0,0.0,0.0,0.0,0.0,0.3326,0.3411,0.3573,0.4025,0.3894,0.3718,0.3623,0.332,0.2986,0.2633,0.0,0.0,0.0,0.0,0.0,0.0,0.0,0.0,0.0,0.0,0.5339,0.5631,0.5545,0.5523,0.0,0.0,0.6681,0.6636,0.0,0.0,0.0,0.0,0.0,0.0,0.0,0.0,0.0,0.0,0.0,0.0,0.0,0.0,0.0,0.0,0.0,1.5058,1.4536,1.5194,1.7283,2.3718,2.5741,2.6686,2.8979,3.0483,3.1482,3.1948,3.1003,2.8776,2.3808,2.0551,1.6789,1.0718,0.8026,0.6655,0.612,0.981,1.3092,1.3222,1.9435,2.5763,2.9905,3.2493,3.5029,3.7776,3.8184,3.8868,4.0593,4.1829,4.4021,4.7351,4.9238,5.0591,5.1937,5.4197,5.5829,5.6397,5.6422,5.7251,5.9538,5.8428,5.9029,6.0862,6.0519,6.0916,6.2076,6.2844,6.383,6.4666,6.5967,6.644,6.644,6.7803,6.7884,6.7036,6.7867,6.821,6.7981,6.875,6.9054,6.9128,0.0,0.0,0.0,0.0,0.0,0.0,0.0,0.334,0.3615,0.3776,0.3765,0.3813,0.3908,0.3558,0.3328,0.3421,0.0,0.0,0.0,0.0,0.0,0.0,0.0,0.0,0.0,0.0,0.5594,0.5889,0.5631,0.5523,0.573,0.573,0.5615,0.5537,0.0,0.0,0.0,0.0,0.0,0.0,0.0,0.0,0.0,0.0,0.0,0.0,0.0,0.0,0.0,0.0,0.0,0.0,0.0,1.1219,1.2312,1.8389,2.1176,2.286,2.5806,2.8647,3.0954,3.1948,2.8633,2.4657,2.2615,1.7928,1.2624,0.8083,0.7153,0.657,0.4705,0.4416,0.7046,1.5253,0.9413,1.0756,3.0505,2.6959,2.4516,3.0297,3.1092,3.1238,3.1526,3.6959,4.1342,4.3803,4.6017,4.7369,4.7945,4.9742,5.2519,5.5871,5.5913,5.6315,5.7164,5.7783,5.8038,5.8038,5.8549,5.9352,6.0288,5.9702,6.0483,6.1928,6.1304,6.1497,6.1973,6.2615,6.2788,6.2636,6.3801,6.3666,6.3284,6.5548,6.5693,6.4871,0.0,0.0,0.0,0.0,0.0,0.0,0.0,0.3099,0.328,0.3602,0.369,0.3665,0.3616,0.3558,0.3513,0.3328,0.0,0.0,0.0,0.0,0.0,0.0,0.0,0.0,0.0,0.0,0.5764,0.6155,0.5808,0.5697,0.573,0.5908,0.593,0.5964,0.628,0.708,0.0,0.0,0.0,0.0,0.0,0.0,1.1278,0.0,0.0,0.0,0.0,0.0,0.0,0.0,0.0,0.0,0.0,0.0,0.0,1.3973,1.545,1.7198,2.0742,2.1579,2.172,2.3176,2.1922,1.9633,1.6612,1.4263,1.1385,0.7404,0.5961,0.5069,0.4221,0.5954,0.8466,1.1108,1.2105,1.5606,2.4912,2.5687,2.7442,3.2832,3.5438,3.6668,3.6723,3.9273,4.1473,4.2944,4.4355,4.5275,4.6247,4.7554,4.9589,5.2821,5.2816,5.3566,5.5696,5.5042,5.5444,5.6988,5.6999,5.7405,5.7705,5.8251,5.8617,5.9113,5.9355,6.0176,6.1304,6.1481,6.1735,6.1998,6.2053,6.2153,6.2298,6.2259,6.2442,6.2425,0.0,0.0,0.0,0.0,0.0,0.0,0.0,0.2902,0.3059,0.3232,0.3506,0.3592,0.3477,0.3612,0.3762,0.3605,0.0,0.0,0.0,0.0,0.0,0.0,0.0,0.0,0.5065,0.5484,0.5964,0.6453,0.6065,0.5819,0.5819,0.5997,0.6086,0.6086,0.6346,0.6834,0.0,0.0,0.0,0.0,0.0,0.0,1.0567,0.0,0.0,0.0,0.0,0.0,0.0,0.0,0.0,0.0,0.0,0.0,0.0,0.0,1.0778,1.2085,1.6419,1.7441,1.7511,1.8927,1.7433,1.5022,1.3248,1.1095,0.9125,0.7535,0.695,0.6911,0.7522,0.8518,1.0143,1.2803,1.2414,1.4873,2.3476,2.4128,2.5531,3.0809,3.351,3.475,3.472,3.7586,3.9847,4.0432,4.1962,4.3139,4.3918,4.508,4.6764,4.9282,5.0193,5.1633,5.3602,5.2885,5.3041,5.4437,5.4164,5.3959,5.4045,5.4404,5.4603,5.4842,5.5165,5.6204,0.0,5.7488,5.7687,5.8239,5.8361,5.7817,5.7363,5.7256,5.6874,5.6212,0.0,0.0,0.0,0.0,0.0,0.0,0.0,0.0,0.0,0.0,0.3238,0.3525,0.3408,0.372,0.3976,0.0,0.0,0.0,0.0,0.0,0.0,0.0,0.0,0.0,0.565,0.5716,0.6076,0.674,0.6334,0.6086,0.6086,0.6174,0.6174,0.6174,0.6618,0.6707,0.0,0.0,0.0,0.0,0.9291,0.9929,0.0,0.0,0.0,0.0,0.0,0.0,0.0,0.0,0.0,0.0,0.0,0.0,0.0,0.0,0.0,0.0,0.0,1.5453,1.6924,1.7823,1.439,1.0996,1.1821,0.8648,0.0,0.8227,0.9303,1.0607,1.2797,1.1305,1.1766,1.8081,1.0904,0.9875,2.5147,2.265,2.1068,2.5715,2.7317,2.8004,2.7573,3.3168,3.6833,3.7057,3.9079,4.0626,4.1078,4.2584,4.4131,4.5358,4.7997,4.9988,5.0818,5.0893,5.0931,5.0931,5.0049,4.9823,4.9786,4.8941,4.912,4.9502,4.9537,5.0199,5.1274,5.1237,5.165,5.2063,5.2994,5.1814,4.9638,5.1014,4.9701,4.728,0.0,0.0,0.0,0.0,0.0,0.0,0.0,0.0,0.0,0.0,0.3351,0.3595,0.3519,0.3782,0.3954,0.0,0.0,0.0,0.0,0.0,0.0,0.0,0.0,0.0,0.5792,0.5868,0.6293,0.7076,0.6551,0.634,0.634,0.6529,0.6618,0.6618,0.6884,0.7115,0.0,0.0,0.0,0.0,0.8485,0.8744,0.0,0.0,0.0,0.0,0.9098,0.8981,0.0,0.0,0.0,0.0,0.0,0.0,0.0,0.0,0.7733,0.7679,0.8957,0.0,0.931,1.0627,0.9208,0.7502,0.0,0.6935,0.62,0.6769,0.7018,0.7279,0.7641,0.9125,1.09,1.2358,1.044,1.2102,2.1762,2.5855,2.8499,3.0613,3.2127,3.2846,3.2042,3.4662,3.6723,3.7624,3.845,3.9085,3.9494,4.139,4.246,4.1965,4.4043,4.6144,4.7762,4.8339,4.822,4.7401,4.6819,4.682,4.7513,4.6539,4.6954,4.8526,4.8071,4.8701,5.0199,5.0163,4.9918,4.971,4.9773,4.8941,4.7546,4.6839,4.6369,4.5744,0.0,0.0,0.0,0.0,0.0,0.0,0.0,0.0,0.0,0.0,0.0,0.0,0.0,0.0,0.0,0.0,0.0,0.0,0.0,0.0,0.0,0.0,0.0,0.505,0.5874,0.59,0.6338,0.712,0.6781,0.6643,0.6706,0.6732,0.6795,0.6795,0.6949,0.7249,0.0,0.0,0.0,0.7936,0.818,0.0,0.0,0.0,0.0,0.0,0.9033,0.9131,0.0,0.9368,0.9258,0.9147,0.0,0.0,0.0,0.0,0.8374,0.8152,0.8042,0.7477,0.6977,0.7522,0.7086,0.6454,0.6284,0.6274,0.6977,0.931,0.9181,0.938,1.1441,1.2588,1.3604,1.5017,1.3695,1.4707,2.1035,2.6681,3.0437,3.1554,3.2561,3.2953,3.2738,3.4073,3.5178,3.5574,3.6265,3.6757,3.7298,3.8697,3.9787,4.0054,4.1238,4.2857,4.5473,4.5447,4.5209,4.5039,4.373,4.3334,4.3721,4.3035,4.3075,4.339,4.3605,4.4002,4.4612,4.4825,4.5039,4.5252,4.4366,4.351,4.2681,4.103,4.0106,3.9196,0.0,0.0,0.0,0.0,0.0,0.0,0.0,0.0,0.0,0.0,0.0,0.0,0.0,0.0,0.0,0.0,0.0,0.0,0.0,0.0,0.0,0.0,0.4614,0.5032,0.5796,0.5879,0.6338,0.7136,0.6974,0.7028,0.7132,0.7028,0.6962,0.6923,0.7067,0.729,0.0,0.7624,0.7801,0.8085,0.8248,0.0,0.0,0.0,0.0,0.0,0.0,0.0,0.0,0.9919,0.9919,0.9809,0.9809,0.0,0.0,0.0,0.0,0.0,0.8706,0.845,0.7963,0.7522,0.7107,0.6964,0.7048,0.6781,0.7817,1.2389,1.225,1.2731,1.7345,1.7245,1.7188,1.9536,1.7774,1.7527,2.1771,2.6323,2.9515,3.0491,3.0889,3.1343,3.1341,3.2394,3.2996,3.2777,3.3575,3.4492,3.4995,3.5608,3.6907,3.8585,3.869,4.0155,4.2945,4.2335,4.2163,4.2163,4.0685,3.9551,3.9238,3.9156,3.8384,3.7591,3.8445,3.8664,3.8389,3.8608,3.9266,4.014,3.8361,3.7262,3.6679,3.5007,3.3416,3.1561,0.0,0.0,0.0,0.0,0.0,0.0,0.0,0.0,0.0,0.0,0.0,0.0,0.0,0.0,0.0,0.0,0.0,0.0,0.0,0.0,0.0,0.4794,0.4794,0.5001,0.5608,0.5992,0.6424,0.7027,0.7459,0.757,0.7476,0.757,0.749,0.7339,0.7409,0.7584,0.7611,0.7733,0.795,0.8248,0.8397,0.0,0.0,0.0,0.0,0.0,0.0,0.0,0.0,1.0468,1.0249,0.9809,1.0139,0.0,0.0,0.0,0.0,0.0,0.9588,1.0894,1.193,1.0716,0.9155,0.8301,0.9954,0.8794,0.8148,1.0893,1.1106,1.1568,1.4036,1.6519,1.7762,1.5962,1.8428,2.1009,2.2659,2.5754,2.8161,2.9435,3.0324,3.0642,2.9852,3.1209,3.223,3.2449,3.2312,3.2558,3.2935,3.471,3.5304,3.4812,3.6077,3.7027,3.7693,3.8545,3.8456,3.7206,3.6095,3.5537,3.5154,3.4785,3.5287,3.621,3.6015,3.621,3.7068,3.5715,3.5049,3.5075,3.3937,3.3068,3.2265,3.0923,3.0068,2.8999,0.0,0.0,0.0,0.0,0.0,0.0,0.0,0.0,0.0,0.0,0.0,0.0,0.0,0.0,0.0,0.0,0.0,0.0,0.0,0.0,0.4834,0.4834,0.4834,0.4935,0.5336,0.5935,0.6393,0.6854,0.7466,0.7773,0.7719,0.7706,0.7665,0.7611,0.7678,0.776,0.7841,0.7909,0.8158,0.848,0.0,0.0,0.0,0.0,0.0,0.0,0.0,0.0,0.0,0.0,1.0468,1.0359,1.0468,0.0,0.0,0.0,0.0,0.0,0.9809,1.0545,1.1651,1.3131,1.2664,1.2089,1.2637,1.19,1.1477,1.2523,1.171,1.1299,1.344,1.5809,1.8218,2.0366,2.2636,2.4223,2.4885,2.6186,2.7342,2.81,2.8868,2.9068,2.878,2.9722,3.0357,3.0306,3.0331,3.0536,3.0725,3.1477,3.2012,3.2145,3.2023,3.2072,3.2969,3.2906,3.348,3.424,3.3387,3.2804,3.2564,3.3127,3.3469,3.3321,3.3714,3.334,3.2644,3.1948,3.1521,3.1049,2.8791,2.8564,2.8874,2.7019,2.5967,2.4727,0.0,0.0,0.0,0.0,0.0,0.0,0.0,0.0,0.0,0.0,0.0,0.0,0.0,0.0,0.0,0.0,0.0,0.0,0.0,0.0,0.4834,0.4834,0.4834,0.4935,0.5135,0.5787,0.6294,0.6782,0.7447,0.7905,0.8062,0.7787,0.7842,0.8007,0.7855,0.7909,0.8089,0.8117,0.8327,0.8787,0.0,0.0,0.0,0.0,0.0,0.0,0.0,0.0,0.0,0.0,0.0,0.0,0.0,0.0,0.0,1.0468,1.0723,1.0964,1.02,1.0771,1.2056,1.4447,1.4892,1.4888,1.509,1.4742,1.4636,1.5005,1.368,1.2994,1.5149,1.6981,1.9485,2.3741,2.5665,2.6747,2.6986,2.6953,2.7196,2.7731,2.7787,2.8005,2.827,2.8681,2.8632,2.8248,2.8414,2.8533,2.8144,2.8238,2.8497,2.9567,2.8167,2.7796,2.8894,2.7801,2.8567,3.1439,3.094,3.055,3.0174,3.079,3.0643,2.9998,3.0443,2.9674,2.807,2.8379,2.8172,2.7222,2.4729,2.4075,2.4624,2.3273,2.1506,1.9406,0.0,0.0,0.0,0.0,0.0,0.0,0.0,0.0,0.0,0.0,0.0,0.0,0.0,0.0,0.0,0.0,0.0,0.0,0.0,0.4834,0.4834,0.4834,0.4834,0.4834,0.4834,0.5519,0.6087,0.6713,0.7452,0.8149,0.8855,0.824,0.8133,0.8505,0.816,0.8146,0.8519,0.847,0.8628,0.9093,0.9257,0.0,0.0,0.0,0.0,0.0,0.0,0.0,0.0,0.0,0.0,0.0,0.0,0.0,1.0688,1.0688,1.2081,1.3306,1.1251,1.3611,1.6176,1.4057,1.3358,1.4098,1.726,1.65,1.58,1.7517,1.7663,1.8035,1.9753,2.2056,2.2933,2.1058,2.4818,2.8127,2.836,0.0,2.8125,2.8667,2.8363,2.8294,2.856,2.8632,2.8248,2.726,2.726,2.6897,2.5734,2.573,2.5872,2.6105,2.5747,2.5563,2.5995,2.4803,2.544,2.7526,2.8447,2.8247,2.7173,2.6512,2.6184,2.5961,2.5723,2.5384,2.5158,2.4885,2.427,2.3564,2.2201,2.0532,1.8878,1.9241,1.6438,1.2249,0.0,0.0,0.0,0.0,0.0,0.0,0.0,0.0,0.0,0.0,0.0,0.0,0.0,0.0,0.0,0.0,0.0,0.0,0.0,0.4834,0.4834,0.4834,0.4834,0.4834,0.4834,0.5498,0.5998,0.6208,0.7264,0.8138,0.8689,0.8585,0.8499,0.8441,0.8499,0.8598,0.8735,0.8696,0.887,0.916,0.9538,0.9781,0.0,0.0,0.0,0.0,0.0,0.0,0.0,0.0,1.0688,1.0688,1.0688,1.0688,1.0688,1.0688,1.1268,1.1811,1.0896,1.2885,1.5268,1.5265,1.5473,1.6131,1.8081,1.8953,1.9119,1.8371,1.799,1.826,1.9357,2.1199,2.2708,2.3348,2.5193,2.6766,2.7484,2.7657,2.7854,2.8038,2.8047,2.7888,2.7389,2.7553,2.6874,2.5302,2.5108,2.4699,2.3531,2.3297,2.3077,2.3288,2.2822,2.2373,2.2524,2.1777,2.1754,2.2495,2.4449,2.5071,2.4842,2.455,2.4512,2.4624,2.3708,2.2946,2.2627,2.1307,2.0482,1.9878,1.8503,1.7222,1.6201,1.6224,1.4865,1.2754,0.0,0.0,0.0,0.0,0.0,0.0,0.0,0.0,0.0,0.0,0.0,0.0,0.0,0.0,0.0,0.0,0.0,0.0,0.4634,0.4734,0.4834,0.4834,0.4834,0.4851,0.4875,0.537,0.5776,0.5951,0.7241,0.8046,0.8411,0.8657,0.8855,0.8899,0.884,0.8954,0.9099,0.8954,0.9137,0.9367,0.9816,1.0064,0.0,0.0,0.0,0.0,0.0,0.0,0.0,0.0,1.0798,1.0798,1.0798,1.0798,1.0798,1.0798,1.1776,1.2642,1.188,1.3929,1.6247,1.6654,1.757,1.8498,1.8938,2.0374,2.1075,1.9761,1.9284,1.8987,1.8538,2.0465,2.2331,2.3121,2.4719,2.6056,2.6942,2.7377,2.7657,2.7585,2.7642,2.7533,2.6846,2.6715,2.5647,2.3451,2.3101,2.2497,2.1199,2.079,2.0518,2.0587,1.9613,1.9158,1.9049,1.8933,1.8857,1.8634,2.0213,2.1483,2.2439,2.2303,2.2489,2.2676,2.1048,2.032,1.9804,1.8477,1.7435,1.6168,1.5481,1.4154,1.3074,1.3139,1.2461,1.1523,0.0,0.0,0.0,0.0,0.0,0.0,0.0,0.0,0.0,0.0,0.0,0.0,0.0,0.0,0.0,0.0,0.0,0.0,0.444,0.4634,0.4834,0.4834,0.4834,0.4875,0.4965,0.5153,0.5526,0.596,0.7323,0.8086,0.835,0.86,0.9214,0.9876,0.9099,0.9214,0.9876,0.9398,0.9335,0.9665,1.0022,1.0168,1.0201,0.0,0.0,0.0,0.0,0.0,0.0,0.0,1.0907,1.1126,1.1126,1.1126,1.1126,1.1143,1.4032,1.6778,1.4644,1.7255,2.0061,1.7866,1.903,2.0592,2.0391,2.0307,2.0704,2.2322,2.2299,2.1003,1.8163,2.0508,2.2072,1.9365,2.3098,2.6387,2.6918,2.7377,2.7838,2.7952,2.7828,2.7533,2.6656,2.5924,2.4594,2.2268,2.1271,2.0242,1.892,1.8228,1.7829,1.768,1.651,1.5912,1.5912,1.6041,1.6315,1.6944,1.6472,1.7753,2.0217,1.9147,1.9017,1.9412,1.7793,1.7253,1.7407,1.685,1.5138,1.3139,1.3149,1.1343,0.8807,1.0001,0.8813,0.6915,0.0,0.0,0.0,0.0,0.0,0.0,0.0,0.0,0.0,0.0,0.0,0.0,0.0,0.0,0.0,0.0,0.0,0.0,0.4138,0.4332,0.4541,0.4541,0.4734,0.4951,0.5179,0.5404,0.5979,0.6717,0.7323,0.7891,0.8568,0.9221,0.9461,0.9414,0.9578,0.9662,0.9697,0.9549,0.9533,0.9665,1.0022,1.0087,1.0022,0.0,0.0,0.0,0.0,0.0,0.0,0.0,0.0,0.0,1.1126,1.1236,1.1594,1.2273,1.3373,1.4168,1.3501,1.643,1.9376,1.7781,1.9129,2.1371,2.2999,2.298,2.2705,2.2665,2.243,2.1736,2.0466,2.096,2.1501,2.1261,2.2627,2.4074,2.4922,2.5901,2.6359,2.5717,2.5808,2.5197,2.3354,2.2652,2.133,1.8777,1.8439,1.7843,1.6609,1.6349,1.6096,1.5466,1.5396,1.5157,1.4511,1.4559,1.4582,1.4376,1.3461,1.4481,1.6869,1.5778,1.5633,1.5585,1.4054,1.3715,1.4439,1.2891,1.1163,0.9794,0.9851,0.9458,0.8569,0.8575,0.8129,0.7455,0.0,0.0,0.0,0.0,0.0,0.0,0.0,0.0,0.0,0.0,0.2962,0.2921,0.0,0.0,0.0,0.3428,0.3773,0.0,0.4038,0.4268,0.447,0.4541,0.4766,0.4993,0.5298,0.5417,0.595,0.6937,0.7345,0.7814,0.8268,0.9338,0.9774,0.9641,0.9774,0.986,0.9827,0.9681,0.9466,0.9361,0.9729,0.9776,0.9745,0.0,0.0,0.0,0.0,0.0,0.0,0.0,0.0,0.0,1.1345,1.1939,1.2846,1.3574,1.4776,1.6037,1.6175,1.8746,2.1254,2.0497,2.1357,2.2835,2.4387,2.4246,2.3746,2.3404,2.2884,2.2225,2.1652,2.1289,2.1191,2.1628,2.2029,2.2516,2.3336,2.4492,2.5127,2.4454,2.4747,2.4111,2.1792,2.1127,1.9811,1.7275,1.6743,1.6152,1.5466,1.5188,1.4711,1.4238,1.4,1.3552,1.2888,1.2769,1.241,1.1597,1.1239,1.1559,1.2344,1.2786,1.3104,1.331,1.2213,1.1656,1.1709,1.059,0.9069,0.7444,0.7972,0.7789,0.7118,0.7143,0.7169,0.721,0.0,0.0,0.4532,0.4451,0.0,0.0,0.0,0.0,0.0,0.2962,0.2872,0.2921,0.0,0.0,0.0,0.3226,0.3647,0.395,0.395,0.4318,0.453,0.4649,0.4916,0.5068,0.5404,0.5298,0.5694,0.6519,0.7328,0.7661,0.7733,0.9105,0.9887,1.0136,0.9871,0.9887,1.0016,0.9578,0.923,0.8991,0.9153,0.9227,0.9256,0.9689,0.0,0.0,0.0,0.0,0.0,0.0,0.0,0.0,1.1564,1.2754,1.4115,1.4577,1.7162,1.996,2.043,2.238,2.4435,2.4175,2.4411,2.4745,2.5011,2.4573,2.4075,2.4075,2.3365,2.2439,2.1905,2.1515,2.1139,2.0637,2.1144,2.1777,2.2021,2.2987,2.3614,2.3666,2.4063,2.3262,2.1226,2.0449,1.9154,1.6919,1.6096,1.5479,1.5006,1.4482,1.3994,1.3692,1.2077,1.1254,1.1082,1.0861,1.0128,0.9105,0.9526,0.8943,0.7552,0.9815,1.1241,1.1781,1.1533,1.0548,0.9063,0.9672,0.8123,0.5585,0.6797,0.6117,0.4952,0.6174,0.6668,0.6687,0.0,0.0,0.4467,0.4442,0.0,0.0,0.0,0.0,0.3499,0.3141,0.2962,0.2921,0.313,0.3231,0.0,0.3297,0.3451,0.3479,0.3479,0.3757,0.3933,0.3914,0.4485,0.5035,0.5501,0.5741,0.5997,0.6313,0.6726,0.7472,0.823,0.8611,0.9006,0.924,0.8916,0.8695,0.8596,0.8414,0.8327,0.8364,0.8633,0.8689,0.873,0.9472,0.9738,0.0,0.0,0.0,0.0,0.0,0.0,0.0,1.1673,1.2036,1.272,1.3639,1.5044,1.65,1.6816,2.0131,2.3257,2.1497,2.3027,2.5035,2.5301,2.4885,2.4395,2.4247,2.3365,2.2503,2.2094,2.1618,2.1179,2.0832,2.0715,2.0673,2.0923,2.1681,2.2101,2.1067,2.1308,2.0649,1.8395,1.7695,1.6958,1.5612,1.5451,1.4871,1.4052,1.3914,1.3026,1.1574,1.1066,1.0633,1.0079,0.9508,0.8956,0.8409,0.7641,0.6822,0.6178,0.7811,0.8613,0.8961,0.9441,0.8838,0.7579,0.7033,0.5728,0.4153,0.4884,0.5154,0.4948,0.6134,0.6634,0.6687,0.0,0.0,0.0,0.0,0.0,0.0,0.0,0.0,0.332,0.3051,0.2962,0.2921,0.313,0.3106,0.0,0.0,0.3335,0.3368,0.3578,0.3707,0.3918,0.4201,0.4602,0.4985,0.5395,0.55,0.5766,0.6129,0.6268,0.6936,0.7846,0.824,0.8543,0.8784,0.8556,0.8438,0.8343,0.8126,0.7925,0.7866,0.8007,0.8164,0.852,0.9145,0.9551,0.989,1.0493,0.0,0.0,0.0,0.0,0.0,0.0,0.0,1.317,1.3835,1.5081,1.6545,1.7477,2.0173,2.261,2.2678,2.3867,2.5277,2.5397,2.5199,2.473,2.427,2.3537,2.2848,2.2157,2.1638,2.1159,2.0754,2.0423,2.0148,2.0355,2.0553,2.0629,1.9934,1.9861,1.9219,1.749,1.7009,1.6119,1.4617,1.4304,1.3737,1.311,1.24,1.1482,1.073,1.0404,0.9755,0.8753,0.8428,0.7686,0.6502,0.5977,0.5175,0.4329,0.5881,0.7266,0.8044,0.8044,0.7446,0.621,0.5838,0.4989,0.3664,0.4171,0.4199,0.4455,0.5671,0.5712,0.5278,0.0,0.0,0.0,0.0,0.0,0.0,0.0,0.0,0.0,0.2978,0.2978,0.2932,0.3052,0.3063,0.3117,0.0,0.0,0.0,0.3677,0.3761,0.4115,0.4702,0.4735,0.4851,0.5187,0.5153,0.5454,0.5866,0.5947,0.6348,0.7083,0.7839,0.8269,0.8374,0.8269,0.8151,0.8112,0.785,0.7522,0.725,0.738,0.7861,0.8414,0.8804,0.9472,1.0305,1.0841,1.0891,1.0765,1.1345,0.0,0.0,0.0,0.0,1.374,1.388,1.5168,1.6927,1.8474,2.0264,2.2316,2.4987,2.5665,2.5494,2.5494,2.5366,2.5114,2.4339,2.3776,2.3259,2.2351,2.1638,2.1139,2.0791,2.0269,1.9977,2.0148,1.9813,1.9533,1.9733,1.9209,1.8434,1.7348,1.6763,1.5744,1.404,1.3204,1.2455,1.1989,1.054,0.9985,1.0502,0.9628,0.8559,0.727,0.7202,0.6463,0.4853,0.452,0.3727,0.2278,0.376,0.5294,0.6883,0.6469,0.5878,0.5078,0.468,0.3827,0.2951,0.3456,0.3716,0.3966,0.4959,0.4542,0.362,0.0,0.0,0.0,0.0,0.0,0.0,0.0,0.0,0.0,0.0,0.3132,0.2992,0.3112,0.3128,0.3199,0.3373,0.3395,0.3444,0.3653,0.0,0.0,0.4785,0.456,0.4712,0.5071,0.512,0.528,0.5471,0.5583,0.5886,0.6292,0.6846,0.7229,0.7651,0.7229,0.695,0.6838,0.6693,0.6603,0.6735,0.6857,0.7229,0.7781,0.86,0.9075,0.9617,1.0466,1.0808,1.0923,1.1076,1.1345,0.0,0.0,0.0,1.1569,1.1742,1.2743,1.3979,1.4681,1.7663,2.1695,2.5884,2.6278,2.5784,2.5784,2.5977,2.5747,2.4592,2.4024,2.3435,2.2718,2.1811,2.1312,2.1292,2.0443,1.9921,1.9959,1.9959,1.9683,1.9533,1.9554,1.9191,1.79,1.6763,1.5542,1.4429,1.2544,1.1421,1.0843,0.9905,0.9187,0.9269,0.8699,0.7213,0.4962,0.5423,0.5473,0.5311,0.3277,0.1845,0.1025,0.0207,0.0836,0.2532,0.3433,0.3679,0.3474,0.1544,0.0669,0.0675,0.2726,0.3681,0.3727,0.3966,0.4733,0.5063,0.0,0.0,0.0,0.0,0.0,0.0,0.0,0.0,0.0,0.0,0.0,0.3057,0.3177,0.3188,0.3237,0.3352,0.3422,0.3602,0.3804,0.3911,0.4276,0.4732,0.4648,0.4673,0.4957,0.4976,0.5061,0.5306,0.5417,0.5677,0.6103,0.6318,0.669,0.7226,0.7011,0.6839,0.6709,0.6589,0.6535,0.6535,0.7032,0.8145,0.9411,0.9382,1.0166,1.1352,1.0896,1.0748,1.0808,1.1,1.1236,1.1236,1.1126,0.0,0.0,0.0,1.1603,1.2687,1.5017,1.7624,2.0684,2.4362,2.5127,2.5247,2.5443,2.5981,2.6102,2.48,2.4326,2.3872,2.2717,2.2068,2.1465,2.0965,2.0617,2.0269,1.9921,1.9746,1.9416,1.9332,1.8356,1.731,1.6476,1.5045,1.3676,1.2356,1.1272,1.033,0.9905,0.9187,0.8853,0.9092,0.7156,0.5661,0.4577,0.3014,0.244,0.3093,0.0824,-0.0411,-0.0614,-0.1454,-0.1047,0.0631,-0.0,-0.0,0.0432,0.0219,-0.0,0.0223,0.113,0.2289,0.3238,0.3716,0.4015,0.4337,0.0,0.0,0.0,0.0,0.0,0.0,0.0,0.0,0.0,0.0,0.0,0.3112,0.3321,0.0,0.0,0.0,0.3529,0.3723,0.4139,0.4127,0.4362,0.4786,0.483,0.4834,0.4834,0.4834,0.4935,0.5135,0.5213,0.5516,0.5854,0.6036,0.632,0.6816,0.6893,0.6808,0.6796,0.6709,0.66,0.6614,0.7937,0.9521,1.1044,1.1141,1.2311,1.3527,1.1966,1.1368,1.1335,1.1101,1.1017,1.1034,1.1084,1.1084,0.0,0.0,0.0,1.2038,1.5475,1.7282,1.9088,2.2201,2.3404,2.3994,2.4956,2.5682,2.6025,2.4926,2.465,2.4243,2.2845,2.2326,2.1811,2.1139,2.0791,2.0443,2.0095,1.9746,1.9379,1.9379,1.7948,1.6552,1.5992,1.4447,1.2733,1.1222,1.0721,0.9985,0.8988,0.8469,0.8328,0.8574,0.584,0.3926,0.3398,0.0605,-0.0408,0.0206,-0.1445,-0.2468,-0.2448,-0.3119,-0.2725,-0.1467,-0.297,-0.3211,-0.237,-0.1307,-0.0439,-0.0,-0.0,0.0685,0.2072,0.3247,0.3538,0.3844,0.0,0.0,0.0,0.0,0.0,0.0,0.0,0.0,0.0,0.0,0.0,0.3259,0.3528,0.348,0.3516,0.3707,0.3725,0.4,0.4474,0.4344,0.4475,0.4998,0.4932,0.0,0.4834,0.4834,0.4834,0.4834,0.4843,0.5137,0.5633,0.5854,0.6074,0.6376,0.6488,0.6593,0.6806,0.6796,0.6719,0.6872,0.9511,1.0878,1.1435,1.4097,1.5381,1.5555,1.3766,1.3179,1.2915,1.1318,1.0688,1.072,1.0899,1.0948,1.0997,0.0,0.0,0.0,1.4557,1.5347,1.6351,2.02,2.1327,2.2045,2.4016,2.5167,2.5489,2.508,2.5114,2.4766,2.372,2.2674,2.1984,2.1984,2.1118,2.0617,2.0617,2.0095,1.9921,1.9921,1.9213,1.8544,1.7459,1.5917,1.4228,1.2345,1.16,1.0502,0.8684,0.8114,0.7602,0.7352,0.4573,0.2197,0.0202,-0.2037,-0.2853,-0.2223,-0.3261,-0.4076,-0.4647,-0.5355,-0.5607,-0.5404,-0.4655,-0.448,-0.4273,-0.3693,-0.197,-0.0,-0.0,-0.0,0.046,0.2785,0.4236,0.5016,0.0,0.0,0.0,0.0,0.0,0.0,0.0,0.0,0.0,0.0,0.0,0.0,0.0,0.36,0.3618,0.3557,0.379,0.4044,0.4474,0.4554,0.468,0.5104,0.4932,0.4834,0.4834,0.4834,0.4834,0.4834,0.4892,0.5093,0.5316,0.5384,0.5696,0.6042,0.6669,0.6806,0.6593,0.6808,0.685,0.7006,0.9838,1.1543,1.2602,1.3518,1.5192,1.6843,1.4205,1.3217,1.3146,1.2673,1.1753,1.0705,1.0996,1.1126,1.1175,1.1354,1.1533,1.2101,1.3725,1.4077,1.46,1.7359,1.9149,2.0424,2.1577,2.295,2.4159,2.4431,2.4075,2.3835,2.4339,2.3336,2.2331,2.2115,2.1221,2.0627,2.0578,1.9158,1.8414,1.9012,1.7218,1.595,1.5615,1.4171,1.2829,1.2156,1.1411,1.0483,0.9369,0.8607,0.7516,0.5861,0.4889,0.2561,-0.1,-0.305,-0.3872,-0.3635,-0.4304,-0.4915,-0.545,-0.5761,-0.5809,-0.5814,-0.5885,-0.5532,-0.4949,-0.5008,-0.3947,-0.2209,-0.1345,-0.0906,-0.0457,0.0927,0.2352,0.4056,0.0,0.0,0.0,0.0,0.0,0.3416,0.4168,0.4203,0.4038,0.3635,0.0,0.0,0.0,0.0,0.3979,0.3862,0.3886,0.4134,0.4508,0.4611,0.4748,0.5063,0.4916,0.4834,0.4834,0.4968,0.4968,0.4834,0.5026,0.5126,0.5112,0.5277,0.5486,0.5717,0.6599,0.689,0.6598,0.6827,0.6861,0.7141,1.0703,1.249,1.2926,1.4428,1.5962,1.7107,1.495,1.4114,1.4038,1.4502,1.3698,1.2395,1.2276,1.1786,1.1354,1.1533,1.163,1.1913,1.2708,1.2814,1.3095,1.4866,1.6287,1.7712,1.9293,2.0961,2.2352,2.338,2.3187,2.2994,2.3573,2.2752,2.1947,2.2332,2.1098,2.0167,2.0288,1.8414,1.7362,1.7964,1.6095,1.4805,1.4874,1.3764,1.2783,1.2544,1.16,1.0664,0.9551,0.8226,0.6728,0.4471,0.3902,0.2162,-0.1393,-0.3439,-0.4269,-0.424,-0.4906,-0.5311,-0.5657,-0.5967,-0.6213,-0.641,-0.6714,-0.6174,-0.5616,-0.5887,-0.5279,-0.4215,-0.2916,-0.2265,-0.1827,-0.0463,0.1173,0.2855,0.0,0.1617,0.1718,0.232,0.2823,0.3232,0.3629,0.4031,0.4239,0.3635,0.0,0.0,0.0,0.0,0.0,0.4464,0.4327,0.4369,0.468,0.4605,0.4663,0.4973,0.4883,0.4834,0.4843,0.5239,0.5239,0.4843,0.5239,0.5335,0.5112,0.543,0.5534,0.5493,0.6274,0.671,0.671,0.671,0.6879,0.743,1.2471,1.3456,1.2496,1.6945,1.7774,1.637,1.6282,1.6065,1.5914,1.6564,1.6312,1.5673,1.4481,1.2949,1.1549,1.1727,1.1646,1.1549,0.0,0.0,0.0,1.2848,1.3206,1.404,1.7861,1.9105,2.005,2.1885,2.2503,2.2439,2.1863,2.1104,2.1022,2.2627,2.0948,1.9409,1.9428,1.8035,1.7104,1.7104,1.6364,1.5636,1.5433,1.5053,1.446,1.291,1.2533,1.1062,0.8676,0.6951,0.5045,0.3138,0.1782,0.0398,-0.0995,-0.3215,-0.424,-0.4038,-0.5047,-0.5652,-0.5652,-0.6373,-0.6805,-0.7374,-0.694,-0.6418,-0.6043,-0.61,-0.5938,-0.5776,-0.429,-0.3654,-0.3453,-0.0929,0.0702,0.2126,0.168,0.16,0.1617,0.1819,0.1917,0.2622,0.4246,0.434,0.4239,0.0,0.0,0.0,0.3979,0.431,0.4452,0.4348,0.4511,0.464,0.468,0.4814,0.487,0.4973,0.4883,0.4867,0.4932,0.506,0.506,0.4932,0.506,0.5126,0.5104,0.5218,0.5418,0.5717,0.5717,0.6051,0.6386,0.6821,0.7075,0.7669,1.233,1.4,1.4035,1.7663,1.95,1.9918,1.8856,1.7301,1.6137,1.814,1.5887,1.2307,1.2457,1.2134,1.1711,1.176,1.1744,1.1711,1.176,0.0,0.0,0.0,0.0,0.0,1.5276,1.685,1.8547,2.0956,2.1351,2.1584,2.2224,2.161,2.0837,2.0887,1.9448,1.8219,1.8189,1.6419,1.5429,1.6034,1.4583,1.3971,1.4888,1.4225,1.3616,1.2899,1.1778,1.0086,0.8021,0.5738,0.3642,0.1922,0.0782,-0.0394,-0.1379,-0.2806,-0.3638,-0.4038,-0.3836,-0.4829,-0.6198,-0.5868,-0.6091,-0.6896,-0.6583,-0.6081,-0.5567,-0.6303,-0.6617,-0.6039,-0.5618,-0.4978,-0.411,-0.3011,-0.1175,0.0715,0.1587,0.1703,0.1819,0.192,0.2335,0.3056,0.4246,0.447,0.4376,0.0,0.0,0.0,0.4411,0.4611,0.4611,0.4486,0.4725,0.4732,0.4583,0.464,0.4712,0.461,0.4696,0.4712,0.487,0.5151,0.5151,0.4973,0.5151,0.5202,0.5112,0.5252,0.546,0.5819,0.5828,0.594,0.6274,0.672,0.6894,0.7311,1.2242,1.3796,1.3813,1.7534,1.9223,1.9467,1.9427,1.8538,1.7596,2.0036,1.7611,1.3609,1.3866,1.2995,1.1874,1.1792,1.1776,1.1776,1.1776,1.1277,1.0793,1.0793,0.0,0.0,1.4063,1.5453,1.7083,0.0,2.0456,2.0594,2.1322,2.0567,1.958,1.8858,1.7673,1.6968,1.7,1.5429,1.4618,1.4977,1.4041,1.3755,1.4611,1.36,1.299,1.2818,1.0427,0.7985,0.5903,0.4385,0.2868,0.1535,0.039,-0.059,-0.158,-0.2205,-0.2625,-0.3029,-0.2221,-0.2813,-0.478,-0.4236,-0.4449,-0.5222,-0.5723,-0.5404,-0.4855,-0.5585,-0.5696,-0.5579,-0.5579,-0.4955,-0.4116,-0.3002,-0.1173,0.1193,0.0,0.1816,0.2223,0.2631,0.3594,0.4332,0.4166,0.442,0.4538,0.0,0.4538,0.4694,0.5006,0.5006,0.4965,0.4875,0.4859,0.475,0.444,0.444,0.434,0.4031,0.4406,0.0,0.4575,0.5252,0.5465,0.499,0.5474,0.5409,0.5112,0.5526,0.5731,0.5819,0.6051,0.6274,0.6386,0.6284,0.6502,0.7205,1.1924,1.315,1.2751,1.7445,1.8444,1.7558,1.9334,1.9634,1.9512,2.1442,2.0159,1.7592,1.6991,1.4864,1.2465,1.2045,1.1996,1.215,1.1857,1.1339,1.0852,1.0852,1.035,0.0,1.3693,1.4455,1.5419,1.8164,1.9128,1.9334,1.8978,1.8408,1.7622,1.6804,1.5932,1.5518,1.579,1.4878,1.4285,1.4299,1.4285,1.4162,1.4309,1.3175,1.238,1.2135,0.868,0.5702,0.3432,0.3242,0.2682,0.1545,0.039,-0.0591,-0.1591,-0.1605,-0.141,-0.141,-0.0403,-0.0601,-0.179,-0.2021,-0.2425,-0.2791,-0.3885,-0.4137,-0.394,-0.4215,-0.4314,-0.4427,-0.443,-0.4273,-0.3678,-0.2069,-0.0,0.2383,0.1211,0.1516,0.2335,0.4229,0.4878,0.511,0.495,0.4702,0.4583,0.4628,0.4702,0.487,0.5086,0.5194,0.5153,0.5063,0.499,0.4916,0.4742,0.4541,0.434,0.0,0.0,0.0,0.4657,0.5006,0.5218,0.5079,0.5194,0.5194,0.5112,0.5202,0.5621,0.6163,0.5717,0.594,0.6609,0.6247,0.722,0.9374,1.1091,1.2862,1.4633,1.8115,2.0344,2.1547,2.2139,2.1128,1.9554,1.8932,1.9108,1.9068,1.65,1.5977,1.5882,1.302,1.3276,1.4169,1.2565,1.1697,1.1195,1.1195,1.0592,0.0,1.23,1.2788,1.3332,0.0,1.5725,1.571,1.5523,1.5234,1.4992,1.4688,1.4266,1.4246,1.4506,1.427,1.4163,1.4285,1.3839,1.3513,1.3399,1.2367,1.1164,0.9254,0.6923,0.5289,0.4385,0.4385,0.3435,0.153,0.0579,-0.0195,-0.0394,-0.0994,-0.0999,-0.04,0.04,0.0596,0.0394,-0.0989,-0.0992,0.0199,0.02,-0.0405,-0.1847,-0.206,-0.3384,-0.5047,-0.5082,-0.4705,-0.4328,-0.3441,-0.1168,0.2146,0.1415,0.192,0.2741,0.3623,0.0,0.0,0.4794,0.4687,0.4687,0.4892,0.497,0.4994,0.512,0.5153,0.512,0.4981,0.4932,0.4782,0.4642,0.444,0.0,0.0,0.0,0.0,0.4411,0.4809,0.507,0.5177,0.5308,0.5349,0.5308,0.5468,0.6436,0.7676,0.6294,0.6408,0.7814,0.6369,0.6546,0.8089,1.1643,1.4421,1.6993,2.0076,2.2076,2.3063,2.3171,2.2652,2.1864,2.1,2.0072,1.9162,1.8319,1.7365,1.6135,1.4476,1.4609,1.4815,1.2603,1.168,1.1299,1.1046,1.0594,0.0,0.0,1.2406,1.2912,1.4408,1.4884,1.4901,1.4703,1.3956,1.3552,1.431,1.3683,1.3281,1.3816,1.411,1.4095,1.4177,1.4015,1.3716,1.3133,1.195,1.0035,0.7204,0.6159,0.5458,0.4921,0.4774,0.3851,0.2321,0.1361,0.0589,-0.0,0.0199,0.0399,0.0802,0.1597,0.2186,0.2175,0.1181,0.0984,0.1384,0.1979,0.1392,-0.0201,-0.1012,-0.2274,-0.3395,-0.4102,-0.4186,-0.3821,-0.2732,-0.0232,0.3102,0.1617,0.2316,0.2833,0.2585,0.0,0.0,0.0,0.4439,0.4777,0.5014,0.5327,0.5343,0.5177,0.5448,0.5554,0.5413,0.5386,0.5154,0.4712,0.461,0.4515,0.4222,0.0,0.4271,0.0,0.4855,0.4901,0.5243,0.5406,0.5471,0.5455,0.5707,0.6852,0.8611,0.7087,0.7205,0.8494,0.6951,0.664,0.7671,1.2617,1.5573,1.7351,2.0437,2.2094,2.2669,2.3343,2.3651,2.3919,2.3435,2.1413,1.906,1.9471,1.8158,1.6331,1.5208,1.5437,1.5494,1.2621,1.1644,1.1261,1.1005,1.0593,1.0704,0.0,0.0,0.0,1.3794,0.0,0.0,0.0,0.0,0.0,1.2971,0.0,0.0,0.0,1.3471,1.3756,1.4138,1.4014,1.3637,1.291,1.1051,0.9024,0.6448,0.6097,0.576,0.5256,0.4969,0.4258,0.3122,0.1953,0.1182,0.0602,0.1392,0.1793,0.2013,0.2789,0.3375,0.3187,0.334,0.294,0.1968,0.3138,0.2744,0.1572,0.02,-0.0403,-0.0611,-0.2732,-0.3452,-0.331,-0.202,0.069,0.4487,0.1611,0.1695,0.1994,0.2474,0.0,0.0,0.0,0.4038,0.4445,0.4687,0.5656,0.6228,0.5895,0.6649,0.7307,0.7383,0.7296,0.6811,0.575,0.5517,0.5769,0.6508,0.0,0.0,0.7049,0.5486,0.484,0.5243,0.5349,0.5357,0.5275,0.5357,0.576,0.6275,0.785,0.7961,0.6879,0.8523,1.0646,1.2971,1.4074,1.326,1.186,1.5168,1.7854,2.0196,2.2818,2.3709,2.3694,2.2202,2.0979,1.9631,1.6836,1.802,1.9296,1.437,1.5487,1.7464,1.3361,1.198,1.1585,1.119,1.083,1.0487,1.0685,0.0,1.0663,1.0746,0.0,0.0,0.0,0.0,0.0,0.7762,0.917,1.0687,1.0959,1.1735,1.2759,1.4042,1.3157,1.2476,1.2402,0.9333,0.7104,0.7091,0.6412,0.5728,0.5246,0.5692,0.4965,0.3062,0.2105,0.1931,0.2758,0.234,0.2546,0.2993,0.3524,0.3527,0.3185,0.3684,0.3881,0.3772,0.4491,0.4479,0.373,0.295,0.2561,0.2178,-0.1864,-0.3395,-0.3438,-0.3308,-0.0225,0.4113,0.1587,0.1581,0.1584,0.1729,0.0,0.0,0.2821,0.3717,0.4249,0.4439,0.4916,0.5595,0.6103,0.5976,0.6041,0.6606,0.0,0.6428,0.0,0.5787,0.5508,0.4958,0.0,0.0,0.0,0.4994,0.4901,0.5324,0.5414,0.5463,0.5471,0.5463,0.6201,0.7638,0.8614,0.9337,1.007,1.1206,1.1564,1.1409,1.3251,1.2705,1.1228,1.7638,2.1078,2.2673,2.4128,2.4529,2.458,2.3853,2.1771,1.9563,2.0867,1.9616,1.7388,1.668,1.6719,1.6263,1.3062,1.3059,1.3626,1.1999,1.2135,1.2406,1.1233,1.0644,1.0432,1.0514,0.0,0.0,0.0,0.0,0.0,0.0,0.9455,1.0016,1.0036,0.0,1.2237,1.2413,1.0673,0.982,1.1254,0.8607,0.723,0.757,0.6491,0.6002,0.5951,0.5513,0.4808,0.404,0.2886,0.271,0.3533,0.3111,0.3116,0.4147,0.3895,0.3909,0.4179,0.4277,0.4467,0.4341,0.4673,0.4641,0.4247,0.3494,0.3697,0.4686,0.2413,0.0616,-0.0626,-0.0,0.2632,0.6277,0.156,0.1565,0.1381,0.11,0.0,0.185,0.2496,0.327,0.3911,0.4019,0.3988,0.4397,0.5589,0.5634,0.0,0.0,0.6955,0.7028,0.0,0.6425,0.6116,0.5678,0.0,0.0,0.0,0.515,0.4954,0.5382,0.5439,0.5504,0.5569,0.5504,0.64,0.81,0.8718,1.0028,1.165,1.2751,1.2472,1.164,1.3908,1.4464,1.4484,2.0308,2.3425,2.4597,2.4988,2.5109,2.4999,2.4341,2.2094,1.9947,2.251,2.0451,1.7122,1.8741,1.8299,1.675,1.3917,1.4259,1.485,1.2476,1.271,1.3253,1.1687,1.0996,1.0704,1.0812,1.0636,0.0,0.0,0.0,0.9365,1.0267,0.0,0.9973,0.9813,1.0855,1.1008,0.947,0.8173,0.8128,0.982,0.8488,0.766,0.775,0.6812,0.6195,0.6097,0.5114,0.442,0.4239,0.3469,0.3294,0.3909,0.3681,0.3878,0.471,0.4459,0.4479,0.4953,0.5054,0.5036,0.508,0.5239,0.5385,0.5151,0.4428,0.5023,0.6566,0.6093,0.4991,0.3447,0.3969,0.5781,0.8538,0.1622,0.1358,0.108,0.1082,0.0,0.1853,0.2496,0.2804,0.3092,0.3524,0.3024,0.0,0.0,0.0,0.0,0.0,0.0,1.0071,0.8771,0.0,0.8471,0.0,0.0,0.6097,0.0,0.658,0.4954,0.5382,0.5382,0.539,0.539,0.539,0.5439,0.5668,0.8079,0.9246,0.9594,1.2108,1.4719,1.7129,1.7366,1.9572,2.2325,2.0788,2.178,2.4031,2.4597,2.4786,2.4549,2.2214,2.1459,2.096,1.8876,1.9549,2.0973,1.9325,2.0327,2.0943,1.6859,1.5578,1.485,1.2476,1.1658,1.1504,1.1489,1.1316,1.1138,1.1151,1.1029,1.0934,1.0934,1.0678,1.0663,1.0514,1.0373,0.0,0.0,1.0016,0.8633,0.4977,0.6935,0.8479,0.8338,0.8466,0.8375,0.7733,0.7156,0.6313,0.5165,0.4672,0.4153,0.3244,0.3054,0.3451,0.3871,0.4408,0.462,0.471,0.5005,0.5202,0.549,0.5769,0.6131,0.5998,0.6577,0.6926,0.6865,0.6939,0.7118,0.764,0.7589,0.804,0.8285,0.6749,0.8348,1.1213,0.1527,0.147,0.1396,0.1477,0.0,0.1712,0.1998,0.2106,0.2986,0.0,0.5294,0.0,0.0,0.7992,0.8464,0.0,0.0,0.9676,0.9196,0.7981,0.0,0.8534,0.5724,0.5166,0.0,0.5838,0.5016,0.5382,0.5382,0.5406,0.5463,0.5406,0.5488,0.5827,0.8144,0.9937,0.0,0.0,1.5819,1.6759,1.767,1.891,2.0354,2.2104,2.3334,2.4469,2.4725,2.5083,2.5461,2.4763,2.3457,2.2566,2.3799,2.2245,2.0252,2.149,2.0857,1.9583,1.8207,1.8987,1.9108,1.5041,1.5069,1.5424,1.2253,1.133,1.1165,1.1165,1.1043,1.0948,1.0948,1.0826,1.0704,1.0649,1.0558,1.0571,0.0,1.0293,0.9024,0.6111,0.7376,0.7031,0.3116,0.5181,0.6707,0.6977,0.6043,0.5355,0.4752,0.3907,0.3398,0.3051,0.3435,0.382,0.4404,0.4583,0.4974,0.5582,0.5738,0.6142,0.6412,0.6945,0.7131,0.7156,0.7401,0.7575,0.7509,0.7582,0.8185,0.8939,0.9188,0.944,0.9711,0.8888,1.002,1.2235,0.1543,0.1573,0.1595,0.1576,0.1581,0.1606,0.1655,0.2089,0.3433,0.0,0.753,0.0,1.0062,0.0,0.9664,0.0,1.027,0.9899,0.9401,0.8637,0.0,0.8363,0.6474,0.6428,0.0,0.6518,0.5881,0.6263,0.5673,0.5406,0.5463,0.5406,0.5504,0.5741,0.7207,0.946,1.2387,1.429,1.6076,1.7895,1.9191,1.984,2.0244,2.2691,2.3345,2.3341,2.4578,2.5343,2.5791,2.5772,2.5012,2.4186,2.5972,2.4447,2.2289,2.3903,2.3032,2.162,2.0952,2.185,2.1958,1.8077,1.8251,1.825,1.4148,1.3077,1.2865,1.2576,1.1818,1.1497,1.2873,1.1869,1.0987,1.1682,1.1121,1.0717,0.0,1.0492,0.9484,0.7256,0.7017,0.559,0.1746,0.277,0.4502,0.6433,0.5488,0.4788,0.4367,0.3506,0.2994,0.3035,0.3607,0.3997,0.46,0.4791,0.5366,0.6131,0.6345,0.6734,0.731,0.7749,0.7949,0.7935,0.8235,0.8235,0.8171,0.8445,0.9048,0.9798,1.0224,1.067,1.0932,1.06,1.1359,1.3038,0.157,0.1573,0.1573,0.1573,0.1598,0.1628,0.1655,0.2852,0.4575,0.0,0.9559,1.1591,1.198,1.1803,1.1581,1.1589,1.1552,1.0816,0.9594,0.9679,0.0,0.0,0.901,0.9365,1.1413,0.85,0.715,0.775,0.6138,0.539,0.539,0.5382,0.548,0.5651,0.5643,0.8038,1.2196,1.2651,1.5695,2.0499,2.1863,2.2227,2.2,2.2654,2.1859,2.0731,2.4114,2.5475,2.5475,2.5238,2.5534,2.5872,2.5083,2.5584,2.6524,2.6313,2.6527,2.6476,2.4783,2.4153,2.3573,2.1392,2.0672,1.9791,1.7168,1.6207,1.5912,1.5301,1.3297,1.2823,1.6502,1.3775,1.1689,1.3365,1.1935,1.0744,1.0744,1.0584,0.9863,0.8103,0.5906,0.4329,0.3914,0.1622,0.1992,0.5903,0.5341,0.465,0.4355,0.3458,0.2942,0.3005,0.3574,0.4176,0.4641,0.5225,0.5805,0.6196,0.6836,0.7382,0.7633,0.8365,0.8581,0.8514,0.9268,0.93,0.8837,0.9316,0.9892,1.0401,1.0886,1.1516,1.2118,1.1921,1.26,1.3834,0.157,0.159,0.1606,0.1606,0.1611,0.1518,0.1323,0.2884,0.4979,0.0,0.9148,1.0502,1.1776,1.1997,1.2017,1.1949,1.1748,0.0,0.0,0.0,0.0,1.1087,0.9076,0.871,1.0599,0.8082,0.6865,0.7383,0.6085,0.5471,0.5471,0.5414,0.5512,0.5741,0.5676,0.792,1.1762,1.2053,1.5165,1.995,2.144,2.0998,1.9349,2.2097,2.1525,1.9758,2.2583,2.4388,2.5216,2.498,2.5973,2.7059,2.68,2.7039,2.7438,2.7438,2.7203,2.6899,2.6456,2.6316,2.5604,2.3,2.2373,2.1749,1.9008,1.8201,1.8049,1.774,1.7293,1.6621,1.5655,1.4501,1.323,1.2042,1.1427,1.1043,1.1043,1.1084,1.0448,0.9014,0.7805,0.5512,0.1401,0.2826,0.3574,0.2825,0.4429,0.4979,0.3775,0.3757,0.3622,0.3568,0.4353,0.4779,0.4645,0.5611,0.6213,0.6842,0.7446,0.7824,0.8372,0.8993,0.9196,0.918,0.9883,0.9926,0.9909,1.06,1.1225,1.1595,1.1743,1.2108,1.2524,1.3007,1.3776,1.462,0.1592,0.1617,0.1531,0.1316,0.2086,0.299,0.339,0.3455,0.0,0.7818,0.875,0.0,1.0549,1.159,1.2182,1.2169,1.1952,0.0,1.1063,0.0,0.0,1.0754,0.9787,0.9973,1.1259,0.9326,0.8296,0.8303,0.6919,0.5951,0.5455,0.5406,0.5504,0.5716,0.5667,0.7404,1.0474,1.2786,1.5376,1.8248,2.0646,2.0521,0.0,2.1466,2.1339,2.0226,2.184,2.3442,2.4769,2.4748,2.5961,2.7245,2.7053,2.7533,2.8174,2.7771,2.7771,2.7795,2.7795,2.7795,2.744,2.6064,2.5559,2.499,2.2465,2.1615,2.1439,2.0969,2.023,1.9504,1.9687,1.7208,1.4319,1.1761,1.1369,1.1369,1.1369,1.1409,1.0883,0.933,0.8977,0.7495,0.4065,0.4075,0.3786,0.2822,0.4203,0.4679,0.3977,0.4191,0.4455,0.4416,0.5087,0.5183,0.5058,0.5866,0.648,0.7104,0.7728,0.8102,0.8634,0.9292,0.9728,0.9926,1.0573,1.0645,1.0524,1.1301,1.1713,1.1944,1.2432,1.2786,1.2996,1.4059,1.4568,1.4715,0.1516,0.1539,0.1446,0.0,0.0,0.0,0.6832,0.4912,0.4542,0.7894,0.0,0.9046,0.9513,1.1089,1.2142,1.2277,1.2033,1.1458,1.0494,1.1155,1.1038,0.9948,1.0985,1.1907,1.2657,1.1064,1.0085,0.951,0.7996,0.6574,0.5382,0.5382,0.5471,0.5643,0.5643,0.6911,0.9433,1.4004,1.6136,1.6876,1.9656,2.0544,2.0562,2.0964,2.1065,2.1219,2.1451,2.2764,2.4235,2.4442,2.569,2.6919,2.6532,2.7352,2.8536,2.8126,2.8343,2.8729,2.8729,2.8729,2.8777,2.9019,2.8898,2.8008,2.6208,2.5571,2.5095,2.454,2.2799,2.2246,2.5168,2.0547,1.5277,1.2325,1.1976,1.2017,1.2004,1.21,1.1669,1.0012,0.9991,0.0,0.8801,0.5352,0.3656,0.4614,0.4305,0.4037,0.4157,0.4969,0.5459,0.5411,0.5438,0.5596,0.5504,0.6151,0.678,0.7377,0.7848,0.8407,0.886,0.9412,1.0087,1.0498,1.1091,1.1194,1.1148,1.1984,1.1964,1.1841,1.3173,1.353,1.3117,1.4744,1.5032,1.493,0.1011,0.1334,0.0,0.0,0.0,1.0038,0.9048,0.8307,0.8189,0.8841,1.0436,1.1471,1.1391,1.1871,1.2264,1.2291,1.2128,1.2006,1.1804,1.1697,1.1563,1.1219,1.1429,1.1762,1.221,1.1012,0.9896,0.8978,0.7827,0.6649,0.5382,0.5382,0.5471,0.5643,0.5643,0.7842,1.1669,1.4549,1.6624,1.8452,2.021,2.0879,2.0773,2.1325,2.1587,2.1863,2.1606,2.217,2.3252,2.3292,2.4699,2.68,2.6604,2.7917,2.926,2.9063,2.926,2.926,2.926,2.926,2.9284,2.9332,2.8914,2.845,2.8159,2.7674,2.7214,2.7237,2.6861,2.6072,2.4944,2.093,1.6859,1.361,1.3902,1.4534,1.44,1.44,1.3931,1.2887,1.2728,1.1855,0.9761,0.6869,0.5578,0.6674,0.4544,0.3076,0.3092,0.6073,0.6938,0.5213,0.5764,0.5891,0.5556,0.6214,0.7044,0.7848,0.8123,0.8723,0.9436,0.9669,1.0121,1.0604,1.1119,1.156,1.2074,1.2653,1.2845,1.2877,1.3769,1.3938,1.3869,1.4693,1.5333,1.5462,0.1767,0.0,0.0,0.0,0.0,1.0251,1.051,1.0476,1.0209,0.9385,1.0296,1.1025,1.0737,1.1775,1.24,1.24,1.2264,1.2182,1.2182,1.1965,1.1803,1.1735,1.1735,1.183,1.206,1.1993,1.083,0.8845,0.8733,0.7495,0.5382,0.5431,0.5488,0.5586,0.6648,0.8281,1.0596,1.3944,1.5897,1.7071,1.912,2.0173,2.0414,2.0916,2.1325,2.2023,2.2004,2.2472,2.2942,2.3238,2.4711,2.6693,2.6804,2.8125,2.9405,2.9405,2.9405,2.9405,2.9405,2.9405,2.9405,2.9405,2.9207,2.9057,2.9176,2.9001,2.8802,2.8802,2.8802,2.7812,2.4262,2.0658,1.7619,1.524,1.474,1.4937,1.5376,1.533,1.515,1.4504,1.3881,1.3116,1.1824,0.9198,0.7044,0.5435,0.4559,0.4369,0.511,0.6877,0.7251,0.6322,0.6362,0.6124,0.6014,0.6676,0.7337,0.8184,0.8423,0.9038,0.9824,1.0223,1.0684,1.1391,1.1696,1.2154,1.2512,1.2595,1.2963,1.3156,1.3757,1.3803,1.3665,1.4547,1.4777,1.4571,0.3024,0.3694,0.0,0.0,0.8105,0.9838,1.1157,1.1537,1.1365,1.007,1.0168,1.0457,1.0269,1.1678,1.2508,1.2508,1.24,1.2318,1.2291,1.206,1.1898,1.183,1.1857,1.1938,1.206,1.2817,1.1993,0.9455,0.9751,0.8542,0.5952,0.5635,0.571,0.6208,0.793,0.9114,1.0161,1.3647,1.5617,1.6441,1.8517,1.9673,2.0414,2.0702,2.1255,2.2103,2.2369,2.2538,2.3001,2.3288,2.4824,2.665,2.7026,2.8334,2.9574,2.9574,2.9622,2.9646,2.9598,2.9622,2.9646,2.9598,2.9574,2.9622,2.9839,2.9839,2.9791,2.9791,2.9591,2.7996,2.3728,2.0909,1.8749,1.6687,1.5858,1.5503,1.6324,1.641,1.6034,1.579,1.4892,1.412,1.3887,1.1616,0.8702,0.5074,0.4931,0.5829,0.7581,0.7355,0.7223,0.7197,0.6728,0.6525,0.6826,0.7146,0.7841,0.85,0.8928,0.9342,0.9955,1.0359,1.1032,1.154,1.2048,1.2533,1.2916,1.274,1.2874,1.3276,1.3643,1.3733,1.3658,1.4446,1.4273,1.3714,0.0,0.0,0.0,0.0,1.0297,1.1024,1.0367,1.1153,1.1816,1.1603,1.1858,1.2045,1.2059,1.2386,1.2508,1.2508,1.2494,1.2427,1.2305,1.2264,1.2128,1.1843,1.1965,1.2047,1.206,1.2817,1.2553,1.1286,1.0486,0.9209,0.7675,0.6291,0.6499,0.8349,0.852,1.0791,1.4217,1.4887,1.6619,1.9137,2.0035,2.0845,2.1434,2.1596,2.2084,2.2538,2.2305,2.258,2.3039,2.3209,2.4688,2.671,2.7135,2.8727,3.0153,3.0153,3.0298,3.0443,3.0202,3.0322,3.0443,3.0202,3.0153,3.0153,3.0177,2.9984,2.9791,2.9791,2.8588,2.6649,2.3718,2.2567,2.1001,1.7914,1.82,1.8681,1.8423,1.8231,1.7925,1.6868,1.6479,1.5902,1.5089,1.3032,1.0952,0.9155,0.6321,0.586,0.8853,0.7146,0.6442,0.7032,0.674,0.6883,0.7682,0.7597,0.814,0.912,0.9195,0.9403,0.9955,0.9955,1.041,1.0913,1.1428,1.2275,1.3439,1.3417,1.3406,1.3428,1.3635,1.4091,1.4246,1.4034,1.426,1.4394,0.7271,0.795,0.86,0.9386,1.0041,1.0567,1.0881,1.163,1.2074,1.1979,1.2155,1.2318,1.2413,1.2467,1.2508,1.2508,1.2508,1.2481,1.2427,1.225,1.2142,1.2115,1.1993,1.2196,1.2775,1.3209,1.3094,1.2113,1.0999,0.9582,0.8079,0.7628,0.8403,1.0388,1.1586,1.3026,1.4877,1.6719,1.8215,1.9344,2.035,2.1219,2.1794,2.174,2.2357,2.3077,2.2819,2.2969,2.3398,2.3904,2.4869,2.6211,2.7101,2.8507,3.0058,3.0636,3.0757,3.0829,3.0708,3.0636,3.0539,3.0274,3.0226,3.0177,3.0008,3.0008,3.0057,3.0057,2.8009,2.5847,2.4669,2.2158,1.9776,1.9131,1.8906,1.8809,1.9167,1.9053,1.8777,1.815,1.7222,1.6588,1.6117,1.394,1.234,1.1669,0.8641,0.6839,0.6547,0.6911,0.6571,0.5458,0.6848,0.7427,0.7509,0.8307,0.8828,0.927,0.9721,0.9964,1.0192,1.0614,1.1267,1.2151,1.2808,1.3232,1.3645,1.3645,1.3678,1.3743,1.3776,1.4056,1.4144,1.395,1.3755,1.3124,0.9136,0.9172,0.9447,1.0073,1.0172,1.0575,1.1536,1.202,1.221,1.2196,1.2291,1.2386,1.2494,1.2508,1.2508,1.2508,1.2508,1.2508,1.2508,1.2305,1.2223,1.2291,1.2278,1.2456,1.3041,1.3759,1.3729,1.3232,1.1894,1.0816,0.9716,0.9385,1.0457,1.2454,1.3742,1.4939,1.6043,1.8251,1.9398,1.9985,2.0702,2.1596,2.2103,2.2011,2.245,2.3228,2.3134,2.3342,2.3644,2.4135,2.513,2.6097,2.7111,2.8459,3.0018,3.0622,3.0998,3.1095,3.1022,3.0926,3.0757,3.0419,3.0322,3.025,2.9984,3.0081,2.9999,2.9593,2.7261,2.4989,2.4638,2.1405,1.9123,1.9995,1.934,1.8837,1.9557,1.9394,1.9086,1.844,1.7596,1.697,1.686,1.4562,1.2917,1.265,1.0239,0.8181,0.6313,0.6864,0.6687,0.5522,0.7339,0.8347,0.8027,0.8836,0.958,0.9618,1.0068,1.033,1.0396,1.0827,1.1689,1.2766,1.3279,1.3701,1.3841,1.3874,1.3917,1.3961,1.3983,1.408,1.4178,1.4135,1.3706,1.2876,1.0251,1.038,1.0522,1.1389,1.1613,1.1708,1.2006,1.206,1.2169,1.2454,1.2494,1.2494,1.2508,1.2508,1.2508,1.2508,1.2508,1.2508,1.2508,1.2494,1.244,1.2291,1.2734,1.3041,1.2885,1.3959,1.4688,1.4859,1.3714,1.3221,1.3059,1.1715,1.2237,1.4518,1.4371,1.5981,1.8905,1.8938,1.9828,2.1338,2.1758,2.2121,2.2737,2.2926,2.3001,2.3039,2.3247,2.3455,2.3663,2.389,2.494,2.6303,2.7296,2.8735,2.9971,3.0406,3.0974,3.1336,3.1071,3.1191,3.1264,3.0733,3.0612,3.0539,3.0274,3.0202,2.9796,2.8144,2.6317,2.4401,2.3156,2.1345,2.0255,2.0093,2.006,1.9995,1.9817,1.9475,1.8793,1.7726,1.7175,1.6845,1.6845,1.4759,1.2935,1.2119,1.0717,0.9788,0.9688,0.7006,0.6221,0.8394,0.8998,0.9181,0.9097,0.9367,0.9786,1.0355,1.0445,1.0485,1.0485,1.0485,1.1138,1.2225,1.2225,1.2876,1.3961,1.408,1.4069,1.3993,1.4352,1.4417,1.433,1.445,1.4417,1.4108,1.1067,1.1188,1.1308,1.1599,1.1694,1.1789,1.1884,1.2088,1.225,1.2345,1.244,1.2508,1.2508,1.2508,1.2508,1.2508,1.2508,1.2508,1.2508,1.2413,1.258,1.3056,1.3055,1.345,1.4464,1.4672,1.4971,1.5707,1.3989,1.3319,1.3752,1.3281,1.434,1.6609,1.6848,1.7836,1.9142,1.9947,2.0819,2.1357,2.2153,2.2594,2.2926,2.2983,2.3096,2.3266,2.3474,2.3587,2.3682,2.4041,2.5058,2.6154,2.6829,2.8192,2.9909,3.115,3.1553,3.165,3.1578,3.1481,3.1312,3.095,3.0733,3.0539,3.0274,3.0226,2.9999,2.9593,2.7057,2.4989,2.4638,2.2175,2.0304,2.0255,2.0239,2.0174,1.9995,1.9768,1.9443,1.8777,1.8456,1.8279,1.8279,1.6449,1.5053,1.412,1.2174,1.0119,0.7613,0.7606,0.8026,0.8844,0.9455,0.9659,0.9218,0.9909,1.0252,1.0445,1.0477,1.0518,1.0575,1.1082,1.1515,1.1672,1.2626,1.3318,1.3549,1.4108,1.4407,1.4461,1.457,1.4591,1.4559,1.4515,1.4086,1.3202,1.1747,1.1844,1.177,1.1626,1.1694,1.1789,1.1898,1.2074,1.225,1.2359,1.244,1.2508,1.2508,1.2508,1.2508,1.2508,1.2508,1.2508,1.2508,1.2567,1.279,1.3354,1.3479,1.4049,1.5015,1.4971,1.5225,1.5951,1.4875,1.4586,1.5013,1.5074,1.5949,1.7591,1.7985,1.8668,1.9535,2.0259,2.1138,2.1967,2.25,2.2945,2.3134,2.3134,2.3266,2.3474,2.3587,2.3739,2.3928,2.448,2.5351,2.6561,2.7183,2.8617,3.032,3.1154,3.1725,3.2085,3.1988,3.1819,3.1602,3.124,3.1022,3.0805,3.0443,3.0371,3.0143,2.953,2.7253,2.519,2.4568,2.2229,2.032,2.032,2.032,2.0288,2.0174,2.0011,1.9703,1.9018,1.8793,1.8697,1.8697,1.7658,1.651,1.5884,1.3976,1.1683,0.8806,0.8993,0.9158,0.9097,0.9892,1.0092,0.942,1.026,1.0575,1.0543,1.0575,1.0616,1.0665,1.1167,1.1381,1.155,1.2772,1.3267,1.3491,1.429,1.4602,1.4678,1.4733,1.4744,1.4733,1.4657,1.4005,1.2911,1.2173,1.2201,1.2058,1.1626,1.1626,1.1721,1.202,1.206,1.2169,1.2454,1.2494,1.2508,1.2508,1.2508,1.2508,1.2494,1.2508,1.2522,1.2522,1.2986,1.3226,1.354,1.417,1.4735,1.4906,1.5385,1.5642,1.5804,1.6162,1.6503,1.6877,1.7055,1.7413,1.7916,1.7754,1.8618,2.0246,2.0259,2.1192,2.2737,2.2926,2.3134,2.3342,2.3342,2.3455,2.3625,2.3663,2.3928,2.4499,2.5176,2.6176,2.7193,2.8247,2.9536,3.0767,3.0936,3.1796,3.2567,3.2326,3.2254,3.2109,3.1553,3.1384,3.1215,3.0757,3.0636,3.0201,2.8527,2.6868,2.5202,2.3737,2.1708,2.0336,2.032,2.032,2.032,2.032,2.0174,1.9613,1.8545,1.8324,1.8214,1.823,1.8072,1.7828,1.7428,1.5649,1.4083,1.2585,1.0998,0.9795,0.9135,1.0092,1.0236,0.951,1.0404,1.0714,1.0632,1.0714,1.0755,1.0763,1.0763,1.0987,1.1656,1.2429,1.2936,1.3624,1.4408,1.4689,1.4711,1.4831,1.4874,1.4874,1.4852,1.416,1.3237,1.1756,1.177,1.1798,1.1762,1.1694,1.1721,1.202,1.206,1.2128,1.2318,1.244,1.2508,1.2508,1.2508,1.2663,1.2972,1.2759,1.2828,1.3155,1.3411,1.3858,1.4677,1.4999,1.5239,1.5755,1.5755,1.5999,1.6178,1.6405,1.6698,1.7055,1.7234,1.7543,1.7916,1.8752,1.9619,2.0455,2.1311,2.2051,2.2737,2.2926,2.3134,2.3361,2.3512,2.3493,2.3474,2.3946,2.4079,2.4117,2.4842,2.5622,2.6275,2.6734,2.8449,3.0868,3.1682,3.2368,3.2881,3.2809,3.2785,3.2616,3.1891,3.124,3.0853,3.1143,3.0902,3.0454,3.0439,2.7961,2.5801,2.5221,2.2651,2.0483,2.0336,2.032,2.032,2.032,2.0174,2.0011,1.9833,1.9452,1.9388,1.9533,1.9372,1.8964,1.8136,1.6925,1.5164,1.3217,1.2012,1.1028,1.0028,1.0412,1.051,1.0332,1.069,1.0771,1.0828,1.0771,1.0788,1.0861,1.0861,1.0861,1.1087,1.186,1.2406,1.3159,1.3879,1.4402,1.495,1.4983,1.4994,1.4983,1.4885,1.4675,1.4507,1.1613,1.1613,1.164,1.1721,1.1523,1.1405,1.163,1.1722,1.1815,1.196,1.2259,1.2508,1.2817,1.2873,1.3071,1.3538,1.3155,1.3197,1.3669,1.3973,1.4456,1.5108,1.5448,1.569,1.6048,1.6048,1.6129,1.6308,1.6649,1.6958,1.725,1.769,1.8184,1.8532,1.938,2.0206,2.0771,2.1459,2.2182,2.2869,2.2964,2.319,2.3493,2.3587,2.3625,2.3682,2.4098,2.4249,2.4324,2.5288,2.5835,2.6231,2.6571,2.868,3.0665,3.1094,3.2289,3.3461,3.3243,3.3147,3.2978,3.2181,3.1481,3.1071,3.1481,3.136,3.124,3.1505,2.8655,2.6185,2.6064,2.3078,2.0564,2.0466,1.9886,1.9742,2.0271,1.9758,1.9645,2.0255,2.0141,2.0109,2.0288,2.0141,1.9914,1.9219,1.7963,1.6347,1.4321,1.2963,1.172,1.0347,1.0445,1.0534,1.0616,1.0755,1.0837,1.0886,1.1062,1.1062,1.0886,1.112,1.112,1.0902,1.1711,1.2267,1.3006,1.3759,1.4507,1.5037,1.5037,1.507,1.5113,1.5737,1.556,1.5414,1.1613,1.164,1.1509,1.1681,1.1391,1.1154,1.1443,1.1573,1.1691,1.1821,1.2259,1.2663,1.3127,1.3269,1.3669,1.414,1.387,1.3742,1.4215,1.4684,1.5015,1.5318,1.5658,1.5886,1.6048,1.6048,1.6146,1.6341,1.686,1.7218,1.7429,1.8333,1.8871,1.9192,1.9793,2.0574,2.132,2.1357,2.2079,2.302,2.302,2.3266,2.3644,2.3663,2.3795,2.3984,2.423,2.4457,2.4684,2.5719,2.6049,2.6525,2.7171,2.877,3.0409,3.0355,3.1999,3.4027,3.3476,3.3485,3.3268,3.2616,3.2012,3.165,3.1916,3.1964,3.1988,3.2205,2.9661,2.7104,2.6826,2.3582,2.0857,2.0466,1.9473,1.9219,1.9886,1.9346,1.933,2.0466,2.0434,2.0418,2.0547,2.0418,2.0336,2.0353,1.8888,1.7419,1.5748,1.3846,1.221,1.0819,1.067,1.0543,1.0657,1.0812,1.0902,1.0935,1.1589,1.1589,1.1162,1.1598,1.1598,1.1162,1.1797,1.233,1.3034,1.3586,1.4347,1.4825,1.507,1.5135,1.5469,1.665,1.671,1.6328,1.1613,1.1431,1.1403,1.1965,1.1696,1.1599,1.2045,1.2085,1.2112,1.2139,1.272,1.2972,1.3127,1.3567,1.414,1.4453,1.4715,1.4885,1.5046,1.5202,1.5475,1.5835,1.5999,1.6016,1.6048,1.6048,1.6211,1.6535,1.6925,1.7283,1.7607,1.8149,1.8615,1.9209,1.9932,2.0718,2.132,2.1874,2.2605,2.302,2.302,2.3266,2.3663,2.3833,2.3928,2.4003,2.44,2.4665,2.4873,2.5338,2.5796,2.6272,2.6291,2.7616,2.9455,3.0239,3.2053,3.3662,3.3618,3.3606,3.3702,3.3557,3.2978,3.2471,3.2761,3.2616,3.2471,3.2519,3.0941,2.901,2.7084,2.4995,2.2618,1.9661,1.987,1.9951,1.8907,1.9774,2.0385,2.0369,2.0483,2.0499,2.0369,2.0336,2.0385,2.0547,1.9492,1.8477,1.7967,1.5177,1.3506,1.2967,1.1391,1.0608,1.0845,1.0877,1.0959,1.1122,1.1641,1.1869,1.1797,1.1948,1.1966,1.1815,1.1686,1.1729,1.2438,1.3158,1.3685,1.4482,1.4954,1.5266,1.5602,1.6793,1.7507,1.7995,1.1431,1.1351,1.1295,1.1437,1.1678,1.1894,1.196,1.2512,1.2902,1.2972,1.3281,1.3619,1.3863,1.417,1.4623,1.5194,1.5448,1.5623,1.5719,1.5719,1.5883,1.6048,1.6048,1.6081,1.6178,1.6178,1.6574,1.7379,1.7312,1.7803,1.8516,1.8888,1.9552,2.0123,2.0891,2.1477,2.1874,2.2359,2.2623,2.302,2.302,2.3266,2.3663,2.3871,2.3965,2.4041,2.4551,2.4873,2.5137,2.5553,2.5969,2.6328,2.6884,2.8066,2.9455,3.0282,3.2287,3.4442,3.4559,3.4291,3.3992,3.3992,3.3412,3.2905,3.334,3.334,3.3219,3.2773,3.0645,2.8638,2.6955,2.4514,2.2168,2.0417,1.9982,1.9839,1.9919,1.9728,2.0095,2.071,2.0742,2.0742,2.0759,2.0661,2.0645,2.0726,2.03,1.9479,1.8252,1.7041,1.5633,1.3338,1.1586,1.0763,1.0886,1.0984,1.1082,1.1163,1.1984,1.2222,1.2081,1.2718,1.2728,1.209,1.1954,1.1988,1.2222,1.299,1.3754,1.4276,1.505,1.5907,1.6777,1.8148,1.9173,2.0274,1.171,1.1616,1.1682,1.154,1.2126,1.2539,1.2273,1.3,1.3581,1.3712,1.3893,1.4174,1.4657,1.4955,1.5273,1.5821,1.5967,1.6113,1.6292,1.6178,1.6113,1.6113,1.6146,1.6227,1.6373,1.6541,1.6941,1.7981,1.7654,1.8099,1.9201,1.9584,2.0242,2.0819,2.1615,2.2013,2.2397,2.2397,2.2623,2.302,2.302,2.3266,2.3663,2.3928,2.4041,2.4117,2.474,2.5099,2.5364,2.5874,2.6252,2.6555,2.7173,2.8225,2.9242,3.024,3.249,3.4797,3.4964,3.4747,3.4219,3.4147,3.3847,3.3437,3.3799,3.3919,3.3716,3.3188,3.0953,2.8709,2.7123,2.4749,2.2591,2.1278,2.03,1.9998,2.0369,1.9919,1.9982,2.1051,2.1035,2.1019,2.1116,2.0954,2.0889,2.097,2.097,2.0571,1.9132,1.8813,1.7385,1.4161,1.2006,1.0935,1.0951,1.132,1.1403,1.1428,1.2562,1.3015,1.2571,1.3468,1.3487,1.258,1.2429,1.2222,1.224,1.3046,1.3833,1.4596,1.5635,1.6789,1.8504,1.9535,2.0858,2.2054,1.3089,1.2907,1.2899,1.3531,1.3368,1.3526,1.3988,1.4191,1.4191,1.4206,1.4388,1.4657,1.4828,1.5194,1.5658,1.5999,1.6032,1.6113,1.6292,1.6292,1.6292,1.6292,1.6454,1.6552,1.6552,1.7061,1.7417,1.7981,1.7992,1.8279,1.8834,1.9023,1.9673,2.0455,2.1036,2.1819,2.2397,2.2397,2.2623,2.302,2.302,2.3266,2.3682,2.4079,2.4249,2.4324,2.4967,2.5307,2.5534,2.578,2.6252,2.6725,2.6763,2.7245,2.7846,2.9961,3.229,3.4323,3.3874,3.4102,3.4276,3.4017,3.4226,3.4402,3.4209,3.4354,3.4219,3.3266,3.2989,3.1724,2.8018,2.6883,2.5161,2.084,2.0787,2.0738,1.9379,2.0465,2.123,2.1132,2.1262,2.1278,2.1148,2.0954,2.0986,2.1327,2.1343,2.149,2.1623,2.0065,1.8247,1.6438,1.2834,1.1057,1.1139,1.1841,1.2125,1.2214,1.3285,1.3981,1.3849,1.3981,1.3981,1.3849,1.269,1.2222,1.224,1.3046,1.415,1.5778,1.7007,1.8453,2.001,2.1188,2.1675,2.2038,1.3086,1.2993,1.2956,1.3212,1.3781,1.423,1.434,1.4777,1.5113,1.5318,1.5273,1.5162,1.5498,1.5514,1.5821,1.6178,1.6113,1.6211,1.6617,1.6324,1.6243,1.647,1.6535,1.6682,1.6909,1.7312,1.7721,1.833,1.8296,1.888,1.994,1.9828,2.0437,2.1403,2.18,2.2126,2.2397,2.2397,2.2623,2.302,2.302,2.3342,2.3871,2.4154,2.4343,2.4551,2.5156,2.561,2.595,2.6271,2.6725,2.7141,2.7634,2.7808,2.8357,2.9926,3.1618,3.2994,3.2569,3.3282,3.3955,3.4001,3.394,3.3852,3.3758,3.3828,3.3546,3.243,3.1852,3.0367,2.7581,2.6322,2.4854,2.2088,2.1928,2.1831,2.098,2.1237,2.1701,2.1636,2.1684,2.1701,2.1636,2.1571,2.1571,2.1717,2.162,2.1668,2.1912,2.0214,1.9163,1.8572,1.6028,1.4171,1.3006,1.2366,1.2187,1.2222,1.3353,1.4062,1.4103,1.4518,1.4337,1.3498,1.3027,1.2592,1.1933,1.2514,1.4079,1.5922,1.6744,1.8929,2.1698,2.1726,2.2496,2.3346,1.3535,1.3565,1.3516,1.3683,1.4373,1.4971,1.4977,1.5432,1.5772,1.6016,1.5788,1.5658,1.5837,1.5804,1.5918,1.6276,1.6194,1.6308,1.6747,1.647,1.6405,1.6649,1.6779,1.6974,1.7266,1.768,1.8076,1.8651,1.8766,1.9323,2.053,2.061,2.1,2.1901,2.2302,2.2434,2.2491,2.2491,2.2737,2.3115,2.3115,2.3455,2.3984,2.4192,2.4438,2.4759,2.5307,2.578,2.6177,2.6536,2.6933,2.7311,2.7846,2.8318,2.8911,2.947,3.0824,3.1894,3.1319,3.2366,3.3615,3.3683,3.3655,3.3554,3.3508,3.3463,3.3133,3.2209,3.118,2.9939,2.7913,2.6405,2.5085,2.3605,2.2777,2.2367,2.2058,2.2026,2.2026,2.2026,2.2026,2.2026,2.2026,2.1961,2.1961,2.2026,2.1896,2.1912,2.2091,2.1125,2.0557,2.0661,1.8843,1.7185,1.5936,1.4549,1.3859,1.3392,1.456,1.5048,1.5092,1.5605,1.5661,1.5266,1.5061,1.4388,1.3712,1.431,1.5624,1.7453,1.8335,2.0285,2.3051,2.2897,2.3393,2.4235,1.496,1.496,1.509,1.5447,1.5512,1.5642,1.5983,1.6048,1.6048,1.6048,1.5886,1.5837,1.6032,1.5886,1.5918,1.6276,1.6308,1.6389,1.6568,1.6747,1.686,1.686,1.7201,1.7461,1.764,1.8018,1.8465,1.8651,1.9393,1.9771,1.9964,2.0927,2.132,2.132,2.2107,2.251,2.2718,2.2718,2.2945,2.3342,2.3342,2.3587,2.3984,2.4192,2.4532,2.4929,2.5364,2.578,2.6158,2.6385,2.6725,2.7103,2.733,2.8288,2.9055,2.856,2.9955,3.136,3.0863,3.1609,3.2807,3.306,3.3548,3.3783,3.3531,3.3463,3.3156,3.2196,3.2129,3.144,2.9755,2.8168,2.6753,2.5138,2.3622,2.2399,2.2221,2.2188,2.2188,2.2188,2.2188,2.2188,2.2188,2.2042,2.2026,2.2188,2.2188,2.2269,2.2464,2.2643,2.2724,2.2724,2.1004,2.0131,2.0131,1.8637,1.7123,1.5959,1.6657,1.6963,1.7333,1.7232,1.802,1.921,1.8867,1.8374,1.8258,1.8387,1.9253,2.0858,2.152,2.2774,2.4316,2.4121,2.4056,2.4056,1.496,1.5074,1.5236,1.548,1.5512,1.5642,1.5983,1.5837,1.5756,1.6016,1.5999,1.5983,1.6032,1.6097,1.6243,1.647,1.6503,1.6568,1.6763,1.6942,1.7214,1.7563,1.7444,1.764,1.8183,1.8499,1.8903,1.9584,1.9841,2.0224,2.0946,2.1265,2.1587,2.2107,2.2529,2.2661,2.2718,2.2869,2.3077,2.3342,2.3493,2.3795,2.4192,2.44,2.474,2.5156,2.5402,2.578,2.6177,2.6555,2.6857,2.7159,2.7651,2.8293,2.8579,2.8501,2.9557,3.0863,3.0634,3.1609,3.2581,3.2764,3.2924,3.2836,3.2596,3.2421,3.2202,3.1722,3.1549,3.0944,2.9517,2.9,2.7872,2.5373,2.4667,2.3808,2.2678,2.2594,2.2708,2.2578,2.2675,2.2757,2.2757,2.2708,2.2708,2.274,2.2757,2.2724,2.2659,2.2805,2.2919,2.2919,2.248,2.2276,2.2276,1.9588,1.788,1.7631,1.8353,1.8615,1.8642,1.8695,1.8761,1.8627,1.8666,1.8224,1.7804,1.7841,1.9224,2.0929,2.1232,2.2694,2.4511,2.4462,2.4446,2.4446,1.496,1.5057,1.522,1.5463,1.5512,1.5642,1.5983,1.5869,1.5804,1.6016,1.6048,1.6064,1.6146,1.6243,1.6373,1.6568,1.6714,1.6893,1.7153,1.7266,1.7493,1.7687,1.7673,1.8018,1.8845,1.892,1.9345,1.9947,2.0295,2.07,2.132,2.1587,2.1874,2.2397,2.2623,2.2756,2.285,2.3058,2.3304,2.3587,2.372,2.4022,2.4419,2.4627,2.4967,2.5364,2.5553,2.5912,2.6328,2.6725,2.7178,2.7632,2.7991,2.8275,2.8464,2.8596,2.9635,3.0613,3.0384,3.134,3.2603,3.2355,3.2376,3.2517,3.2194,3.2086,3.1935,3.1612,3.1504,3.1179,3.0511,3.0076,2.906,2.6554,2.5843,2.4807,2.3056,2.2854,2.287,2.2822,2.287,2.2919,2.3,2.3,2.3,2.3,2.3065,2.3016,2.2854,2.3065,2.3211,2.3211,2.3211,2.326,2.3325,2.1332,2.0035,1.9434,1.9894,1.9936,2.0231,2.0288,2.0373,2.0459,2.053,2.033,2.0102,2.0102,2.0743,2.2234,2.2295,2.3192,2.4397,2.4543,2.4511,2.4397,1.496,1.4992,1.5122,1.5463,1.5545,1.5675,1.5999,1.6032,1.6032,1.6048,1.6064,1.6129,1.6292,1.6341,1.6438,1.6617,1.6958,1.7299,1.764,1.7656,1.764,1.764,1.7819,1.8484,1.942,1.921,1.9587,2.0188,2.0946,2.132,2.1338,2.2107,2.2397,2.2397,2.2642,2.2831,2.302,2.3285,2.3606,2.3965,2.4003,2.4249,2.4627,2.4835,2.5175,2.5572,2.578,2.612,2.6555,2.6952,2.7651,2.8331,2.8331,2.8464,2.8615,2.8615,2.9635,3.0364,2.9865,3.1091,3.2355,3.1837,3.2085,3.2495,3.2064,3.2107,3.2129,3.1655,3.1741,3.2026,3.2025,3.1397,3.0242,2.8602,2.7197,2.5642,2.3466,2.2984,2.2854,2.3,2.2886,2.287,2.3016,2.3049,2.3049,2.3049,2.3211,2.3228,2.3065,2.3358,2.3552,2.3552,2.3552,2.3634,2.3829,2.365,2.291,2.139,2.139,2.1496,2.1647,2.1782,2.2585,2.3569,2.3715,2.3699,2.3552,2.3552,2.3682,2.3877,2.4023,2.4105,2.4153,2.4462,2.4381,2.4153,1.496,1.5204,1.5415,1.5496,1.574,1.5951,1.6032,1.5918,1.5886,1.6032,1.6162,1.6259,1.6292,1.6682,1.6958,1.699,1.7315,1.7624,1.7851,1.7721,1.7821,1.8183,1.8001,1.8534,2.015,1.9466,1.9915,2.1559,2.1459,2.1587,2.2126,2.2378,2.2397,2.2416,2.2775,2.2964,2.3039,2.3587,2.3871,2.3984,2.4324,2.4589,2.4835,2.5062,2.5496,2.6007,2.6044,2.6328,2.6763,2.7178,2.7745,2.8331,2.8331,2.8464,2.8615,2.8615,2.9115,2.9865,2.9615,3.0613,3.1816,3.14,3.1979,3.2581,3.2495,3.2344,3.2172,3.1892,3.1892,3.1827,3.1766,3.1962,3.1222,2.8124,2.7808,2.6702,2.3555,2.3228,2.3309,2.3211,2.3293,2.3374,2.3406,2.3422,2.3422,2.3422,2.3601,2.3617,2.3422,2.3617,2.3747,2.3747,2.3747,2.3829,2.3991,2.3975,2.36,2.3132,2.3132,2.3244,2.3632,2.3307,2.3504,2.3747,2.3634,2.365,2.3747,2.3747,2.3926,2.4235,2.4267,2.4365,2.4495,2.4576,2.4543,2.4495,1.5074,1.5187,1.5333,1.5593,1.5723,1.5853,1.6016,1.6032,1.6064,1.6162,1.6324,1.6503,1.6665,1.6942,1.7218,1.7478,1.7672,1.7851,1.803,1.803,1.8182,1.8267,1.8264,1.8819,2.0324,1.9845,2.0437,2.2094,2.1995,2.2088,2.2397,2.2397,2.2397,2.2416,2.2831,2.302,2.3039,2.3587,2.3984,2.4287,2.4495,2.4816,2.5213,2.5534,2.578,2.6007,2.6196,2.6555,2.697,2.7147,2.7634,2.835,2.8445,2.8539,2.8615,2.8615,2.9134,2.9615,2.9115,3.0115,3.1091,3.0968,3.1526,3.2085,3.2452,3.243,3.2344,3.2107,3.2172,3.2129,3.2268,3.2443,3.1853,2.9461,2.8622,2.733,2.4572,2.3936,2.3552,2.3634,2.365,2.365,2.365,2.365,2.365,2.365,2.3829,2.3894,2.378,2.3959,2.4056,2.4056,2.3975,2.4023,2.4186,2.4105,2.4056,2.4056,2.3975,2.3975,2.4056,2.3975,2.3926,2.391,2.3829,2.3845,2.3926,2.3926,2.4088,2.4332,2.4332,2.4397,2.4478,2.4576,2.4592,2.4608,1.5204,1.5171,1.5252,1.5691,1.5707,1.574,1.5999,1.6194,1.6308,1.6308,1.647,1.6714,1.7071,1.7185,1.7445,1.7916,1.7997,1.8062,1.8208,1.8403,1.8436,1.8273,1.842,1.9171,2.0351,2.0316,2.0964,2.2151,2.2302,2.2397,2.2397,2.2397,2.2416,2.2453,2.285,2.3058,2.3153,2.3568,2.4079,2.4646,2.4684,2.5024,2.561,2.595,2.6025,2.5969,2.6385,2.68,2.6997,2.6851,2.7219,2.8083,2.852,2.8615,2.8671,2.8671,2.8922,2.9423,2.8671,2.9404,3.0364,3.0613,3.1112,3.1816,3.2119,3.2452,3.2538,3.2323,3.243,3.272,3.2795,3.2928,3.2619,3.0953,2.9501,2.7961,2.6251,2.4654,2.3699,2.4023,2.3942,2.3845,2.3812,2.3829,2.3829,2.3812,2.3991,2.4105,2.4056,2.4235,2.4332,2.4332,2.4186,2.4186,2.4381,2.4235,2.4251,2.443,2.4267,2.4186,2.4153,2.4121,2.4105,2.4105,2.4088,2.4088,2.4105,2.4105,2.4218,2.4381,2.4381,2.4381,2.4397,2.4543,2.4592,2.4608,1.5236,1.5463,1.5691,1.5756,1.6016,1.6162,1.6064,1.6194,1.6308,1.6308,1.647,1.6714,1.7071,1.7526,1.79,1.8127,1.829,1.8387,1.842,1.8582,1.868,1.8647,1.868,1.9422,2.0738,2.0597,2.118,2.2359,2.2378,2.2397,2.2397,2.2397,2.2491,2.268,2.2907,2.3209,2.3568,2.4003,2.4438,2.4854,2.5062,2.5383,2.578,2.5855,2.6082,2.6403,2.663,2.6866,2.6646,2.67,2.6992,2.7587,2.8121,2.8615,2.8898,2.8898,2.8898,2.8898,2.8898,2.925,2.9845,3.0364,3.1112,3.1858,3.2312,3.2581,3.2538,3.2323,3.243,3.2517,3.2525,3.3194,3.3416,3.1416,3.031,2.8879,2.7164,2.5084,2.3845,2.404,2.404,2.3975,2.3829,2.3942,2.3959,2.3829,2.4105,2.4235,2.4056,2.4235,2.4332,2.4332,2.4316,2.4381,2.4543,2.4527,2.4608,2.4803,2.4771,2.4673,2.4511,2.4365,2.43,2.43,2.4121,2.4153,2.43,2.43,2.4397,2.4543,2.4543,2.4543,2.4576,2.4592,2.4592,2.4592,1.5512,1.5593,1.5691,1.5886,1.5967,1.6048,1.6178,1.6341,1.6487,1.66,1.6763,1.7006,1.7364,1.7802,1.8095,1.8176,1.8338,1.8452,1.8452,1.8712,1.8826,1.8728,1.8809,1.9572,2.0826,2.0755,2.1434,2.2737,2.251,2.2453,2.2567,2.2453,2.2567,2.2888,2.3096,2.3361,2.3663,2.4079,2.457,2.508,2.5156,2.5534,2.6025,2.5793,2.5941,2.5802,2.5391,2.544,2.5706,2.5676,2.6412,2.7156,2.7798,2.8346,2.8936,2.8936,2.8936,2.8936,2.8936,2.9384,3.0023,3.0424,3.1214,3.2026,3.2376,3.2603,3.2581,3.2452,3.2538,3.2581,3.2452,3.2858,3.2749,3.1991,3.0983,2.9845,2.8123,2.6609,2.5409,2.4598,2.4365,2.43,2.4121,2.417,2.4186,2.4105,2.4251,2.4332,2.4365,2.4446,2.4478,2.4478,2.4478,2.4511,2.4592,2.4592,2.4641,2.4722,2.4722,2.4722,2.4738,2.4673,2.4576,2.4462,2.4397,2.4397,2.4478,2.4478,2.4527,2.4592,2.4592,2.4592,2.4608,2.4706,2.4673,2.4592]},{"header":{"parameterUnit":"m.s-1","parameterCategory":1,"la1":30.6,"la2":28.766,"lo1":-90.7593,"lo2":-88.6598,"dy":0.0162,"dx":0.0183,"nx":116,"ny":114,"refTime":"2024-02-02T06:00:00:Z","depth":0,"parameterNumber":3,"parameterNumberName":"V-component_of_WINDS"},"data":[0.0,0.0,0.0,0.0,0.0,0.0,0.0,0.0,0.0,0.0,0.0,0.0,0.0,0.0,0.0,0.0,0.0,0.0,0.0,0.0,0.0,0.0,0.0,0.0,0.0,0.0,0.0,0.0,0.0,0.0,0.0,0.0,0.0,0.0,0.0,0.0,0.0,0.0,0.0,0.0,0.0,0.0,0.0,0.0,0.0,0.0,0.0,0.0,0.0,0.0,0.0,0.0,0.0,0.0,0.0,0.0,0.0,0.0,0.0,0.0,0.0,0.0,0.0,0.0,0.0,0.0,0.0,0.0,0.0,0.0,0.0,0.0,0.0,0.0,0.0,0.0,0.0,0.0,0.0,0.0,0.0,0.0,0.0,0.0,0.0,0.0,0.0,0.0,0.0,0.0,0.0,0.0,0.0,0.0,0.0,0.0,0.0,0.0,0.0,0.0,0.0,0.0,0.0,0.0,0.0,0.0,0.0,0.0,0.0,0.0,0.0,0.0,0.0,0.0,0.0,0.0,0.0,0.0,0.0,0.0,0.0,0.0,0.0,0.0,0.0,0.0,0.0,0.0,0.0,0.0,0.0,0.0,0.0,0.0,0.0,0.0,0.0,0.0,0.0,0.0,0.0,0.0,0.0,0.0,0.0,0.0,0.0,0.0,0.0,0.0,0.0,0.0,0.0,0.0,0.0,0.0,0.0,0.0,0.0,0.0,0.0,0.0,0.0,0.0,0.0,0.0,0.0,0.0,0.0,0.0,0.0,0.0,0.0,0.0,0.0,0.0,0.0,0.0,0.0,0.0,0.0,0.0,0.0,0.0,0.0,0.0,0.0,0.0,0.0,0.0,0.0,0.0,0.0,0.0,0.0,0.0,0.0,0.0,0.0,0.0,0.0,0.0,0.0,0.0,0.0,0.0,0.0,0.0,0.0,0.0,0.0,0.0,0.0,0.0,0.0,0.0,0.0,0.0,0.0,0.0,0.0,0.0,0.0,0.0,0.0,0.0,0.0,0.0,0.0,0.0,0.0,0.0,0.0,0.0,0.0,0.0,0.0,0.0,0.0,0.0,0.0,0.0,0.0,0.0,0.0,0.0,0.0,0.0,0.0,0.0,0.0,0.0,0.0,0.0,0.0,0.0,0.0,0.0,0.0,0.0,0.0,0.0,0.0,0.0,0.0,0.0,0.0,0.0,0.0,0.0,0.0,0.0,0.0,0.0,0.0,0.0,0.0,0.0,0.0,0.0,0.0,0.0,0.0,0.0,0.0,0.0,0.0,0.0,0.0,0.0,0.0,0.0,0.0,0.0,0.0,0.0,0.0,0.0,0.0,0.0,0.0,0.0,0.0,0.0,0.0,0.0,0.0,0.0,0.0,0.0,0.0,0.0,0.0,0.0,0.0,0.0,0.0,0.0,0.0,0.0,0.0,0.0,0.0,0.0,0.0,0.0,0.0,0.0,0.0,0.0,0.0,0.0,0.0,0.0,0.0,0.0,0.0,0.0,0.0,0.0,0.0,0.0,0.0,0.0,0.0,0.0,0.0,0.0,0.0,0.0,0.0,0.0,0.0,0.0,0.0,0.0,0.0,0.0,0.0,0.0,0.0,0.0,0.0,0.0,0.0,0.0,0.0,0.0,0.0,0.0,0.0,0.0,0.0,0.0,0.0,0.0,0.0,0.0,0.0,0.0,0.0,0.0,0.0,0.0,0.0,0.0,0.0,0.0,0.0,0.0,0.0,0.0,0.0,0.0,0.0,0.0,0.0,0.0,0.0,0.0,0.0,0.0,0.0,0.0,0.0,0.0,0.0,0.0,0.0,0.0,0.0,0.0,0.0,0.0,0.0,0.0,0.0,0.0,0.0,0.0,0.0,0.0,0.0,0.0,0.0,0.0,0.0,0.0,0.0,0.0,0.0,0.0,0.0,0.0,0.0,0.0,0.0,0.0,0.0,0.0,0.0,0.0,0.0,0.0,0.0,0.0,0.0,0.0,0.0,0.0,0.0,0.0,0.0,0.0,0.0,0.0,0.0,0.0,0.0,0.0,0.0,0.0,0.0,0.0,0.0,0.0,0.0,0.0,0.0,0.0,0.0,0.0,0.0,0.0,0.0,0.0,0.0,0.0,0.0,0.0,0.0,0.0,0.0,0.0,0.0,0.0,0.0,0.0,0.0,0.0,0.0,0.0,0.0,0.0,0.0,0.0,0.0,0.0,0.0,0.0,0.0,0.0,0.0,0.0,0.0,0.0,0.0,0.0,0.0,0.0,0.0,0.0,0.0,0.0,0.0,0.0,0.0,0.0,0.0,0.0,0.0,0.0,0.0,0.0,0.0,0.0,0.0,0.0,0.0,0.0,0.0,0.0,0.0,0.0,0.0,0.0,0.0,0.0,0.0,0.0,0.0,0.0,0.0,0.0,0.0,0.0,0.0,0.0,0.0,0.0,0.0,0.0,0.0,0.0,0.0,0.0,0.0,0.0,0.0,0.0,0.0,0.0,0.0,0.0,0.0,0.0,0.0,0.0,0.0,0.0,0.0,0.0,0.0,0.0,0.0,0.0,0.0,0.0,0.0,0.0,0.0,0.0,0.0,0.0,0.0,0.0,0.0,0.0,0.0,0.0,0.0,0.0,0.0,0.0,0.0,0.0,0.0,0.0,0.0,0.0,0.0,0.0,0.0,0.0,0.0,0.0,0.0,0.0,0.0,0.0,0.0,0.0,0.0,0.0,0.0,0.0,0.0,0.0,0.0,0.0,0.0,0.0,0.0,0.0,0.0,0.0,0.0,0.0,0.0,0.0,0.0,0.0,0.0,0.0,0.0,0.0,0.0,0.0,0.0,0.0,0.0,0.0,0.0,0.0,0.0,0.0,0.0,0.0,0.0,0.0,0.0,0.0,0.0,0.0,0.0,0.0,0.0,0.0,0.0,0.0,0.0,0.0,0.0,0.0,0.0,0.0,0.0,0.0,0.0,0.0,0.0,0.0,0.0,0.0,0.0,0.0,0.0,0.0,0.0,0.0,0.0,0.0,0.0,0.0,0.0,0.0,0.0,0.0,0.0,0.0,0.0,0.0,0.0,0.0,0.0,0.0,0.0,0.0,0.0,0.0,0.0,0.0,0.0,0.0,0.0,0.0,0.0,0.0,0.0,0.0,0.0,0.0,0.0,0.0,0.0,0.0,0.0,0.0,0.0,0.0,0.0,0.0,0.0,0.0,0.0,0.0,0.0,0.0,0.0,0.0,0.0,0.0,0.0,0.0,0.0,0.0,0.0,0.0,0.0,0.0,0.0,0.0,0.0,0.0,0.0,0.0,0.0,0.0,0.0,0.0,0.0,0.0,0.0,0.0,0.0,0.0,0.0,0.0,0.0,0.0,0.0,0.0,0.0,0.0,0.0,0.0,0.0,0.0,0.0,0.0,0.0,0.0,0.0,0.0,0.0,0.0,0.0,0.0,0.0,0.0,0.0,0.0,0.0,0.0,0.0,0.0,0.0,0.0,0.0,0.0,0.0,0.0,0.0,0.0,0.0,0.0,0.0,0.0,0.0,0.0,0.0,0.0,0.0,0.0,0.0,0.0,0.0,0.0,0.0,0.0,0.0,0.0,0.0,0.0,0.0,0.0,0.0,0.0,0.0,0.0,0.0,0.0,0.0,0.0,0.0,0.0,0.0,0.0,0.0,0.0,0.0,0.0,0.0,0.0,0.0,0.0,0.0,0.0,0.0,0.0,0.0,0.0,0.0,0.0,0.0,0.0,0.0,0.0,0.0,0.0,0.0,0.0,0.0,0.0,0.0,0.0,0.0,0.0,0.0,0.0,0.0,0.0,0.0,0.0,0.0,0.0,0.0,0.0,0.0,0.0,0.0,0.0,0.0,0.0,0.0,0.0,0.0,0.0,0.0,0.0,0.0,0.0,0.0,0.0,0.0,0.0,0.0,0.0,0.0,0.0,0.0,0.0,0.0,0.0,0.0,0.0,0.0,0.0,0.0,0.0,0.0,0.0,0.0,0.0,0.0,0.0,0.0,0.0,0.0,0.0,0.0,0.0,0.0,0.0,0.0,0.0,0.0,0.0,0.0,0.0,0.0,0.0,0.0,0.0,0.0,0.0,0.0,0.0,0.0,0.0,0.0,0.0,0.0,0.0,0.0,0.0,0.0,0.0,0.0,0.0,0.0,0.0,0.0,0.0,0.0,0.0,0.0,0.0,0.0,0.0,0.0,0.0,0.0,0.0,0.0,0.0,0.0,0.0,0.0,0.0,0.0,0.0,0.0,0.0,0.0,0.0,0.0,0.0,0.0,0.0,0.0,0.0,0.0,0.0,0.0,0.0,0.0,0.0,0.0,0.0,0.0,0.0,0.0,0.0,0.0,0.0,0.0,0.0,0.0,0.0,0.0,0.0,0.0,0.0,0.0,0.0,0.0,0.0,0.0,0.0,0.0,0.0,0.0,0.0,0.0,0.0,0.0,0.0,0.0,0.0,0.0,0.0,0.0,0.0,0.0,0.0,0.0,0.0,0.0,0.0,0.0,0.0,0.0,0.0,0.0,0.0,0.0,0.0,0.0,0.0,0.0,0.0,0.0,0.0,0.0,0.0,0.0,0.0,0.0,0.0,0.0,0.0,0.0,0.0,0.0,0.0,0.0,0.0,0.0,0.0,0.0,0.0,0.0,0.0,0.0,0.0,0.0,0.0,0.0,0.0,0.0,0.0,0.0,0.0,0.0,0.0,0.0,0.0,0.0,0.0,0.0,0.0,0.0,0.0,0.0,0.0,0.0,0.0,0.0,0.0,0.0,0.0,0.0,0.0,0.0,0.0,0.0,0.0,0.0,0.0,0.0,0.0,0.0,0.0,0.0,0.0,0.0,0.0,0.0,0.0,0.0,0.0,0.0,0.0,0.0,0.0,0.0,0.0,0.0,0.0,0.0,0.0,0.0,0.0,0.0,0.0,0.0,0.0,0.0,0.0,0.0,0.0,0.0,0.0,0.0,0.0,0.0,0.0,0.0,0.0,0.0,0.0,0.0,0.0,0.0,0.0,0.0,0.0,0.0,0.0,0.0,0.0,0.0,0.0,0.0,0.0,0.0,0.0,0.0,0.0,0.0,0.0,0.0,0.0,0.0,0.0,0.0,0.0,0.0,0.0,0.0,0.0,0.0,0.0,0.0,0.0,0.0,0.0,0.0,0.0,0.0,0.0,0.0,0.0,0.0,0.0,0.0,0.0,0.0,0.0,0.0,0.0,0.0,0.0,0.0,0.0,0.0,0.0,0.0,0.0,0.0,0.0,0.0,0.0,0.0,0.0,0.0,0.0,0.0,0.0,0.0,0.0,0.0,0.0,0.0,0.0,0.0,0.0,0.0,0.0,0.0,0.0,0.0,0.0,0.0,0.0,0.0,0.0,0.0,0.0,0.0,0.0,0.0,0.0,0.0,0.0,0.0,0.0,0.0,0.0,0.0,0.0,0.0,0.0,0.0,0.0,0.0,0.0,0.0,0.0,0.0,0.0,0.0,0.0,0.0,0.0,0.0,0.0,0.0,0.0,0.0,0.0,0.0,0.0,0.0,0.0,0.0,0.0,0.0,0.0,0.0,0.0,0.0,0.0,0.0,0.0,0.0,0.0,0.0,0.0,0.0,0.0,0.0,0.0,0.0,0.0,0.0,0.0,0.0,0.0,0.0,0.0,0.0,0.0,0.0,0.0,0.0,0.0,0.0,0.0,0.0,0.0,0.0,0.0,0.0,0.0,0.0,0.0,0.0,0.0,0.0,0.0,0.0,0.0,0.0,0.0,0.0,0.0,0.0,0.0,0.0,0.0,0.0,0.0,0.0,0.0,0.0,0.0,0.0,0.0,0.0,0.0,0.0,0.0,0.0,0.0,0.0,0.0,0.0,0.0,0.0,0.0,0.0,0.0,0.0,0.0,0.0,0.0,0.0,0.0,0.0,0.0,0.0,0.0,0.0,0.0,0.0,0.0,0.0,0.0,0.0,0.0,0.0,0.0,0.0,0.0,0.0,0.0,0.0,0.0,0.0,0.0,0.0,0.0,0.0,0.0,0.0,0.0,0.0,0.0,0.0,0.0,0.0,0.0,0.0,0.0,0.0,0.0,0.0,0.0,-4.632,-4.742,0.0,0.0,0.0,0.0,0.0,0.0,0.0,0.0,0.0,0.0,0.0,0.0,0.0,0.0,0.0,0.0,0.0,0.0,0.0,0.0,0.0,0.0,0.0,0.0,0.0,0.0,0.0,0.0,0.0,0.0,0.0,0.0,0.0,0.0,-3.3679,-3.3902,-3.4552,-3.5616,-3.6221,-3.7853,-4.0557,-4.0377,-4.0946,-4.2184,0.0,0.0,0.0,0.0,0.0,0.0,0.0,0.0,0.0,0.0,0.0,0.0,0.0,0.0,0.0,0.0,0.0,0.0,0.0,0.0,0.0,0.0,0.0,0.0,0.0,0.0,0.0,0.0,0.0,0.0,0.0,0.0,0.0,0.0,0.0,0.0,0.0,0.0,0.0,0.0,0.0,0.0,0.0,0.0,0.0,0.0,0.0,0.0,0.0,0.0,0.0,0.0,0.0,0.0,0.0,0.0,0.0,0.0,0.0,0.0,0.0,0.0,0.0,0.0,0.0,0.0,0.0,0.0,0.0,0.0,-4.7661,-4.6947,0.0,0.0,0.0,0.0,0.0,0.0,0.0,0.0,0.0,0.0,0.0,0.0,0.0,0.0,0.0,0.0,0.0,0.0,0.0,0.0,0.0,0.0,0.0,-2.9287,-2.9605,-3.0535,-3.1273,-3.1986,-3.2375,-3.3283,-3.3716,-3.3377,-3.3634,-3.3689,-3.3689,-3.441,-3.5181,-3.5945,-3.7516,-3.9438,-4.1531,-4.172,-4.2354,-4.322,-4.3044,0.0,0.0,0.0,0.0,0.0,0.0,0.0,0.0,0.0,0.0,0.0,0.0,0.0,0.0,0.0,0.0,0.0,0.0,0.0,0.0,0.0,0.0,0.0,0.0,0.0,0.0,0.0,0.0,0.0,0.0,0.0,0.0,0.0,0.0,0.0,0.0,0.0,0.0,0.0,0.0,0.0,0.0,0.0,0.0,0.0,0.0,0.0,0.0,0.0,0.0,0.0,0.0,0.0,0.0,0.0,0.0,0.0,0.0,0.0,0.0,0.0,0.0,0.0,-5.504,-5.5564,-5.5732,-5.4445,-5.3116,-5.1826,-4.8934,-4.6507,-4.4658,-4.7703,0.0,0.0,0.0,0.0,0.0,0.0,0.0,0.0,0.0,0.0,0.0,0.0,0.0,0.0,0.0,0.0,0.0,0.0,0.0,0.0,0.0,-3.0051,-3.0393,-3.1201,-3.2008,-3.2254,-3.1716,-3.304,-3.3556,-3.2868,-3.3482,-3.385,-3.385,-3.4454,-3.5343,-3.6597,-3.9767,-4.1599,-4.2226,-4.3309,-4.3961,-4.4426,-4.4356,-4.3722,-4.2728,0.0,0.0,0.0,0.0,0.0,0.0,0.0,0.0,0.0,0.0,0.0,0.0,0.0,0.0,0.0,0.0,0.0,0.0,0.0,0.0,0.0,0.0,0.0,0.0,0.0,0.0,0.0,0.0,0.0,0.0,0.0,0.0,0.0,0.0,0.0,0.0,0.0,0.0,0.0,0.0,0.0,-5.9887,-6.0703,0.0,0.0,0.0,0.0,0.0,0.0,0.0,0.0,0.0,0.0,0.0,0.0,0.0,-5.8359,-5.528,-5.4835,-5.2909,-4.9934,-5.0397,-5.0666,-5.0497,-5.0261,-5.0429,-5.0754,-4.9859,0.0,-4.4441,-4.4851,0.0,0.0,0.0,0.0,0.0,0.0,0.0,0.0,0.0,0.0,0.0,0.0,0.0,0.0,0.0,0.0,0.0,0.0,0.0,0.0,0.0,-3.0436,-3.0957,-3.2162,-3.305,-3.3409,-3.3045,-3.3989,-3.428,-3.3408,-3.3729,-3.4071,-3.4532,-3.5503,-3.6974,-3.9039,-4.0899,-4.2229,-4.3065,-4.3968,-4.493,-4.5879,-4.6159,-4.5469,-4.4198,-4.5043,0.0,0.0,0.0,0.0,0.0,0.0,0.0,0.0,0.0,0.0,0.0,0.0,0.0,0.0,0.0,0.0,0.0,0.0,0.0,0.0,0.0,0.0,0.0,0.0,0.0,0.0,0.0,0.0,0.0,0.0,0.0,0.0,0.0,0.0,0.0,0.0,0.0,0.0,0.0,-5.9564,-6.0512,-6.127,-6.2205,-6.2841,0.0,0.0,0.0,0.0,0.0,0.0,0.0,0.0,0.0,-6.1246,-5.9345,-5.7301,-5.5266,-5.4693,-5.3403,-5.117,-5.1595,-5.1305,-5.0527,-5.0346,-5.0549,-5.1141,-5.0526,-4.9301,-4.7947,-4.6505,-4.6467,-4.7238,0.0,0.0,0.0,0.0,-5.0505,-4.8067,0.0,0.0,0.0,0.0,0.0,0.0,0.0,0.0,0.0,0.0,0.0,0.0,-3.0839,-3.1512,-3.2371,-3.3446,-3.4128,-3.4481,-3.4199,-3.4598,-3.446,-3.3629,-3.3776,-3.4091,-3.4697,-3.6292,-3.8288,-4.0754,-4.1634,-4.2752,-4.392,-4.4763,-4.5841,-4.7162,-4.7782,-4.7065,-4.5624,-4.6291,-4.6055,-4.5277,0.0,0.0,0.0,0.0,0.0,0.0,0.0,0.0,0.0,0.0,0.0,0.0,0.0,0.0,0.0,0.0,0.0,0.0,0.0,0.0,0.0,0.0,0.0,0.0,0.0,0.0,0.0,0.0,0.0,0.0,0.0,0.0,0.0,0.0,0.0,0.0,0.0,-6.0108,-6.0568,-6.1538,-6.2229,-6.2487,0.0,0.0,0.0,0.0,0.0,0.0,-6.2432,-6.2736,-6.2012,-5.9914,-5.8297,-5.6974,-5.6142,-5.5492,-5.4663,-5.3526,-5.3767,-5.3247,-5.1625,-5.1518,-5.1725,-5.2212,-5.1495,-5.1403,-5.1296,-4.8436,-4.7583,-4.7978,-4.8106,-4.8784,-4.9683,-5.127,-4.9564,-4.5927,0.0,0.0,0.0,0.0,0.0,0.0,0.0,0.0,0.0,0.0,0.0,-3.2124,-3.2057,-3.4053,-3.5276,-3.5231,-3.5223,-3.4898,-3.4135,-3.3934,-3.3543,-3.282,-3.3376,-3.3735,-3.3735,-3.6237,-3.8522,-4.0286,-4.2173,-4.3568,-4.4535,-4.5879,-4.7109,-4.8147,-4.901,-4.8336,-4.6565,-4.742,-4.7111,-4.5959,-4.5404,0.0,0.0,0.0,0.0,0.0,0.0,0.0,0.0,0.0,0.0,0.0,0.0,0.0,0.0,0.0,0.0,0.0,0.0,0.0,0.0,0.0,0.0,0.0,0.0,0.0,0.0,0.0,0.0,0.0,0.0,0.0,0.0,0.0,0.0,0.0,0.0,0.0,0.0,-6.1216,-6.1202,0.0,0.0,0.0,0.0,-6.4074,-6.4999,-6.4256,-6.1398,-6.1728,-6.1089,-5.8874,-5.8007,-5.7806,-5.796,-5.751,-5.6525,-5.4843,-5.5286,-5.4549,-5.2912,-5.2912,-5.3367,-5.4124,-5.3522,-5.3568,-5.3433,-4.8971,-4.5843,-4.4289,-4.6267,-4.6789,-4.6269,-4.4794,-4.4939,-4.4693,0.0,0.0,0.0,0.0,0.0,0.0,0.0,0.0,-3.0513,-3.0859,-3.1337,-3.2158,-3.3395,-3.4499,-3.5415,-3.6208,-3.6446,-3.6082,-3.5054,-3.4882,-3.4481,-3.3785,-3.4134,-3.5335,-3.7255,-3.9427,-4.1321,-4.3009,-4.4413,-4.5617,-4.6646,-4.7951,-4.919,-5.0156,-5.0788,-5.0659,-5.0027,-5.0069,-4.9361,-4.8298,-4.8346,-4.7348,0.0,0.0,0.0,0.0,0.0,0.0,0.0,0.0,0.0,0.0,0.0,0.0,0.0,0.0,0.0,0.0,0.0,0.0,0.0,0.0,0.0,0.0,0.0,0.0,0.0,0.0,0.0,0.0,0.0,0.0,0.0,0.0,0.0,0.0,0.0,0.0,0.0,-6.1507,-6.2258,0.0,-6.2907,-6.4696,-6.5052,-6.2846,-6.365,-6.2941,-6.0074,-6.0429,-6.0626,-6.0743,-6.0308,-6.0945,-6.2497,-6.1764,-6.0817,-5.9831,-5.9764,-5.844,-5.6076,-5.6215,-5.6172,-5.572,-5.5298,-5.5156,-5.4787,-5.2818,-5.0355,-4.7625,-4.6751,-4.5934,-4.4837,-4.3318,-4.3237,-4.3089,0.0,0.0,0.0,0.0,0.0,0.0,0.0,0.0,-3.0689,-3.1255,-3.2083,-3.3106,-3.4333,-3.5685,-3.6695,-3.7205,-3.7202,-3.6678,-3.5574,-3.5134,-3.4518,-3.3421,-3.4262,-3.6323,-3.9525,-4.1189,-4.2737,-4.4289,-4.5808,-4.6884,-4.7805,-4.918,-5.036,-5.1327,-5.1778,-5.2256,-5.2669,-5.2716,-5.1714,-5.017,-5.0199,-4.8731,-4.6444,0.0,0.0,0.0,0.0,0.0,0.0,0.0,0.0,0.0,0.0,0.0,0.0,0.0,0.0,0.0,0.0,0.0,0.0,0.0,0.0,0.0,0.0,0.0,0.0,0.0,0.0,0.0,0.0,0.0,0.0,0.0,0.0,0.0,0.0,-6.0631,-6.1087,-6.2281,-6.2972,-6.3549,-6.4129,-6.5757,-6.591,-6.3628,-6.3533,-6.2738,-6.0886,-6.0291,-6.0734,-6.1834,-6.2047,-6.3105,-6.4703,-6.4354,-6.3618,-6.2687,-6.2254,-6.0956,-5.8582,-5.8159,-5.7628,-5.6815,-5.6333,-5.5753,-5.5269,-5.5051,-5.3512,-5.1287,-4.8619,-4.6336,-4.4391,-4.4169,-4.3851,-4.347,0.0,0.0,0.0,0.0,0.0,0.0,0.0,-3.0502,-3.0788,-3.1545,-3.3629,-3.5042,-3.4922,-3.7785,-3.9272,-3.8295,-3.7551,-3.6619,-3.5431,-3.4758,-3.3577,-3.174,-3.3745,-3.6575,-4.0259,-4.1453,-4.2745,-4.414,-4.6176,-4.7501,-4.8111,-4.9277,-5.053,-5.1724,-5.2114,-5.3041,-5.4293,-5.5115,-5.4051,-5.1688,-5.0735,-4.9287,-4.7742,0.0,0.0,0.0,0.0,0.0,0.0,0.0,0.0,0.0,0.0,0.0,0.0,0.0,0.0,0.0,0.0,0.0,0.0,0.0,0.0,0.0,0.0,0.0,0.0,0.0,0.0,0.0,0.0,0.0,0.0,0.0,0.0,0.0,-6.1598,-6.1051,-6.1455,-6.3374,-6.3255,-6.3729,-6.5527,-6.6258,-6.6594,-6.6491,-6.5031,-6.4016,-6.3829,-6.1807,-6.1291,-6.2397,-6.3118,-6.3648,-6.434,-6.5389,-6.4787,-6.2795,-6.27,-6.1835,-6.0068,-5.8454,-5.7651,-5.7455,-5.6638,-5.5706,-5.4649,-5.5307,-5.5056,-5.3987,-5.1618,-4.8312,-4.5107,-4.7235,-4.6964,-4.571,0.0,0.0,0.0,0.0,0.0,0.0,-3.0379,-3.0917,-3.1555,-3.2166,-3.3973,-3.5428,-3.6274,-3.7918,-3.8938,-3.901,-3.8086,-3.6888,-3.547,-3.4866,-3.4764,-3.5402,-3.7783,-4.0272,-4.2812,-4.43,-4.5837,-4.7365,-4.8084,-4.9381,-5.1221,-5.1531,-5.2851,-5.499,-5.4984,-5.5205,-5.5696,-5.5413,-5.5479,-5.5643,-5.4658,-5.2866,-5.0759,0.0,0.0,0.0,0.0,0.0,0.0,0.0,0.0,0.0,0.0,0.0,0.0,0.0,0.0,0.0,0.0,0.0,0.0,0.0,0.0,0.0,0.0,0.0,0.0,0.0,0.0,0.0,0.0,0.0,0.0,0.0,-6.361,-6.3246,-6.2581,-6.3019,-6.3399,-6.3475,-6.4793,-6.5986,-6.6675,-6.7974,-6.8229,-6.71,-6.6805,-6.6146,-6.5031,-6.4132,-6.3817,-6.4473,-6.5049,-6.5594,-6.6373,-6.6288,-6.5957,-6.5348,-6.5136,-6.4009,-6.2222,-6.0866,-5.9597,-5.8367,-5.6744,-5.5791,-5.5307,-5.5389,-5.4948,-5.4247,-5.2164,-5.1189,-5.0537,-4.9047,-4.7891,-4.7304,0.0,0.0,0.0,0.0,0.0,0.0,-3.1264,-3.1597,-3.2019,-3.2956,-3.4582,-3.6007,-3.6903,-3.8184,-3.9005,-3.8877,-3.7935,-3.6673,-3.5095,-3.4425,-3.5416,-3.8259,-3.9697,-4.1766,-4.4545,-4.6044,-4.763,-4.941,-5.0005,-5.1262,-5.3052,-5.3123,-5.4305,-5.6363,-5.6117,-5.6545,-5.7493,-5.6829,-5.7172,-5.8093,-5.7522,-5.6018,-5.4112,-5.4077,-5.3652,-5.316,-5.3949,-5.4155,-5.4198,-5.463,0.0,0.0,0.0,0.0,0.0,0.0,0.0,0.0,0.0,0.0,0.0,0.0,0.0,0.0,0.0,0.0,0.0,0.0,0.0,0.0,0.0,0.0,0.0,0.0,-6.5638,-6.5871,-6.5596,-6.4985,-6.4512,-6.4336,-6.5765,-6.725,-6.8114,-6.8995,-6.9337,-6.9124,-6.8355,-6.7598,-6.7024,-6.5608,-6.5,-6.5909,-6.6208,-6.6541,-6.673,-6.7175,-6.7036,-6.6536,-6.6294,-6.5587,-6.4527,-6.3171,-6.1451,-5.9416,-5.8327,-5.7065,-5.5314,-5.576,-5.5505,-5.4875,0.0,0.0,0.0,0.0,-4.9615,-4.925,0.0,0.0,0.0,0.0,0.0,0.0,-3.2607,-3.2289,-3.2416,-3.3757,-3.5389,-3.6573,-3.6937,-3.8569,-3.9206,-3.8295,-3.755,-3.6379,-3.485,-3.43,-3.6035,-4.0404,-4.0602,-4.2332,-4.5782,-4.7194,-4.8828,-5.0765,-5.1857,-5.2986,-5.4218,-5.4369,-5.5322,-5.7096,-5.6429,-5.748,-5.957,-5.89,-5.9043,-5.9701,-5.9564,-5.8706,-5.7389,-5.6667,-5.5956,-5.5524,-5.684,-5.656,-5.5859,-5.7717,0.0,0.0,0.0,0.0,0.0,0.0,0.0,0.0,0.0,0.0,0.0,0.0,0.0,0.0,0.0,0.0,0.0,0.0,0.0,0.0,0.0,0.0,0.0,0.0,-6.8286,-6.937,-6.9214,-6.7254,-6.5932,-6.581,-6.6624,-6.7845,-6.9421,-6.9734,-7.0307,-7.1535,-6.9854,-6.9038,-6.9697,-6.7241,0.0,0.0,0.0,-6.7117,-6.678,-6.7898,-6.7941,-6.6536,-6.6485,-6.6617,-6.6499,-6.4722,-6.2734,-6.0698,-6.0278,-5.8169,-5.5393,-5.6497,-5.625,-5.5573,-5.5284,-5.443,-5.2815,-5.1927,-5.1436,-5.12,0.0,0.0,0.0,0.0,0.0,0.0,-3.2711,-3.3352,-3.3705,-3.3881,-3.5783,-3.6927,-3.6285,-3.7652,-3.8569,-3.8228,-3.7832,-3.7446,-3.7302,-3.7171,-3.822,-4.0878,-4.3502,-4.5799,-4.7749,-4.9538,-5.1267,-5.2792,-5.3056,-5.4216,-5.6208,-5.5555,-5.6727,-5.9521,-5.8518,-5.9411,-6.1576,-6.0757,-6.1163,-6.2165,-6.0695,-5.9734,-5.9093,-5.9544,-5.9655,-5.9844,-6.0551,-6.0837,-6.0605,-5.9582,-5.9411,-5.9756,-6.0134,-6.0484,0.0,0.0,0.0,0.0,0.0,0.0,0.0,0.0,0.0,0.0,0.0,0.0,0.0,0.0,0.0,0.0,0.0,0.0,0.0,-6.7339,-6.8776,-7.0023,-7.0849,-7.1231,-7.0537,-6.8513,-6.8894,-6.9453,-6.9901,-7.0296,-7.1047,-7.2545,-7.196,-7.1841,-7.2451,-7.1981,-7.1578,-7.1403,-7.0324,-6.9713,-6.918,-6.803,-6.7212,-6.6536,-6.6868,0.0,-6.6546,-6.4683,-6.2836,-6.0656,-5.8686,-5.6875,-5.5383,-5.5601,-5.5904,-5.5877,-5.5911,-5.4314,-5.2332,-5.2499,-5.1928,-5.1071,0.0,0.0,0.0,0.0,0.0,0.0,-3.3791,-3.405,-3.4196,-3.4522,-3.6012,-3.678,-3.6247,-3.7269,-3.7783,-3.724,-3.6846,-3.7115,-3.8088,-3.87,-4.0278,-4.2941,-4.5075,-4.7151,-4.9251,-5.0725,-5.2478,-5.451,-5.4917,-5.6145,-5.8209,-5.7775,-5.888,-6.118,-6.0194,-6.0671,-6.2061,-6.1688,-6.2021,-6.2923,-6.2469,-6.2391,-6.2469,-6.1917,-6.2159,-6.3045,-6.3851,-6.3729,-6.3245,-6.2881,-6.2737,-6.2695,-6.2872,-6.2818,-6.2411,0.0,0.0,0.0,0.0,0.0,0.0,0.0,0.0,0.0,0.0,0.0,0.0,0.0,0.0,-6.5555,-6.5982,0.0,-6.7254,-6.8119,-6.9571,-7.1049,-7.2189,-7.3446,-7.3378,-7.1435,-7.1096,-7.1248,-7.1619,-7.161,-7.1908,-7.2749,-7.3094,-7.3249,-7.3252,-7.3253,-7.3031,-7.2832,-7.2379,-7.1505,-6.9911,-6.9333,-6.8296,-6.6857,-6.6958,-6.6964,-6.7339,-6.636,-6.4948,-6.3127,-6.1071,-5.906,-5.6971,-5.6115,-5.5829,-5.5791,-5.601,-5.46,-5.2406,-5.3035,-5.2324,-5.0808,0.0,0.0,0.0,0.0,0.0,0.0,0.0,-3.468,-3.4552,-3.5132,-3.5984,-3.6408,-3.6095,-3.6765,-3.7015,-3.6344,-3.6079,-3.6816,-3.8676,-4.012,-4.2211,-4.524,-4.6609,-4.8388,-5.0654,-5.1867,-5.3703,-5.6096,-5.6843,-5.8144,-5.9932,-5.9932,-6.0827,-6.2341,-6.1723,-6.2061,-6.3152,-6.3007,-6.341,-6.4006,-6.4727,-6.5284,-6.548,-6.4153,-6.4288,-6.5289,-6.6102,-6.541,-6.4262,-6.5749,-6.5312,-6.4491,-6.5387,-6.5187,-6.4315,-6.2226,-6.2768,0.0,0.0,0.0,0.0,0.0,0.0,0.0,0.0,-6.5255,-6.5544,-6.5876,-6.6598,-6.7233,-6.7288,-6.7874,-6.8531,-6.9178,-7.0714,-7.2338,-7.384,-7.4932,-7.5432,-7.468,-7.3304,-7.2714,-7.3427,-7.2988,-7.2747,-7.3153,-7.3848,-7.4246,-7.4028,-7.414,-7.4102,-7.4076,-7.4307,-7.3353,-7.1288,-7.0901,-6.9738,-6.7715,-6.7124,-6.7333,-6.8297,-6.8204,-6.7381,-6.5601,-6.3535,-6.1032,-5.8453,-5.7205,-5.6333,-5.5989,-5.6345,-5.5022,-5.3093,-5.3322,-5.2399,-5.0786,0.0,0.0,0.0,0.0,0.0,0.0,0.0,0.0,-3.5204,-3.5296,-3.5984,-3.6159,-3.543,-3.6001,-3.6425,-3.6459,-3.7143,-3.8442,-4.0531,-4.2155,-4.4172,-4.6838,-4.9345,-5.1021,-5.19,-5.3989,-5.5824,-5.7467,-5.829,-5.9529,-6.1114,-6.1114,-6.1869,-6.3165,-6.2946,-6.4152,-6.6582,-6.6336,-6.6727,-6.7337,-6.7209,-6.6758,-6.6291,-6.646,-6.6382,-6.6131,-6.6268,-6.4981,-6.3555,-6.5914,-6.5141,-6.3623,-6.5899,-6.7117,-6.7399,-6.5959,-6.6408,-6.6567,-6.2947,-6.1571,-6.1581,-6.3193,-6.3271,-6.4006,0.0,-6.8192,-6.7805,-6.9676,-6.9777,-6.9432,-6.9214,-6.9689,-7.0268,-7.087,-7.242,-7.4139,-7.5823,-7.6535,-7.7302,-7.8376,-7.5368,-7.3427,-7.408,-7.3222,-7.3327,-7.5069,-7.5301,-7.5583,-7.6435,-7.6972,-7.7505,-7.7979,-7.6598,-7.5737,-7.557,-7.2204,-7.0395,-6.966,-6.899,-6.8656,-6.8676,-6.878,-6.7906,-6.6202,-6.2557,-5.9699,-5.7781,-5.78,-5.7747,-5.7242,-5.7269,-5.6438,-5.4588,-5.3322,-5.2003,-5.0828,0.0,0.0,0.0,0.0,0.0,0.0,0.0,0.0,0.0,-3.5248,-3.5533,-3.5628,-3.535,-3.5093,-3.5233,-3.5723,-3.6186,-3.7755,-4.0898,-4.2903,-4.5343,-4.8482,-5.0886,-5.2639,-5.3653,-5.5553,-5.7053,-5.8144,-5.9184,-6.0358,-6.1465,-6.2148,-6.2965,-6.3989,-6.417,-6.5096,-6.65,-6.6894,-6.7337,-6.7929,-6.8573,-6.833,-6.7728,-6.8131,-6.766,-6.647,-6.4985,-6.3892,0.0,-6.3996,-6.3807,-6.3684,-6.65,-6.6596,-6.5723,-6.6601,-6.565,-6.4388,-6.4584,-6.4312,-6.4463,-6.6519,-6.71,-6.7948,-7.0324,-7.0876,-7.1064,-7.1392,-7.1745,-7.1688,-7.0566,-7.1228,-7.1855,-7.1583,-7.3243,-7.4834,-7.6085,-7.6662,-7.7362,-7.8373,-7.617,-7.4861,-7.5639,-7.5149,-7.4747,-7.4837,-7.565,-7.6114,-7.5988,-7.6971,-7.7626,-7.7792,-7.7662,-7.6992,-7.5901,-7.4283,-7.2573,-7.0426,-6.9782,-6.9472,-6.9243,-6.9249,-6.8589,-6.7103,-6.3632,-6.1221,-5.9408,-5.7916,-5.745,-5.744,-5.7491,-5.7041,-5.5927,-5.4414,-5.2912,-5.1593,0.0,0.0,0.0,0.0,0.0,0.0,0.0,0.0,0.0,0.0,-3.5324,-3.5215,-3.5105,-3.4434,-3.4144,-3.4604,-3.5034,-3.6755,-4.0389,-4.3027,-4.6101,-4.9692,-5.2303,-5.4126,-5.5204,-5.6986,-5.8356,-5.9095,-6.0358,-6.1675,-6.2995,-6.3742,-6.4766,-6.586,-6.6186,-6.685,-6.7496,-6.8042,-6.8641,-6.9238,-6.9712,-6.9536,-6.8782,-6.8773,-6.735,-6.5218,-6.3834,-6.2771,-6.2046,-6.1717,-6.1411,-6.1734,-6.4797,-6.4595,-6.3615,-6.5582,-6.4073,-6.247,-6.5794,-6.6418,-6.674,-6.8897,-7.0021,-7.0891,-7.1637,-7.2504,-7.3171,-7.2843,-7.3343,-7.3533,-7.2287,-7.267,-7.2967,-7.2556,-7.3855,-7.5016,-7.5965,-7.6535,-7.6983,-7.7615,-7.6619,-7.6174,-7.6916,-7.6223,-7.5496,-7.5305,-7.5798,-7.6056,-7.5766,-7.666,-7.7222,-7.7234,-7.8022,-7.7855,-7.6345,-7.5956,-7.4662,-7.2402,-7.1011,-7.0447,-7.0316,-6.9757,-6.8919,-6.7476,-6.5135,-6.3212,-6.1807,-5.9811,-5.9118,-5.9036,-5.8871,-5.8253,-5.7308,-5.6087,-5.4414,-5.2892,0.0,0.0,0.0,0.0,0.0,0.0,0.0,0.0,0.0,0.0,0.0,0.0,0.0,-3.4064,-3.3685,-3.2934,-3.3964,-3.597,-3.9144,-4.2857,-4.6674,-5.0472,-5.3558,-5.5593,-5.6361,-5.8467,-6.0,-6.0897,-6.223,-6.4182,-6.6488,-6.6412,-6.7516,-6.9436,-6.9436,-7.0188,-7.1325,-7.1394,-7.1808,-7.236,-7.1157,-7.0038,-6.9049,-6.7834,-6.4952,-6.1693,-6.31,-6.1686,-5.897,-5.92,-5.7715,-5.6323,-5.9553,-6.119,-6.1969,-6.2506,-6.2214,-6.2523,-6.6551,-6.7004,-6.6754,-6.8793,-7.0259,-7.1313,-7.185,-7.2341,-7.3194,-7.4533,-7.4671,-7.4473,-7.4473,-7.3947,-7.3706,-7.4309,-7.4349,-7.4797,-7.6196,-7.6212,-7.6288,-7.692,-7.6983,-7.6994,-7.7352,-7.5489,-7.495,-7.6847,-7.6066,-7.5824,-7.6404,-7.674,-7.7126,-7.7702,-7.7864,-7.8015,-7.8374,-7.7009,-7.6286,-7.6382,-7.2979,-7.1704,-7.2292,-7.0502,-6.8574,-6.6583,-6.6485,-6.5709,-6.4737,-6.4648,-6.3635,-6.2183,-6.2348,-6.0814,-5.8498,-5.7989,-5.6815,-5.5204,0.0,0.0,0.0,0.0,0.0,0.0,0.0,0.0,0.0,0.0,0.0,0.0,0.0,0.0,0.0,0.0,-3.2873,-3.4585,-3.8372,-4.2101,-4.5396,-4.8382,-5.3439,-5.6082,-5.5704,-5.838,-6.0264,-6.1295,-6.1948,-6.3345,-6.5583,-6.6139,-6.7104,-6.835,-6.9168,-7.0049,-7.0774,-7.0774,-7.0912,-7.105,-7.0177,-6.7711,-6.4317,-6.4321,-6.1325,-5.708,0.0,-5.5733,-5.5074,-5.4984,-5.4796,-5.5294,-5.8963,-5.9211,-5.864,-6.0664,-6.3525,-6.6555,-6.9372,-6.9943,-7.0307,-7.2683,-7.3494,-7.3722,-7.4086,-7.4559,-7.51,-7.5383,-7.4344,-7.3817,-7.4787,-7.3596,-7.2944,-7.4463,-7.5073,-7.5423,-7.6085,-7.6212,-7.6275,-7.6288,-7.5908,-7.604,-7.6994,-7.666,-7.6818,-7.8127,-7.7169,-7.6886,-7.7593,-7.6937,-7.6797,-7.7126,-7.7604,-7.7763,-7.7751,-7.7661,-7.7343,-7.6607,-7.5248,-7.4664,-7.4493,-7.3221,-7.2016,-7.0888,-6.8052,-6.6678,-6.6298,-6.4952,-6.4254,-6.3937,-6.3011,-6.1754,-6.0653,-5.9,-5.8095,-5.7394,0.0,0.0,0.0,0.0,0.0,0.0,0.0,0.0,0.0,0.0,0.0,0.0,0.0,0.0,0.0,0.0,0.0,-3.4027,-3.8048,-4.1174,-4.394,-4.6298,-5.0859,-5.3194,-5.2678,-5.5001,-5.6759,-5.7896,-5.9223,-6.1002,-6.3222,-6.4883,-6.6415,-6.781,-6.8914,-6.9593,-6.9852,-6.9723,-6.9262,-6.8583,-6.733,-6.4318,-6.0538,-6.0262,-5.7262,0.0,-5.1785,-5.1113,-5.0844,-5.1227,-5.1784,-5.3163,-5.7776,-5.8777,-5.8755,-6.1592,-6.4237,-6.7028,-7.0714,-7.1943,-7.2771,-7.5262,-7.5671,-7.5344,-7.5138,-7.5504,-7.5773,-7.5398,-7.4522,-7.4205,-7.5451,-7.4111,-7.34,-7.5161,-7.5506,-7.5716,-7.6027,-7.6113,-7.6069,-7.5831,-7.5522,-7.5719,-7.7099,-7.7622,-7.817,-7.907,-7.8086,-7.8003,-7.9058,-7.8152,-7.771,-7.7986,-7.7914,-7.7973,-7.8049,-7.8289,-7.7942,-7.6722,-7.6673,-7.628,-7.5212,-7.4104,-7.3276,-7.2547,-6.94,-6.8176,-6.8176,-6.7009,-6.6202,-6.6008,-6.5034,-6.341,-6.1526,-6.0375,-5.9352,-5.8556,0.0,0.0,0.0,0.0,0.0,0.0,0.0,0.0,0.0,0.0,0.0,0.0,0.0,0.0,0.0,0.0,0.0,0.0,-3.7867,-4.0102,-4.2258,-4.4304,-4.6394,-4.7506,-4.762,-4.9023,-5.0257,-5.126,-5.4317,-5.7207,-5.9752,-6.2611,-6.5093,-6.7265,-6.8106,-6.8527,-6.8456,-6.7901,-6.6701,-6.5073,-6.2724,-6.0136,-5.7492,-5.597,-5.295,-4.9414,-4.9449,-4.8077,-4.6516,-4.8161,-4.9023,-5.0392,-5.6319,-5.9773,-6.2203,-6.5021,-6.4709,-6.4741,-7.0868,-7.315,-7.4199,-7.6349,-7.6694,-7.6227,-7.5101,-7.5091,-7.5231,-7.4636,-7.4707,-7.5228,-7.6051,-7.5116,-7.4653,-7.6183,-7.5801,-7.5569,-7.5917,-7.5845,-7.5783,-7.5496,-7.5895,-7.6408,-7.7468,-7.8104,-7.8879,-7.953,-7.8924,-7.9239,-8.0832,-7.992,-7.9587,-8.0021,-7.8741,-7.8488,-7.9249,-7.8838,-7.8196,-7.7397,-7.7496,-7.6738,-7.4986,-7.3343,-7.237,-7.1833,-7.0255,-6.9889,-7.0255,-7.0253,-6.9362,-6.8176,-6.8008,-6.5351,-6.1637,-6.1896,-6.08,-5.8902,0.0,0.0,0.0,0.0,0.0,0.0,0.0,0.0,0.0,0.0,0.0,0.0,0.0,0.0,0.0,0.0,0.0,0.0,-3.6888,-3.8363,-3.992,-4.1782,-4.4535,-4.5772,-4.5224,-4.7021,-4.8835,-5.0566,-5.114,-5.2878,-5.5696,-5.6183,-5.6975,-5.8142,-5.9506,-6.0095,-5.9982,-6.0469,-6.0065,-5.9006,-5.7906,-5.5027,-5.1559,-5.1477,-4.9113,-4.5989,-4.621,-4.5911,-4.5696,-4.7176,-5.0529,-5.4799,-5.9412,-6.2155,-6.431,-6.8084,-6.9821,-7.1339,-7.5271,-7.6949,-7.7646,-7.8248,-7.8306,-7.814,-7.7422,-7.7089,-7.6279,-7.3751,-7.1942,-7.0985,-7.1505,-7.0736,-7.0832,-7.3413,-7.477,-7.544,-7.5502,-7.6155,-7.6742,-7.7015,-7.7086,-7.7468,-7.8531,-7.8786,-7.9622,-8.1348,-8.0511,-8.0542,-8.169,-8.1231,-8.0607,-7.9956,-7.9724,-7.9329,-7.8611,-7.9213,-7.943,-7.9281,-7.9739,-7.9521,-7.8678,-7.7264,-7.5731,-7.4312,-7.2904,-7.1449,-7.0244,-7.0619,-7.0355,-6.9521,-6.8136,-6.6953,-6.5813,-6.2578,-6.1601,-6.157,0.0,0.0,0.0,0.0,0.0,0.0,0.0,0.0,0.0,0.0,0.0,0.0,0.0,0.0,0.0,0.0,0.0,0.0,0.0,-3.8178,-3.8626,-3.9656,-4.0901,-4.1343,-4.0894,-4.1964,-4.3235,-4.4687,-4.592,-4.7604,-4.9562,-5.1115,-5.2253,-5.3026,-5.4665,-5.5266,-5.5238,-5.5772,-5.5366,0.0,0.0,-5.0701,-4.7917,-4.7708,-4.6411,-4.4726,-4.49,-4.6544,-4.9004,-5.1262,-5.5969,-6.1339,-6.3775,-6.5813,-6.7981,-7.1445,-7.2656,-7.3654,-7.6957,-7.8341,-7.8906,-7.8987,-7.8987,-7.8271,-7.5653,-7.5536,-7.4633,-7.0452,-6.8958,-6.8862,-7.0273,-7.0092,-7.0652,-7.3772,-7.5258,-7.6128,-7.6483,-7.6911,-7.7297,-7.7883,-7.8084,-7.8467,-7.9331,-8.003,-8.0932,-8.2213,-8.1854,-8.1916,-8.3157,-8.2609,-8.2096,-8.1726,-8.1274,-8.0554,-7.98,-8.0532,-8.0614,-8.0259,-8.0277,-8.0291,-8.0078,-7.8792,-7.7381,-7.6077,-7.4981,-7.3592,-7.2445,-7.206,-7.1807,-7.1293,-6.9406,-6.8228,-6.7735,-6.5437,-6.399,-6.3195,0.0,0.0,0.0,0.0,0.0,0.0,0.0,0.0,0.0,0.0,0.0,0.0,0.0,0.0,0.0,0.0,0.0,0.0,0.0,0.0,-3.795,-3.7962,-3.693,-3.6335,-3.638,-3.6247,-3.6539,-3.7243,-4.0296,-4.2187,-4.3045,-4.6572,-4.8677,-4.9474,-5.085,-5.1647,-5.1837,-5.2045,-5.1381,-4.9935,-4.8527,-4.7111,-4.573,0.0,-4.47,-4.4751,-4.4777,-4.8332,-5.346,-5.7204,-6.2457,-6.7652,-6.8439,-7.0002,-7.2068,-7.4399,-7.435,-7.4011,-7.6887,-7.8282,-7.8776,-7.8867,-7.8857,-7.7444,-7.2442,-7.2298,-7.172,-6.6416,-6.6047,-6.7378,-6.9946,-7.0239,-7.1282,-7.4841,-7.5764,-7.6575,-7.7944,-7.7773,-7.7945,-7.903,-7.9258,-7.9644,-8.0483,-8.1404,-8.2182,-8.2737,-8.2781,-8.3448,-8.485,-8.4142,-8.3865,-8.4244,-8.2915,-8.2092,-8.199,-8.2139,-8.1876,-8.1107,-8.0685,-8.0488,-8.0291,-7.9241,-7.8228,-7.749,-7.6575,-7.588,-7.5302,-7.3834,-7.3154,-7.2872,-7.1039,-6.9637,-6.8519,-6.8559,-6.7028,-6.4933,0.0,0.0,0.0,0.0,0.0,0.0,0.0,0.0,0.0,0.0,-3.6112,0.0,0.0,0.0,0.0,0.0,0.0,0.0,0.0,0.0,0.0,-3.7179,-3.6189,-3.5559,-3.5595,-3.5477,-3.578,-3.6587,-3.7695,-3.8659,-3.9467,-4.0979,-4.2058,-4.2784,-4.3031,-4.396,-4.5237,-4.5081,-4.5275,-4.5589,-4.529,-4.5031,-4.4794,-4.4643,-4.4621,0.0,-4.4827,-4.8108,-5.3121,-5.8116,-6.3166,-6.8031,-7.1016,-7.27,-7.3764,-7.4949,-7.5324,-7.556,-7.6753,-7.7594,-7.8018,-7.7223,-7.7656,-7.7043,-7.2724,-7.1831,-7.047,-6.5389,-6.3397,-6.3163,-6.5042,-6.4705,-6.5887,-7.092,-7.2306,-7.4024,-7.7517,-7.8497,-7.9833,-8.2674,-8.1967,-8.185,-8.3202,-8.2243,-8.2151,-8.3388,-8.3739,-8.4467,-8.5632,-8.6016,-8.5811,-8.4656,-8.3488,-8.2949,-8.3106,-8.3335,-8.3461,-8.3281,-8.3367,-8.2658,-8.1156,-8.125,-8.0178,-7.7732,-7.7226,-7.6375,-7.5115,-7.4418,-7.3806,-7.3395,-7.1894,-7.1615,-7.1634,-6.8977,-6.819,-6.8118,0.0,0.0,0.0,0.0,0.0,0.0,0.0,0.0,0.0,-3.8694,-3.8141,-3.7799,0.0,0.0,0.0,0.0,0.0,0.0,0.0,0.0,0.0,-3.7035,-3.6029,-3.5596,-3.5584,-3.5378,-3.5691,-3.6535,0.0,-3.7928,-3.8766,-3.9578,-4.0371,-4.113,-4.1449,-4.2308,-4.3517,-4.3815,-4.4185,-4.4533,-4.4533,-4.4533,-4.4589,-4.4589,-4.4616,0.0,-4.4726,-4.7838,-5.2419,-5.5423,-6.0952,-6.733,-7.1729,-7.297,-7.3027,-7.4385,-7.4971,-7.5484,-7.6766,-7.7256,-7.739,-7.6879,-7.7178,-7.6,-6.9949,-6.9113,-6.7826,-6.1281,-5.9744,-6.0131,-6.1958,-6.3676,-6.6044,-6.9809,-7.2522,-7.5253,-7.8321,-7.899,-8.0521,-8.3932,-8.3441,-8.3553,-8.5248,-8.4711,-8.4456,-8.5116,-8.5757,-8.5935,-8.576,-8.6403,-8.6203,-8.5025,-8.4667,-8.448,-8.4258,-8.428,-8.4069,-8.3847,-8.4001,-8.3582,-8.2882,-8.3214,-8.2736,-8.1504,-8.1026,-8.0641,-8.0304,-7.7453,-7.6616,-7.7063,-7.3989,-7.3486,-7.4042,-7.1392,-7.0784,-7.068,0.0,0.0,0.0,0.0,0.0,0.0,0.0,-3.7916,-3.8198,-4.0169,-4.0265,-4.0265,-4.0364,-3.9402,-3.9044,0.0,0.0,0.0,0.0,0.0,0.0,0.0,0.0,-3.5676,-3.5665,0.0,0.0,-3.6713,-3.7348,0.0,0.0,0.0,0.0,0.0,-4.167,-4.2484,-4.3769,-4.4018,-4.4213,0.0,0.0,-4.4533,-4.4533,0.0,0.0,0.0,0.0,-4.7174,-5.0754,-5.2638,-5.7584,-6.3893,-6.9077,-7.0878,-7.1296,-7.2717,-7.3363,-7.4152,-7.6075,-7.6707,-7.6689,-7.6547,-7.6695,-7.4939,-6.7121,-6.6333,-6.517,-5.7839,-5.6823,-5.7853,-6.019,-6.3046,-6.6036,-6.9309,-7.2003,-7.5095,-7.8974,-7.9092,-8.0405,-8.479,-8.448,-8.4831,-8.7035,-8.6928,-8.6696,-8.6721,-8.7322,-8.7274,-8.5953,-8.6275,-8.6078,-8.5501,-8.562,-8.5524,-8.5196,-8.5104,-8.4709,-8.4337,-8.4497,-8.4569,-8.4336,-8.4545,-8.4528,-8.4437,-8.3672,-8.3906,-8.439,-8.0449,-7.9502,-8.0211,-7.6841,-7.5627,-7.5405,-7.4182,-7.3514,-7.2961,0.0,0.0,0.0,0.0,0.0,0.0,0.0,-3.8376,-3.9451,-4.2788,-4.258,-4.2354,-4.3133,-4.1646,-4.0719,0.0,0.0,0.0,0.0,0.0,0.0,0.0,0.0,0.0,0.0,0.0,0.0,-3.6713,-3.7516,0.0,0.0,0.0,0.0,0.0,0.0,-4.2202,-4.4934,-4.3113,0.0,0.0,0.0,0.0,0.0,0.0,0.0,0.0,0.0,-4.545,-4.7116,-5.2153,-5.4004,-5.5192,-6.0456,-6.5235,-6.8966,-6.8981,-6.9877,-7.1295,-7.3934,-7.544,-7.615,-7.5214,-7.5569,-7.4083,-6.6323,-6.5087,-6.3915,-5.8055,-5.6137,-5.6652,-6.0196,-5.9869,-6.124,-6.8182,-6.7294,-6.8984,-7.7979,-7.791,-7.9495,-8.6332,-8.6029,-8.6166,-8.8499,-8.7332,-8.6568,-8.7064,-8.7462,-8.7339,-8.6401,-8.6338,-8.6211,-8.5825,-8.5501,-8.5492,-8.5793,-8.6021,-8.6263,-8.6189,-8.6964,-8.6359,-8.435,-8.4785,-8.4032,-8.2546,-8.186,-8.1977,-8.2448,-8.2115,-8.0999,-7.9499,-8.0209,-7.846,-7.5771,-7.6287,-7.5627,-7.4634,0.0,0.0,0.0,0.0,0.0,0.0,0.0,-3.8758,-3.9607,-4.3091,-4.3272,-4.321,-4.353,-4.2999,-4.2156,0.0,0.0,0.0,0.0,0.0,0.0,0.0,0.0,0.0,0.0,0.0,-3.7046,-3.8389,-3.8685,0.0,0.0,0.0,0.0,0.0,0.0,-4.2757,-4.4249,-4.3961,0.0,0.0,0.0,0.0,0.0,0.0,0.0,0.0,0.0,0.0,-4.6196,-4.8733,-5.1376,-5.36,-5.4367,-5.7618,-6.2054,-6.6655,-6.8342,-6.9767,-7.4271,-7.5796,-7.5944,-7.5442,-7.5585,-7.3787,-6.5916,-6.4881,-6.3472,-5.5989,-5.4765,-5.5249,-5.6271,-5.9332,-6.2292,-6.4063,-6.8111,-7.2242,-7.5867,-7.7523,-8.033,-8.5718,-8.5854,-8.683,-9.0024,-8.8822,-8.8015,-8.8038,-8.8295,-8.8062,-8.7106,-8.7412,-8.7102,-8.5815,-8.6846,-8.6726,-8.5228,-8.7175,-8.7428,-8.5768,-8.7644,-8.7815,-8.6448,-8.5905,-8.5881,-8.6113,-8.4246,-8.4064,-8.5183,-8.3478,-8.2694,-8.2524,-8.1154,-8.0182,-7.9365,-7.8079,-7.815,-7.8551,0.0,0.0,0.0,0.0,0.0,0.0,-3.8999,-3.8992,-3.984,-4.278,-4.3419,-4.3592,-4.36,-4.3389,-4.2708,-4.1557,0.0,0.0,0.0,0.0,0.0,0.0,0.0,0.0,0.0,0.0,-3.7986,-3.9444,-3.9456,-3.9932,0.0,0.0,-4.1022,-4.1899,0.0,0.0,0.0,0.0,0.0,0.0,0.0,0.0,0.0,0.0,0.0,0.0,0.0,0.0,0.0,0.0,0.0,-5.2086,-5.0691,-5.2128,-5.566,-6.2193,-6.5347,-6.7746,-7.2636,-7.4977,-7.6003,-7.5724,-7.4849,-7.2128,-6.5411,-6.3721,-6.158,-5.4503,-5.37,-5.4202,-5.3715,-5.7846,-6.1593,-6.2204,-6.6678,-7.1267,-7.4958,-7.6087,-7.8217,-8.2892,-8.3306,-8.4798,-8.8562,-8.9194,-8.9267,-8.9053,-8.8828,-8.8515,-8.7732,-8.801,-8.7633,-8.643,-8.7718,-8.7739,-8.5823,-8.8274,-8.8343,-8.6518,-8.8468,-8.9048,-8.8243,-8.7698,-8.7854,-8.8598,-8.6752,-8.6587,-8.7373,-8.5623,-8.4961,-8.5035,-8.3066,-8.2379,-8.2467,-8.0496,-8.0852,-8.2019,0.0,0.0,0.0,0.0,0.0,0.0,0.0,-3.9155,-4.0307,-4.2097,-4.3039,-4.3583,-4.3575,-4.2821,-4.2291,-4.2284,0.0,0.0,0.0,0.0,0.0,0.0,0.0,0.0,0.0,0.0,-3.8581,-3.9406,-3.9444,-3.9932,-4.0771,-4.0771,-4.126,-4.2059,0.0,0.0,0.0,0.0,0.0,0.0,0.0,0.0,0.0,0.0,0.0,0.0,0.0,0.0,0.0,0.0,0.0,0.0,0.0,-5.0087,-5.0795,-5.4563,-5.9799,-6.5004,-6.7668,-7.2263,-7.6135,-7.5724,-7.2689,-6.8676,-6.4758,-6.1014,-5.7537,-5.4087,-5.3429,-5.3504,-5.3779,-5.4587,-5.7381,-6.4149,-6.1155,-6.2598,-7.598,-7.3076,-7.1706,-7.7407,-7.7933,-7.9303,-8.3212,-8.7601,-9.0195,-8.9809,-8.8871,-8.8158,-8.7846,-8.7919,-8.784,-8.7699,-8.7765,-8.7972,-8.8447,-8.8977,-8.9371,-8.9371,-9.0157,-9.0098,-8.938,-8.9773,-8.9249,-8.8443,-8.8782,-8.8648,-8.8507,-8.901,-8.8026,-8.6211,-8.6617,-8.5648,-8.3981,-8.3522,-8.3706,-8.4542,0.0,0.0,0.0,0.0,0.0,0.0,0.0,-3.8312,-3.9473,-4.1171,-4.2183,-4.2969,-4.3522,-4.2821,-4.2276,-4.2291,0.0,0.0,0.0,0.0,0.0,0.0,0.0,0.0,0.0,0.0,-4.0372,-4.1183,-4.0681,-4.0539,-4.0771,-4.0746,-4.09,-4.1132,-4.1401,-4.1748,0.0,0.0,0.0,0.0,0.0,0.0,-4.5659,0.0,0.0,0.0,0.0,0.0,0.0,0.0,0.0,0.0,0.0,0.0,0.0,-5.1254,-5.571,-6.098,-6.4316,-6.7412,-6.9415,-6.7788,-6.6972,-6.5234,-6.0414,-5.8843,-5.7238,-5.2685,-5.2318,-5.2647,-5.2173,-5.4362,-5.7505,-6.1426,-6.1555,-6.4385,-7.3387,-7.2539,-7.3397,-7.9756,-8.2984,-8.5347,-8.6513,-8.8728,-8.9963,-8.953,-8.945,-8.9339,-8.8839,-8.8502,-8.8096,-8.7477,-8.9663,-9.0036,-8.8273,-9.1155,-9.1368,-8.9025,-9.0776,-9.0982,-9.0143,-8.9698,-8.9833,-9.0162,-8.9253,-8.8796,-8.8782,-8.9039,-8.8578,-8.7725,-8.7398,-8.7136,-8.6936,-8.6483,-8.6737,-8.7517,0.0,0.0,0.0,0.0,0.0,0.0,0.0,-3.7936,-3.8864,-3.9948,-4.1101,-4.2113,-4.2984,-4.2346,-4.1941,-4.2268,0.0,0.0,0.0,0.0,0.0,0.0,0.0,0.0,-4.1253,-4.0963,-4.1132,-4.1928,-4.1196,-4.0759,-4.0759,-4.0733,-4.072,-4.072,-4.1233,-4.1393,0.0,0.0,0.0,0.0,0.0,0.0,-4.623,0.0,0.0,0.0,0.0,0.0,0.0,0.0,0.0,0.0,0.0,0.0,0.0,0.0,-5.2977,-5.6855,-6.0224,-6.3427,-6.5351,-6.3896,-6.2862,-6.1392,-5.7958,-5.6419,-5.5267,-5.3614,-5.3693,-5.4328,-5.5272,-5.6154,-5.8264,-6.2929,-6.1015,-6.2553,-7.2792,-7.159,-7.2097,-7.8717,-8.2939,-8.5471,-8.5399,-8.8013,-8.9499,-8.9236,-8.9477,-8.9436,-8.9056,-8.8474,-8.795,-8.7551,-9.0086,-9.0799,-8.9651,-9.2063,-9.2334,-9.0152,-9.1952,-9.2525,-9.175,-9.1901,-9.2237,-9.264,-9.181,-9.127,0.0,-9.1114,-9.0988,-9.0543,-8.944,-8.9886,-9.0916,-8.9874,-9.0577,-9.2181,0.0,0.0,0.0,0.0,0.0,0.0,0.0,0.0,0.0,0.0,-4.0025,-4.1334,-4.2128,-4.1474,-4.1293,0.0,0.0,0.0,0.0,0.0,0.0,0.0,0.0,0.0,-4.2202,-4.1325,-4.1274,-4.1962,-4.1156,-4.072,-4.072,-4.0706,-4.0706,-4.0706,-4.0636,-4.0622,0.0,0.0,0.0,0.0,-4.4669,-4.5731,0.0,0.0,0.0,0.0,0.0,0.0,0.0,0.0,0.0,0.0,0.0,0.0,0.0,0.0,0.0,0.0,0.0,-5.9753,-6.3162,-6.2671,-5.9937,-5.7234,-5.683,-5.3841,0.0,-5.5882,-5.6346,-5.7228,-6.0856,-5.8846,-5.9153,-6.6896,-5.9557,-5.8231,-7.3554,-7.076,-6.9453,-7.5754,-7.9335,-8.1329,-8.1229,-8.5846,-8.8923,-8.8915,-8.8814,-8.8633,-8.8596,-8.7796,-8.7554,-8.8068,-8.9328,-9.0646,-9.2151,-9.2288,-9.2356,-9.2356,-9.3635,-9.4198,-9.4129,-9.5537,-9.5885,-9.56,-9.567,-9.5413,-9.4928,-9.4859,-9.4635,-9.4409,-9.2721,-9.3475,-9.5353,-9.3469,-9.4968,-9.8021,0.0,0.0,0.0,0.0,0.0,0.0,0.0,0.0,0.0,0.0,-4.033,-4.1093,-4.1256,-4.1155,-4.106,0.0,0.0,0.0,0.0,0.0,0.0,0.0,0.0,0.0,-4.3995,-4.3118,-4.2742,-4.2857,-4.1359,-4.0602,-4.0602,-4.0651,-4.0636,-4.0636,-4.0592,-4.087,0.0,0.0,0.0,0.0,-4.5783,-4.6609,0.0,0.0,0.0,0.0,-4.9086,-4.9663,0.0,0.0,0.0,0.0,0.0,0.0,0.0,0.0,-5.0979,-5.1382,-5.2127,0.0,-5.5633,-5.4043,-5.3589,-5.3382,0.0,-5.1803,-5.1424,-5.2298,-5.2423,-5.2624,-5.352,-5.5267,-5.7412,-6.007,-5.7735,-5.9484,-7.0629,-7.5624,-7.8835,-8.0801,-8.315,-8.4463,-8.4019,-8.5254,-8.6513,-8.7572,-8.6871,-8.7273,-8.9228,-8.776,-8.8029,-9.051,-9.0301,-9.0562,-9.175,-9.2859,-9.3624,-9.4042,-9.442,-9.4942,-9.5296,-9.5949,-9.6269,-9.6274,-9.6415,-9.6098,-9.5413,-9.5343,-9.5383,-9.5492,-9.5106,-9.5537,-9.6414,-9.7106,-9.7764,-9.8661,0.0,0.0,0.0,0.0,0.0,0.0,0.0,0.0,0.0,0.0,0.0,0.0,0.0,0.0,0.0,0.0,0.0,0.0,0.0,0.0,0.0,0.0,0.0,-4.4323,-4.4615,-4.335,-4.3051,-4.3721,-4.1639,-4.0791,-4.1176,-4.0776,-4.0607,-4.0607,-4.0977,-4.1639,0.0,0.0,0.0,-4.5009,-4.6394,0.0,0.0,0.0,0.0,0.0,-4.9336,-4.9874,0.0,-5.0545,-5.0566,-5.0586,0.0,0.0,0.0,0.0,-5.072,-5.0756,-5.0773,-5.157,-5.2113,-5.109,-5.1231,-5.1629,-5.1178,-5.1101,-5.2113,-5.5633,-5.4862,-5.459,-5.8182,-5.9224,-6.0121,-6.1956,-6.1141,-6.3074,-7.1012,-7.7488,-8.1952,-8.3285,-8.4824,-8.5845,-8.5844,-8.65,-8.7068,-8.7498,-8.7552,-8.8194,-8.9492,-8.8469,-8.8841,-9.103,-9.1015,-9.1387,-9.221,-9.3179,-9.3729,-9.3898,-9.4858,-9.564,-9.6494,-9.7229,-9.7895,-9.861,-9.8515,-9.8253,-9.7892,-9.7794,-9.7696,-9.7598,-9.7918,-9.8301,-9.8749,-10.0291,-10.1168,-10.211,0.0,0.0,0.0,0.0,0.0,0.0,0.0,0.0,0.0,0.0,0.0,0.0,0.0,0.0,0.0,0.0,0.0,0.0,0.0,0.0,0.0,0.0,-4.3899,-4.4167,-4.4783,-4.3195,-4.3051,-4.443,-4.2241,-4.1439,-4.2056,-4.1439,-4.1054,-4.0823,-4.1671,-4.2425,0.0,-4.3239,-4.4239,-4.5855,-4.6778,0.0,0.0,0.0,0.0,0.0,0.0,0.0,0.0,-5.044,-5.044,-5.0462,-5.0462,0.0,0.0,0.0,0.0,0.0,-5.0664,-5.1182,-5.1734,-5.1879,-5.1386,-5.1169,-5.1788,-5.1509,-5.3099,-6.0223,-5.8896,-5.8634,-6.588,-6.5502,-6.4709,-6.6486,-6.6332,-6.777,-7.2913,-7.8105,-8.2206,-8.4345,-8.5447,-8.6114,-8.6696,-8.7809,-8.8252,-8.7666,-8.8618,-8.9271,-8.9411,-8.9253,-8.9654,-9.09,-9.1703,-9.2351,-9.3155,-9.3434,-9.3598,-9.3598,-9.527,-9.6675,-9.773,-9.8771,-9.9995,-10.1213,-10.0808,-10.0724,-10.0662,-10.0578,-10.0324,-9.9977,-10.0589,-10.1002,-10.1464,-10.3126,-10.4391,-10.5701,0.0,0.0,0.0,0.0,0.0,0.0,0.0,0.0,0.0,0.0,0.0,0.0,0.0,0.0,0.0,0.0,0.0,0.0,0.0,0.0,0.0,-4.5608,-4.5608,-4.5664,-4.5673,-4.4757,-4.4302,-4.4369,-4.3981,-4.3487,-4.2948,-4.3487,-4.3025,-4.1623,-4.2563,-4.3008,-4.3162,-4.3855,-4.5086,-4.6778,-4.7625,0.0,0.0,0.0,0.0,0.0,0.0,0.0,0.0,-5.0329,-5.0374,-5.0462,-5.0396,0.0,0.0,0.0,0.0,0.0,-5.0504,-5.2953,-5.553,-5.5777,-5.3282,-5.1681,-5.5045,-5.3263,-5.218,-5.6697,-5.7134,-5.8157,-6.2666,-6.6253,-6.7466,-6.462,-6.8178,-7.2079,-7.4113,-7.9856,-8.4164,-8.4885,-8.6229,-8.6531,-8.5484,-8.5747,-8.6203,-8.6788,-8.6422,-8.7081,-8.9275,-8.8683,-8.9625,-9.2494,-9.2176,-9.2808,-9.4477,-9.4807,-9.5181,-9.5676,-9.7185,-9.8305,-9.9272,-10.0312,-10.1047,-10.155,-10.1702,-10.155,-10.1156,-10.1559,-10.1791,-10.1865,-10.2167,-10.2534,-10.3117,-10.5238,-10.5729,-10.546,0.0,0.0,0.0,0.0,0.0,0.0,0.0,0.0,0.0,0.0,0.0,0.0,0.0,0.0,0.0,0.0,0.0,0.0,0.0,0.0,-4.5997,-4.5997,-4.5997,-4.5986,-4.5941,-4.508,-4.478,-4.5186,-4.4614,-4.4085,-4.3778,-4.3701,-4.347,-4.3162,-4.3547,-4.4008,-4.447,-4.4855,-4.5683,-4.6896,0.0,0.0,0.0,0.0,0.0,0.0,0.0,0.0,0.0,0.0,-5.0329,-5.0352,-5.0329,0.0,0.0,0.0,0.0,0.0,-5.0462,-5.1829,-5.4231,-5.8625,-5.8328,-5.7493,-5.9453,-5.8489,-5.7698,-5.9557,-5.8209,-5.8131,-6.2557,-6.5221,-6.7992,-7.1613,-7.4039,-7.6245,-7.8329,-8.1194,-8.3529,-8.4595,-8.5657,-8.6249,-8.6016,-8.6934,-8.7542,-8.7394,-8.7468,-8.8059,-8.9233,-8.8888,-8.9776,-9.2048,-9.3,-9.3809,-9.4409,-9.6249,-9.6547,-9.5367,-9.7653,-9.8756,-9.8754,-10.046,-10.1499,-10.1794,-10.2241,-10.261,-10.2751,-10.2888,-10.3101,-10.3163,-10.3816,-10.3878,-10.4117,-10.6388,-10.7132,-10.7104,0.0,0.0,0.0,0.0,0.0,0.0,0.0,0.0,0.0,0.0,0.0,0.0,0.0,0.0,0.0,0.0,0.0,0.0,0.0,0.0,-4.5997,-4.5997,-4.5997,-4.5986,-4.5964,-4.5493,-4.5504,-4.6066,-4.5726,-4.5411,-4.5145,-4.4162,-4.3915,-4.4282,-4.4547,-4.4855,-4.5299,-4.5453,-4.605,-4.6839,0.0,0.0,0.0,0.0,0.0,0.0,0.0,0.0,0.0,0.0,0.0,0.0,0.0,0.0,0.0,-5.0329,-5.0994,-5.1582,-5.0703,-5.1782,-5.4383,-5.9602,-6.0861,-6.1424,-6.3465,-6.3226,-6.2769,-6.3726,-6.1705,-6.1134,-6.5618,-6.6862,-6.967,-7.705,-7.8406,-7.9364,-8.1837,-8.2341,-8.3084,-8.4717,-8.5521,-8.6189,-8.7007,-8.827,-8.8778,-8.8245,-8.8766,-8.9138,-8.9262,-8.956,-9.0379,-9.1678,-9.3587,-9.4594,-9.451,-9.6952,-9.7218,-9.5341,-9.8128,-9.915,-9.8693,-10.0711,-10.1817,-10.209,-10.2773,-10.3486,-10.3851,-10.4091,-10.4228,-10.4319,-10.5018,-10.533,-10.5605,-10.719,-10.8116,-10.8671,0.0,0.0,0.0,0.0,0.0,0.0,0.0,0.0,0.0,0.0,0.0,0.0,0.0,0.0,0.0,0.0,0.0,0.0,0.0,-4.5997,-4.5997,-4.5997,-4.5997,-4.5997,-4.5997,-4.6628,-4.7029,-4.7023,-4.8414,-4.8698,-4.778,-4.6145,-4.4974,-4.4268,-4.5127,-4.5051,-4.4345,-4.515,-4.5994,-4.6781,-4.7624,0.0,0.0,0.0,0.0,0.0,0.0,0.0,0.0,0.0,0.0,0.0,0.0,0.0,-5.0283,-5.0283,-5.2855,-5.4895,-5.128,-5.5624,-6.037,-5.7446,-5.673,-5.8722,-6.6144,-6.4969,-6.3372,-6.7127,-6.83,-6.9737,-7.3081,-7.4458,-7.501,-7.4665,-7.7531,-8.0542,-8.2363,0.0,-8.467,-8.6301,-8.6648,-8.7081,-8.7898,-8.8121,-8.8245,-8.8473,-8.8473,-8.8666,-8.9011,-9.0475,-9.1734,-9.2561,-9.3634,-9.4575,-9.5348,-9.5907,-9.6629,-9.7599,-9.9205,-10.0155,-10.0533,-10.1598,-10.2166,-10.2223,-10.3169,-10.3736,-10.3791,-10.466,-10.5125,-10.5206,-10.5581,-10.6873,-10.8447,-10.7748,-10.837,-10.963,0.0,0.0,0.0,0.0,0.0,0.0,0.0,0.0,0.0,0.0,0.0,0.0,0.0,0.0,0.0,0.0,0.0,0.0,0.0,-4.5997,-4.5997,-4.5997,-4.5997,-4.5997,-4.5997,-4.7338,-4.7986,-4.7959,-4.789,-4.7987,-4.8049,-4.632,-4.5303,-4.4996,-4.5303,-4.5285,-4.494,-4.5266,-4.563,-4.6051,-4.7409,-4.8077,0.0,0.0,0.0,0.0,0.0,0.0,0.0,0.0,-5.0283,-5.0283,-5.0283,-5.0283,-5.0283,-5.0283,-5.1356,-5.2196,-5.0718,-5.4192,-5.8509,-5.9559,-5.9828,-6.1271,-6.6896,-6.8926,-6.9529,-6.9164,-6.8941,-6.9355,-7.1002,-7.4544,-7.7279,-7.7578,-7.9297,-8.1169,-8.2742,-8.3261,-8.3854,-8.5028,-8.5683,-8.6473,-8.7533,-8.8055,-8.8592,-8.8972,-8.9027,-8.906,-8.9376,-9.0083,-9.0865,-9.1698,-9.3264,-9.4095,-9.3818,-9.6239,-9.7125,-9.6474,-9.8978,-9.9628,-9.8719,-10.1286,-10.2099,-10.1589,-10.2689,-10.3502,-10.4212,-10.4729,-10.5371,-10.5964,-10.6292,-10.7219,-10.8405,-10.856,-10.9227,-10.9808,0.0,0.0,0.0,0.0,0.0,0.0,0.0,0.0,0.0,0.0,0.0,0.0,0.0,0.0,0.0,0.0,0.0,0.0,-4.6017,-4.6007,-4.5997,-4.5997,-4.5997,-4.6152,-4.6385,-4.806,-4.88,-4.8464,-4.7735,-4.7447,-4.7702,-4.6148,-4.5554,-4.5784,-4.5477,-4.5534,-4.5744,-4.5534,-4.5418,-4.5531,-4.7193,-4.7859,0.0,0.0,0.0,0.0,0.0,0.0,0.0,0.0,-5.0259,-5.0259,-5.0259,-5.0259,-5.0259,-5.0259,-5.2044,-5.3688,-5.2501,-5.5868,-6.0109,-6.1617,-6.2824,-6.451,-6.7714,-7.0473,-7.2304,-7.1864,-7.1346,-7.086,-7.0413,-7.4425,-7.7877,-7.8054,-7.961,-8.14,-8.292,-8.3024,-8.3261,-8.4272,-8.5075,-8.6013,-8.713,-8.8068,-8.8711,-8.9074,-8.9327,-8.94,-8.9155,-9.0053,-9.0676,-9.0981,-9.3272,-9.4164,-9.3629,-9.6281,-9.7012,-9.5862,-9.8255,-9.8944,-9.8171,-10.0604,-10.1443,-10.1241,-10.231,-10.3333,-10.4308,-10.4789,-10.5601,-10.6593,-10.6774,-10.751,-10.8433,-10.8976,-10.937,-10.963,0.0,0.0,0.0,0.0,0.0,0.0,0.0,0.0,0.0,0.0,0.0,0.0,0.0,0.0,0.0,0.0,0.0,0.0,-4.6115,-4.6017,-4.5997,-4.5997,-4.5997,-4.6385,-4.724,-4.9027,-4.9458,-4.8542,-4.8276,-4.7679,-4.676,-4.5841,-4.5801,-4.6462,-4.5744,-4.5801,-4.6462,-4.5684,-4.5378,-4.5468,-4.715,-4.7837,-4.799,0.0,0.0,0.0,0.0,0.0,0.0,0.0,-5.0236,-5.0188,-5.0188,-5.0188,-5.0188,-5.0264,-5.5761,-6.1016,-5.7138,-6.1695,-6.6656,-6.2821,-6.4762,-6.7883,-6.884,-6.9109,-7.0458,-7.5357,-7.6504,-7.5735,-7.2848,-7.5223,-7.6976,-7.488,-7.7979,-8.1211,-8.2846,-8.3024,-8.32,-8.4151,-8.5014,-8.6013,-8.7188,-8.8223,-8.8684,-8.8491,-8.9459,-8.9457,-8.8068,-9.0606,-9.1721,-9.0954,-9.3633,-9.5084,-9.5084,-9.5854,-9.6204,-9.6095,-9.7129,-9.8173,-9.937,-9.9662,-10.0164,-10.1043,-10.2213,-10.3097,-10.4022,-10.4905,-10.6034,-10.7009,-10.7086,-10.7921,-10.8863,-10.8838,-10.8941,-10.9156,0.0,0.0,0.0,0.0,0.0,0.0,0.0,0.0,0.0,0.0,0.0,0.0,0.0,0.0,0.0,0.0,0.0,0.0,-4.6143,-4.6047,-4.6105,-4.6105,-4.6007,-4.6141,-4.6352,-4.7427,-4.8697,-5.0177,-4.8276,-4.7157,-4.68,-4.6357,-4.599,-4.576,-4.6046,-4.5948,-4.5621,-4.5413,-4.5337,-4.5468,-4.715,-4.7455,-4.715,0.0,0.0,0.0,0.0,0.0,0.0,0.0,0.0,0.0,-5.0188,-5.0163,-5.0723,-5.3693,-5.6244,-5.7901,-5.7338,-6.2405,-6.7021,-6.3576,-6.5628,-6.936,-7.2944,-7.3442,-7.3691,-7.5907,-7.6954,-7.7071,-7.572,-7.6881,-7.8191,-7.8661,-8.0229,-8.1927,-8.3468,-8.3415,-8.3599,-8.4779,-8.5078,-8.5749,-8.716,-8.7587,-8.7999,-8.8339,-8.8649,-8.8692,-8.8534,-8.9297,-9.0136,-9.1198,-9.2002,-9.307,-9.428,-9.4589,-9.4744,-9.4775,-9.5777,-9.6892,-9.817,-9.9617,-10.0115,-9.9806,-10.1611,-10.2445,-10.274,-10.4993,-10.6212,-10.6582,-10.7204,-10.8102,-10.8882,-10.896,-10.9386,-11.006,0.0,0.0,0.0,0.0,0.0,0.0,0.0,0.0,0.0,0.0,-4.1065,-4.1773,0.0,0.0,0.0,-4.6123,-4.6644,0.0,-4.6152,-4.6445,-4.6426,-4.6105,-4.6318,-4.653,-4.6496,-4.6639,-4.7598,-4.9359,-4.7719,-4.6694,-4.6299,-4.6414,-4.6483,-4.6352,-4.6483,-4.6385,-4.6233,-4.5545,-4.551,-4.601,-4.7291,-4.752,-4.7367,0.0,0.0,0.0,0.0,0.0,0.0,0.0,0.0,0.0,-5.0139,-5.1205,-5.2997,-5.5473,-5.8716,-6.1458,-6.1987,-6.6469,-7.0621,-6.8646,-6.9855,-7.2423,-7.5618,-7.6319,-7.6476,-7.7153,-7.7879,-7.8151,-7.742,-7.8087,-7.9085,-8.0019,-8.0801,-8.1882,-8.3439,-8.3351,-8.3488,-8.4583,-8.4904,-8.5493,-8.6597,-8.7163,-8.7552,-8.7849,-8.819,-8.8221,-8.7709,-8.8392,-8.9106,-8.9895,-9.096,-9.2054,-9.3175,-9.3822,-9.4265,-9.4447,-9.4962,-9.5868,-9.703,-9.8785,-9.9532,-9.9425,-10.1297,-10.2307,-10.2772,-10.5171,-10.6332,-10.6459,-10.7282,-10.8001,-10.8595,-10.8985,-10.9374,-10.9998,0.0,0.0,-4.3122,-4.2345,0.0,0.0,0.0,0.0,0.0,-4.1065,-4.1071,-4.1773,0.0,0.0,0.0,-4.6137,-4.6341,-4.6316,-4.6316,-4.6989,-4.7048,-4.6173,-4.6773,-4.7229,-4.7427,-4.6496,-4.637,-4.7129,-4.6931,-4.6403,-4.5599,-4.6301,-4.7019,-4.7685,-4.6942,-4.7019,-4.763,-4.6046,-4.5878,-4.68,-4.7644,-4.8028,-4.8181,-4.9848,0.0,0.0,0.0,0.0,0.0,0.0,0.0,0.0,-5.0089,-5.2617,-5.5579,-5.5864,-6.1883,-6.8478,-6.8421,-7.2074,-7.5766,-7.5522,-7.5692,-7.6159,-7.6976,-7.7936,-7.8746,-7.8746,-7.8878,-7.8902,-7.8322,-7.8916,-7.9584,-7.9796,-8.031,-8.1273,-8.2906,-8.2887,-8.3035,-8.3914,-8.4613,-8.5323,-8.5933,-8.6843,-8.7298,-8.7043,-8.7914,-8.7786,-8.6203,-8.7719,-8.8352,-8.7687,-9.0211,-9.1655,-9.1912,-9.3512,-9.438,-9.4562,-9.46,-9.5049,-9.5953,-9.7476,-9.8658,-9.9539,-10.122,-10.2505,-10.3588,-10.5259,-10.6174,-10.6572,-10.7285,-10.7717,-10.8011,-10.8731,-10.9015,-10.9327,0.0,0.0,-4.25,-4.2267,0.0,0.0,0.0,0.0,-4.1023,-4.1052,-4.1065,-4.1773,-4.3403,-4.4805,0.0,-4.715,-4.7844,-4.8234,-4.8234,-4.7743,-4.7337,-4.7103,-4.6581,-4.6918,-4.8281,-4.6758,-4.6332,-4.7157,-4.639,-4.588,-4.5512,-4.7031,-4.7434,-4.6991,-4.753,-4.7492,-4.6954,-4.5955,-4.605,-4.6837,-4.7741,-4.8049,-4.8279,-4.989,-4.952,0.0,0.0,0.0,0.0,0.0,0.0,0.0,-5.0063,-5.062,-5.1982,-5.5215,-6.034,-6.4969,-6.5614,-7.0787,-7.5482,-7.3157,-7.4736,-7.705,-7.7868,-7.8329,-7.8565,-7.8693,-7.8878,-7.9128,-7.9,-7.9293,-7.9735,-8.0553,-8.0825,-8.14,-8.2384,-8.235,-8.2481,-8.3718,-8.3899,-8.4385,-8.5624,-8.6011,-8.6239,-8.6334,-8.6522,-8.6544,-8.6285,-8.6624,-8.7157,-8.7913,-8.853,-8.9841,-9.2028,-9.2403,-9.3007,-9.3764,-9.4457,-9.4598,-9.4251,-9.6559,-9.8452,-9.9911,-10.0338,-10.102,-10.1984,-10.3824,-10.4922,-10.5699,-10.6528,-10.7298,-10.7933,-10.8029,-10.8469,-10.9327,0.0,0.0,0.0,0.0,0.0,0.0,0.0,0.0,-4.1038,-4.1059,-4.1065,-4.1773,-4.3403,-4.4423,0.0,0.0,-4.7696,-4.8164,-4.8148,-4.8452,-4.8435,-4.802,-4.6727,-4.6452,-4.735,-4.6472,-4.6125,-4.6551,-4.606,-4.5727,-4.5659,-4.7335,-4.7837,-4.7396,-4.7914,-4.7855,-4.7317,-4.6086,-4.6121,-4.7003,-4.785,-4.8141,-4.8317,-4.9951,-4.9716,-4.8613,-4.9366,0.0,0.0,0.0,0.0,0.0,0.0,0.0,-5.3319,-5.5489,-5.9928,-6.4554,-6.6976,-7.0937,-7.4537,-7.4761,-7.6275,-7.7793,-7.8165,-7.8721,-7.9034,-7.8767,-7.8827,-7.9029,-7.9225,-7.9369,-7.966,-8.025,-8.0416,-8.0807,-8.1641,-8.1672,-8.1975,-8.3031,-8.353,-8.4081,-8.5016,-8.5512,-8.5923,-8.6191,-8.6639,-8.6731,-8.6433,-8.6854,-8.7216,-8.739,-8.7902,-8.9077,-9.0907,-9.1723,-9.2494,-9.2976,-9.4342,-9.4781,-9.4432,-9.6148,-9.7777,-9.9441,-9.9441,-10.0192,-10.1529,-10.2803,-10.3864,-10.4936,-10.6168,-10.687,-10.7407,-10.8211,-10.8991,-10.9873,0.0,0.0,0.0,0.0,0.0,0.0,0.0,0.0,0.0,-4.1299,-4.1299,-4.1929,-4.3643,-4.3799,-4.4579,0.0,0.0,0.0,-4.8063,-4.9153,-4.9517,-4.8837,-4.7028,-4.6152,-4.643,-4.6119,-4.6084,-4.6113,-4.5945,-4.5891,-4.602,-4.7482,-4.8123,-4.8105,-4.8123,-4.8064,-4.7833,-4.6292,-4.6188,-4.7101,-4.7951,-4.827,-4.8335,-4.9933,-4.989,-4.9006,-4.993,-5.0159,-5.0107,-5.0139,0.0,0.0,0.0,0.0,-5.511,-5.5155,-5.9181,-6.4293,-6.7761,-7.0668,-7.3565,-7.7476,-7.8406,-7.8462,-7.8462,-7.9242,-7.965,-7.8991,-7.8999,-7.9153,-7.9252,-7.9369,-7.9584,-7.9676,-7.981,-8.0125,-8.0807,-8.097,-8.136,-8.2195,-8.3202,-8.4017,-8.4328,-8.5242,-8.5992,-8.6208,-8.7051,-8.724,-8.6675,-8.7414,-8.7636,-8.7103,-8.7912,-8.8886,-8.9862,-9.1514,-9.243,-9.2607,-9.411,-9.4848,-9.4894,-9.5707,-9.6965,-9.8431,-9.8694,-9.967,-10.1122,-10.208,-10.3132,-10.402,-10.5568,-10.6419,-10.6879,-10.8167,-10.9515,-11.0566,0.0,0.0,0.0,0.0,0.0,0.0,0.0,0.0,0.0,0.0,-4.2149,-4.2786,-4.4501,-4.4734,-4.5748,-4.8241,-4.8553,-4.9255,-5.065,0.0,0.0,-4.9692,-4.7359,-4.6795,-4.825,-4.6752,-4.6341,-4.7105,-4.6305,-4.6268,-4.7002,-4.7951,-4.8369,-4.8304,-4.8369,-4.7936,-4.7163,-4.6158,-4.625,-4.7178,-4.8029,-4.8369,-4.8441,-5.0048,-4.9567,-4.835,-4.9771,-4.9778,-4.9272,-4.9959,-5.0139,0.0,0.0,0.0,-5.1129,-5.1891,-5.575,-5.9954,-6.1153,-6.7089,-7.3832,-7.7923,-7.9109,-7.9354,-7.9354,-7.9948,-8.0433,-7.9813,-7.9822,-7.9753,-7.9229,-7.9321,-7.9538,-7.9462,-7.9766,-7.9898,-8.0049,-8.0049,-8.0439,-8.136,-8.2238,-8.3126,-8.4212,-8.5242,-8.595,-8.6223,-8.6517,-8.6751,-8.6747,-8.6937,-8.7409,-8.8186,-8.8322,-8.9162,-9.088,-9.1949,-9.2807,-9.3521,-9.3849,-9.3966,-9.3979,-9.4843,-9.5777,-9.6685,-9.8299,-9.915,-9.947,-10.1082,-10.2263,-10.3201,-10.4105,-10.5404,-10.6732,-10.6879,-10.8412,-11.0431,0.0,0.0,0.0,0.0,0.0,0.0,0.0,0.0,0.0,0.0,0.0,-4.3721,-4.5436,-4.5592,-4.6293,-4.793,-4.8943,-4.9948,-5.1187,-4.969,-4.8876,-4.9148,-4.7193,-4.6406,-4.7162,-4.6374,-4.6208,-4.6574,-4.6639,-4.7081,-4.7973,-4.8811,-4.9156,-4.908,-4.9111,-4.8662,-4.7734,-4.6883,-4.6496,-4.6496,-4.7766,-4.9332,-5.0776,-5.0622,-5.1108,-5.1738,-5.0718,-5.003,-4.9778,-5.0135,-5.0163,-5.0163,-5.0188,0.0,0.0,0.0,-5.3442,-5.6643,-6.1956,-6.8148,-7.3959,-7.7266,-7.8498,-7.887,-7.8889,-7.9371,-7.9743,-7.9257,-7.9567,-7.9949,-7.9879,-7.9575,-7.9416,-7.963,-7.9721,-7.981,-7.9898,-7.9941,-8.0102,-8.0524,-8.1954,-8.3219,-8.3786,-8.5324,-8.6345,-8.6544,-8.7086,-8.7281,-8.6937,-8.7409,-8.7915,-8.8361,-8.8461,-8.9352,-9.1135,-9.206,-9.3171,-9.448,-9.4449,-9.4218,-9.3826,-9.5223,-9.601,-9.6404,-9.7734,-9.8515,-9.9061,-10.039,-10.1406,-10.2265,-10.3587,-10.4897,-10.5966,-10.6419,-10.8207,-11.0383,0.0,0.0,0.0,0.0,0.0,0.0,0.0,0.0,0.0,0.0,0.0,-4.4501,-4.6052,0.0,0.0,0.0,-4.8935,-5.0096,-5.1161,-4.9672,-4.8633,-4.8593,-4.694,-4.5997,-4.5997,-4.5997,-4.5986,-4.5964,-4.6663,-4.7493,-4.8554,-4.9162,-4.9678,-5.0085,-4.9838,-4.9219,-4.8353,-4.7734,-4.696,-4.6327,-4.8733,-5.0755,-5.2523,-5.2982,-5.4406,-5.5806,-5.2882,-5.1814,-5.1662,-5.0593,-5.0212,-5.0288,-5.0517,-5.0517,0.0,0.0,0.0,-5.4867,-6.2648,-6.743,-7.1237,-7.5555,-7.7153,-7.7872,-7.8553,-7.9633,-8.0097,-7.9054,-7.9386,-7.9919,-8.033,-7.9827,-7.9321,-7.9584,-7.9676,-7.9766,-7.9854,-7.9941,-7.995,-7.995,-8.1804,-8.3213,-8.3243,-8.519,-8.6489,-8.6698,-8.7313,-8.7636,-8.7351,-8.7952,-8.8515,-8.9041,-8.9105,-8.9914,-9.1577,-9.242,-9.3436,-9.4453,-9.4598,-9.4264,-9.3483,-9.5261,-9.6055,-9.6082,-9.722,-9.8072,-9.8721,-9.9835,-10.0702,-10.1484,-10.3437,-10.4685,-10.5526,-10.6278,-10.8067,-11.0089,0.0,0.0,0.0,0.0,0.0,0.0,0.0,0.0,0.0,0.0,0.0,-4.5195,-4.6115,-4.5492,-4.5959,-4.8452,-4.8686,-4.9448,-5.1133,-4.9654,-4.8701,-4.8572,-4.6929,0.0,-4.5997,-4.5997,-4.5997,-4.5997,-4.6074,-4.6907,-4.8502,-4.8554,-4.9472,-5.1009,-5.0129,-4.9248,-4.843,-4.8353,-4.7811,-4.7395,-5.1949,-5.2877,-5.2119,-5.816,-6.0013,-5.908,-5.6793,-5.5969,-5.5389,-5.1585,-5.0283,-5.0436,-5.1276,-5.1505,-5.1735,0.0,0.0,0.0,-6.0058,-6.1553,-6.3797,-7.2228,-7.4995,-7.6252,-7.9172,-8.1679,-8.2725,-8.0152,-7.965,-7.9759,-8.0076,-7.9729,-7.9273,-7.9273,-7.9509,-7.9721,-7.9721,-7.9854,-7.9898,-7.9898,-8.1596,-8.2792,-8.3028,-8.4848,-8.6177,-8.6467,-8.6649,-8.7103,-8.8167,-8.83,-8.9129,-9.0875,-9.1057,-9.1536,-9.25,-9.3337,-9.3394,-9.2629,-9.338,-9.3348,-9.2539,-9.4301,-9.5069,-9.5159,-9.6919,-9.771,-9.7875,-9.9541,-10.0293,-10.0625,-10.3203,-10.4687,-10.5467,-10.637,-10.7807,-10.9416,0.0,0.0,0.0,0.0,0.0,0.0,0.0,0.0,0.0,0.0,0.0,0.0,0.0,-4.705,-4.7284,-4.9325,-4.9543,-4.9993,-5.1133,-4.9557,-4.8603,-4.8561,-4.6929,-4.5997,-4.5997,-4.5997,-4.5997,-4.5997,-4.654,-4.7462,-4.8538,-4.9159,-4.9989,-5.105,-5.0657,-5.0008,-4.9248,-4.9219,-4.874,-4.8323,-5.2444,-5.4893,-5.6262,-5.6852,-5.982,-6.286,-5.8053,-5.6683,-5.694,-5.5445,-5.3569,-5.2035,-5.2294,-5.2346,-5.2575,-5.3416,-5.4256,-5.5733,-5.9452,-6.0974,-6.2617,-6.7733,-7.1463,-7.4274,-7.5249,-7.8104,-8.0271,-7.929,-7.8746,-7.8574,-7.8991,-7.8153,-7.7877,-7.9075,-7.8511,-7.8346,-7.9569,-7.9039,-7.8975,-7.9958,-8.1003,-8.2058,-8.3235,-8.4682,-8.5843,-8.6494,-8.6674,-8.6948,-8.7311,-8.7389,-8.8117,-8.9417,-8.9554,-9.0276,-9.1713,-9.3153,-9.3357,-9.2507,-9.3886,-9.3777,-9.2417,-9.4199,-9.4979,-9.5057,-9.6226,-9.7421,-9.8547,-9.9718,-10.0469,-10.1226,-10.2725,-10.3824,-10.4686,-10.6168,-10.7787,-10.93,0.0,0.0,0.0,0.0,0.0,-4.5967,-4.5356,-4.5745,-4.6152,-4.6185,0.0,0.0,0.0,0.0,-4.7882,-4.9067,-4.9378,-4.975,-5.0267,-4.9002,-4.8204,-4.8172,-4.6773,-4.5997,-4.5997,-4.6297,-4.6297,-4.5997,-4.684,-4.7772,-4.8638,-4.9171,-5.0091,-5.1166,-5.0981,-5.0627,-5.0114,-5.0162,-4.9606,-4.9251,-5.4426,-5.6927,-5.7711,-5.8963,-6.1719,-6.4407,-6.0524,-5.9361,-5.9619,-5.983,-5.8174,-5.5908,-5.5374,-5.4282,-5.3416,-5.4256,-5.4715,-5.5453,-5.7919,-5.9015,-6.0313,-6.3758,-6.7195,-7.0384,-7.2637,-7.5585,-7.7952,-7.8303,-7.8278,-7.8254,-7.8326,-7.7429,-7.7174,-7.8527,-7.8058,-7.7981,-7.916,-7.8975,-7.9133,-8.02,-8.0915,-8.1875,-8.3292,-8.4511,-8.5534,-8.6517,-8.6649,-8.6848,-8.7213,-8.7426,-8.7946,-8.9028,-8.9368,-9.0052,-9.1239,-9.267,-9.3105,-9.2481,-9.3621,-9.3521,-9.2483,-9.4186,-9.4796,-9.4627,-9.6015,-9.7461,-9.8903,-9.9826,-10.0721,-10.1631,-10.2771,-10.3803,-10.4671,-10.6171,-10.7571,-10.9025,0.0,-4.63,-4.6296,-4.6192,-4.6164,-4.6215,-4.6107,-4.6074,-4.6134,-4.6185,0.0,0.0,0.0,0.0,0.0,-4.7447,-4.8244,-4.8711,-4.8603,-4.7826,-4.7349,-4.7317,-4.6463,-4.5997,-4.6074,-4.6896,-4.6896,-4.6074,-4.6896,-4.775,-4.8638,-4.8604,-4.9535,-5.119,-5.1101,-5.0966,-5.0966,-5.0966,-5.055,-5.0471,-5.805,-5.8872,-5.6366,-6.4935,-6.6332,-6.3873,-6.4701,-6.4434,-6.3827,-6.463,-6.3646,-6.1713,-6.0317,-5.7225,-5.4333,-5.5174,-5.4791,-5.4333,0.0,0.0,0.0,-6.0446,-6.2128,-6.4665,-7.1635,-7.4544,-7.6155,-7.7598,-7.8478,-7.8902,-7.8172,-7.7409,-7.7107,-7.7629,-7.8179,-7.8576,-7.8652,-7.9704,-8.0468,-8.0468,-8.1339,-8.2357,-8.3269,-8.4291,-8.5267,-8.6384,-8.644,-8.6955,-8.8089,-8.832,-8.8841,-8.9867,-9.0764,-9.1249,-9.1166,-9.2053,-9.2481,-9.249,-9.244,-9.2405,-9.2405,-9.4081,-9.4364,-9.3694,-9.6234,-9.7915,-9.88,-9.9735,-10.0684,-10.1711,-10.3426,-10.4623,-10.549,-10.6402,-10.7263,-10.826,-4.5281,-4.5831,-4.63,-4.6292,-4.621,-4.6176,-4.6211,-4.6124,-4.6134,0.0,0.0,0.0,-4.7882,-4.9265,-4.9644,-4.8477,-4.909,-4.9313,-4.8603,-4.7805,-4.7328,-4.7317,-4.6463,-4.6307,-4.6929,-4.7151,-4.7151,-4.6929,-4.7151,-4.7772,-4.8561,-4.8627,-4.947,-5.1166,-5.1166,-5.1127,-5.1087,-5.0952,-5.1154,-5.2095,-5.9278,-6.1873,-6.2026,-6.7089,-7.0315,-7.182,-6.9762,-6.7506,-6.5945,-6.8902,-6.4317,-5.7286,-5.6774,-5.5885,-5.5097,-5.5326,-5.525,-5.5097,-5.5326,0.0,0.0,0.0,0.0,0.0,-6.7512,-7.1558,-7.5087,-7.753,-7.8313,-7.8493,-7.8801,-7.7269,-7.6429,-7.7953,-7.8002,-7.8138,-7.8787,-7.8935,-7.9374,-8.0608,-8.0645,-8.1308,-8.3368,-8.388,-8.4773,-8.6307,-8.6546,-8.6838,-8.7288,-8.7546,-8.7815,-8.8104,-8.9606,-9.0311,-9.0302,-9.1832,-9.2585,-9.249,-9.2498,-9.2139,-9.1509,-9.2627,-9.2925,-9.2791,-9.4145,-9.5979,-9.8045,-9.9488,-10.0955,-10.24,-10.2893,-10.363,-10.4607,-10.6129,-10.7728,-10.9216,-4.5441,-4.5906,-4.6292,-4.6288,-4.6504,-4.6619,-4.6211,-4.6426,-4.6513,0.0,0.0,0.0,-4.8001,-4.9002,-4.9002,-4.768,-4.7971,-4.8049,-4.7592,-4.7116,-4.6795,-4.6805,-4.6639,-4.6795,-4.7328,-4.8006,-4.8006,-4.7317,-4.8006,-4.8472,-4.8638,-4.8938,-4.9858,-5.1076,-5.1153,-5.114,-5.1101,-5.1044,-5.1494,-5.2856,-6.0173,-6.2879,-6.2955,-6.8414,-7.112,-7.2025,-7.1874,-7.0413,-6.9285,-7.3489,-6.8716,-6.076,-6.0061,-5.8016,-5.5861,-5.5479,-5.5403,-5.5403,-5.5403,-5.5427,-5.5523,-5.5523,0.0,0.0,-6.5459,-6.8993,-7.2547,0.0,-7.839,-7.892,-7.8888,-7.8119,-7.7808,-7.8549,-7.8904,-7.8979,-7.9132,-7.9374,-7.9845,-8.0811,-8.0662,-8.1107,-8.2862,-8.3509,-8.4397,-8.5766,-8.6483,-8.6899,-8.7144,-8.7312,-8.7609,-8.7955,-8.9296,-9.0154,-9.0533,-9.1848,-9.2541,-9.2528,-9.2551,-9.2066,-9.1203,-9.2403,-9.2627,-9.1961,-9.3575,-9.5159,-9.6675,-9.8357,-10.0307,-10.2191,-10.2191,-10.3162,-10.4763,-10.5817,-10.7493,-10.9368,0.0,-4.6214,-4.6275,-4.6332,-4.6972,-4.7145,-4.6454,-4.698,-4.7126,0.0,-4.7126,-4.766,-4.7628,-4.7628,-4.724,-4.6385,-4.623,-4.6162,-4.6115,-4.6115,-4.6124,-4.6074,-4.6824,0.0,-4.7515,-4.8938,-4.8914,-4.7473,-4.8992,-4.9392,-4.8638,-4.9458,-5.0299,-5.1076,-5.1127,-5.1101,-5.1087,-5.1178,-5.2017,-5.3817,-6.0635,-6.2538,-6.1983,-6.9323,-7.068,-6.9133,-7.2788,-7.3274,-7.2822,-7.6667,-7.3942,-6.8641,-6.6295,-6.1912,-5.7412,-5.6064,-5.5835,-5.5962,-5.5785,-5.5733,-5.583,-5.583,-5.5846,0.0,-6.442,-6.6574,-6.8841,-7.4939,-7.7438,-7.8272,-7.7555,-7.8174,-7.8675,-7.8215,-7.9194,-7.9834,-7.9382,-8.0273,-8.1016,-8.1093,-8.1016,-8.1354,-8.2201,-8.3182,-8.4093,-8.4997,-8.6204,-8.7001,-8.7354,-8.7362,-8.7771,-8.8502,-8.9374,-9.0232,-9.1158,-9.1939,-9.2333,-9.2333,-9.2343,-9.1873,-9.1154,-9.2634,-9.2624,-9.1363,-9.3669,-9.4753,-9.4996,-9.6548,-9.8812,-10.1388,-10.1466,-10.3036,-10.5326,-10.537,-10.7031,-10.9193,-4.6234,-4.6303,-4.6504,-4.7154,-4.7406,-4.7617,-4.8105,-4.7738,-4.7592,-4.8059,-4.8837,-4.9448,-4.9426,-4.9415,-4.9027,-4.8172,-4.7473,-4.6773,-4.6085,-4.6105,-4.6124,0.0,0.0,0.0,-4.837,-4.8649,-4.8627,-4.8327,-4.9415,-4.9415,-4.8638,-4.9493,-5.0312,-5.1114,-5.1166,-5.114,-5.1058,-5.1812,-5.4839,-5.9184,-5.984,-6.2519,-6.6695,-7.1329,-7.462,-7.7043,-7.85,-7.6835,-7.3619,-7.1278,-7.1312,-7.1161,-6.4969,-6.3489,-6.311,-5.873,-5.8673,-5.9589,-5.787,-5.7494,-5.7594,-5.7594,-5.7152,0.0,-6.1835,-6.2853,-6.4097,0.0,-6.9493,-7.0137,-7.0019,-7.0162,-7.0533,-7.1395,-7.3392,-7.5941,-7.923,-7.9908,-8.0323,-8.1016,-8.0538,-8.0752,-8.2275,-8.2753,-8.3396,-8.4495,-8.558,-8.6479,-8.7312,-8.7312,-8.7432,-8.7643,-8.8514,-8.9375,-9.0233,-9.1088,-9.1557,-9.1561,-9.1561,-9.1092,-9.0233,-9.0619,-9.0932,-9.1328,-9.1796,-9.2811,-9.4044,-9.443,-9.6894,-10.0498,-10.12,-10.2626,-10.4363,-10.51,-10.7025,-10.9276,-4.6306,-4.6288,-4.6482,-4.7361,0.0,0.0,-4.8671,-4.8681,-4.8681,-4.8582,-4.936,-4.9593,-4.8716,-4.9027,-4.8716,-4.7395,-4.6929,-4.6473,-4.6095,-4.6115,0.0,0.0,0.0,0.0,-4.8001,-4.8826,-4.9271,-4.926,-5.0503,-5.0891,-5.0503,-5.0957,-5.2419,-5.4619,-5.22,-5.2186,-5.3889,-5.282,-5.4294,-5.7559,-6.1326,-6.6421,-7.2167,-7.5582,-7.8274,-8.043,-8.0806,-7.9654,-7.7523,-7.5087,-7.2994,-7.0893,-6.8369,-6.5955,-6.353,-6.0881,-6.0849,-6.1121,-5.8661,-5.8055,-5.8131,-5.8179,-5.7866,0.0,0.0,-6.2372,-6.3465,-6.7063,-6.7839,-6.7916,-6.8438,-6.8595,-6.8914,-6.9559,-7.2072,-7.437,-7.5464,-7.8031,-7.9939,-8.04,-8.0508,-8.0876,-8.1764,-8.2419,-8.3225,-8.4459,-8.5403,-8.6155,-8.6657,-8.7448,-8.8197,-8.8641,-8.913,-8.9998,-9.125,-9.125,-9.1483,-9.1871,-9.147,-9.1067,-9.0599,-9.0226,-9.0229,-9.0614,-9.0681,-9.1161,-9.1953,-9.2807,-9.4738,-9.7206,-9.8899,-10.0929,-10.2976,-10.4339,-10.6562,-10.9331,-4.63,-4.6114,-4.632,-4.7351,0.0,0.0,0.0,-4.9489,-4.9614,-4.8727,-4.9637,-4.9792,-4.8239,-4.8759,-4.8747,-4.7505,-4.7272,-4.7062,-4.6795,-4.6805,-4.6892,-4.7077,0.0,-4.7621,0.0,-4.9293,-4.9759,-4.9881,-5.1435,-5.2057,-5.1901,-5.211,-5.3863,-5.6772,-5.3832,-5.3817,-5.6,-5.4638,-5.507,-5.7301,-6.4162,-6.9527,-7.3688,-7.6941,-7.9,-8.038,-8.1407,-8.1806,-8.1402,-7.9753,-7.5295,-7.0516,-7.0809,-6.7766,-6.3722,-6.2151,-6.2496,-6.2724,-5.9376,-5.854,-5.8615,-5.8664,-5.8581,-5.9196,0.0,0.0,0.0,-6.6315,0.0,0.0,0.0,0.0,0.0,-6.7515,0.0,0.0,0.0,-7.4495,-7.8015,-7.8185,-7.9477,-8.0414,-8.0376,-8.1204,-8.2398,-8.4285,-8.4546,-8.5039,-8.5933,-8.7515,-8.8648,-8.9398,-8.951,-9.0305,-9.2029,-9.1161,-9.131,-9.2243,-9.1285,-9.0953,-9.1272,-9.0016,-8.9795,-9.0213,-8.9867,-8.9802,-9.0064,-9.1484,-9.2421,-9.3357,-9.6289,-9.8846,-10.1117,-10.2871,-10.5466,-10.8188,-4.6144,-4.5672,-4.566,-4.7201,0.0,0.0,0.0,-4.9915,-4.9567,-4.8681,-5.0622,-5.1657,-5.0752,-5.1368,-5.1989,-5.2531,-5.1912,-5.0874,-4.9511,-4.938,-4.9666,-5.0284,0.0,0.0,-5.2655,-5.0091,-4.9137,-4.9881,-5.0891,-5.0969,-5.0192,-5.0969,-5.1554,-5.2045,-5.5857,-5.5763,-5.315,-5.7891,-6.2775,-6.7515,-6.8411,-6.6663,-6.3988,-6.8417,-7.2281,-7.6035,-8.0906,-8.2683,-8.1956,-7.7426,-7.5012,-7.2628,-6.5689,-6.667,-6.8993,-6.1628,-6.3289,-6.6333,-6.1535,-6.0226,-6.0303,-6.0378,-5.9888,-5.9473,-5.9835,0.0,-5.8965,-5.9427,0.0,0.0,0.0,0.0,0.0,-5.9968,-6.3245,-6.562,-6.4624,-6.8296,-7.1448,-7.2241,-7.5582,-7.7676,-7.7213,-7.7408,-7.9213,-8.3135,-8.1467,-8.1909,-8.5777,-8.6845,-8.7437,-8.7681,-8.7709,-8.8494,-9.027,-8.9344,-8.9729,-9.1435,-8.9696,-8.9774,-9.1194,-8.883,-8.8899,-9.0937,-8.9418,-8.9184,-8.9922,-9.0108,-9.0276,-9.0755,-9.4903,-9.7206,-9.8455,-10.1039,-10.2968,-10.4685,-4.5441,-4.5285,-4.5363,-4.6608,0.0,0.0,-4.9685,-5.0018,-4.9819,-4.9489,-4.9915,-5.0079,-4.9705,-4.9563,-5.0106,-5.1925,0.0,-5.053,0.0,-4.9821,-4.9302,-4.8183,0.0,0.0,0.0,-4.9593,-4.9759,-5.0658,-5.1513,-5.1979,-5.2057,-5.1979,-5.3391,-5.6123,-5.7641,-5.8953,-6.0179,-6.3551,-6.4757,-6.4705,-6.8973,-6.7725,-6.4499,-7.4182,-7.9358,-8.1758,-8.3457,-8.4154,-8.3651,-8.0526,-7.5924,-7.1756,-7.277,-6.9552,-6.5464,-6.5084,-6.5235,-6.4626,-6.08,-6.144,-6.2756,-6.1019,-6.1709,-6.2372,-6.0608,-5.9604,-5.9165,-5.9627,0.0,0.0,0.0,0.0,0.0,0.0,-6.2334,-6.4144,-6.248,0.0,-6.9398,-7.0398,-7.25,-7.4591,-7.6441,-7.8592,-8.0614,-8.2387,-8.2479,-8.3221,-8.5104,-8.7013,-8.8072,-8.811,-8.8156,-8.8708,-8.993,-8.9086,-8.9242,-9.0452,-8.9212,-8.9524,-9.1154,-8.9038,-8.895,-9.0364,-8.9174,-8.855,-8.8413,-8.8916,-8.9142,-8.9408,-9.2156,-9.4138,-9.5701,-9.8281,-10.0512,-10.262,-4.466,-4.4816,-4.5213,-4.5846,0.0,-4.7073,-4.9703,-4.9893,-4.969,-4.9681,-4.9292,-4.9022,-4.9057,-4.9446,0.0,0.0,-5.2825,-5.25,0.0,-5.1397,-5.0726,-4.9834,0.0,0.0,0.0,-5.0048,-5.0303,-5.1202,-5.1746,-5.2368,-5.2989,-5.2368,-5.4076,-5.7637,-5.8336,-6.074,-6.4424,-6.716,-6.7291,-6.6013,-7.1551,-7.2716,-7.1995,-7.9961,-8.4468,-8.6492,-8.5729,-8.545,-8.5075,-8.2174,-7.7051,-7.2542,-7.6605,-7.1914,-6.5615,-6.8741,-6.8294,-6.5953,-6.2132,-6.3016,-6.4324,-6.1322,-6.247,-6.3714,-6.1557,-6.081,-6.0704,-6.132,-6.0319,0.0,0.0,0.0,-5.9976,-5.9749,0.0,-6.2965,-6.1092,-6.4008,-6.6675,-6.7384,-6.9049,-7.1335,-7.4591,-7.7505,-7.9554,-8.0487,-8.1983,-8.3364,-8.4546,-8.6724,-8.8014,-8.8257,-8.8291,-8.8767,-8.9524,-8.8752,-8.8821,-8.9876,-8.8794,-8.9184,-9.0724,-8.8997,-8.8685,-8.9465,-8.883,-8.8038,-8.7348,-8.817,-8.8451,-8.835,-8.995,-9.1426,-9.2905,-9.5699,-9.8033,-10.0105,-4.372,-4.4432,-4.4987,-4.5065,0.0,-4.7151,-4.9703,-4.9373,-4.8808,-4.8857,-4.9439,0.0,0.0,0.0,0.0,0.0,0.0,-5.9386,-5.6985,0.0,-5.5845,0.0,0.0,-5.1515,0.0,-5.2637,-5.0303,-5.1202,-5.1202,-5.128,-5.128,-5.128,-5.1746,-5.2822,-5.7482,-6.0074,-6.1443,-6.6961,-7.2346,-7.7264,-7.8332,-8.2314,-8.7106,-8.1854,-8.2728,-8.6651,-8.6492,-8.6438,-8.5612,-8.0102,-7.8041,-7.6881,-7.1697,-7.2326,-7.4365,-7.1497,-7.268,-7.3642,-6.7617,-6.5517,-6.4324,-6.1322,-6.1403,-6.2068,-6.1991,-6.2579,-6.3166,-6.3243,-6.2551,-6.2012,-6.2012,-6.1343,-6.0473,-5.9627,-6.0365,0.0,0.0,-6.0663,-6.1427,-6.1518,-6.4629,-6.7831,-7.0446,-7.1532,-7.3509,-7.6799,-7.7875,-8.0221,-8.4451,-8.5575,-8.6463,-8.744,-8.7446,-8.7823,-8.8665,-8.778,-8.816,-8.9876,-8.8139,-8.8206,-8.9754,-8.8014,-8.7676,-8.8547,-8.8506,-8.8009,-8.723,-8.8165,-8.7994,-8.7322,-8.8974,-8.964,-9.0167,-9.3585,-9.5417,-9.6538,-4.3723,-4.4898,-4.5682,-4.5132,0.0,-4.614,-4.8162,-4.8235,-4.8815,0.0,-5.1447,0.0,0.0,-5.6863,-5.8374,0.0,0.0,-6.0243,-5.8896,-5.6786,0.0,-5.71,-5.2265,-5.1303,0.0,-5.2253,-5.0925,-5.1202,-5.1202,-5.1435,-5.1979,-5.1435,-5.2212,-5.4298,-5.7946,-6.1863,0.0,0.0,-7.523,-7.7186,-7.9705,-8.1908,-8.3974,-8.5469,-8.7084,-8.8232,-8.6943,-8.6759,-8.6649,-8.3597,-8.0479,-7.8053,-7.9074,-7.5705,-7.1808,-7.3729,-7.3342,-7.1831,-6.9773,-7.086,-7.1312,-6.5803,-6.6597,-6.7478,-6.3039,-6.2656,-6.332,-6.332,-6.2627,-6.2089,-6.2089,-6.1396,-6.0704,-6.0396,-6.065,-6.0727,0.0,-6.0696,-6.1292,-6.2043,-6.4737,-6.6897,-6.7975,-7.1844,-7.4778,-7.593,-7.8988,-8.17,-8.3693,-8.5223,-8.6496,-8.7368,-8.7432,-8.7495,-8.7702,-8.7458,-8.7593,-8.8104,-8.7546,-8.7832,-8.8909,-8.8243,-8.8149,-8.8461,-8.9068,-8.8818,-8.804,-8.8896,-8.9078,-8.877,-8.9294,-8.9818,-9.0496,-9.2307,-9.337,-9.4524,-4.4192,-4.5051,-4.5675,-4.5129,-4.5285,-4.5987,-4.7393,-4.7845,-4.9099,0.0,-5.2746,0.0,-5.7802,0.0,-6.0166,0.0,-6.2205,-6.1632,-6.0208,-5.8664,0.0,-5.7678,-5.4696,-5.4308,0.0,-5.4061,-5.2641,-5.2912,-5.18,-5.1435,-5.1979,-5.1435,-5.2368,-5.4621,-5.6653,-6.1464,-6.8498,-7.2671,-7.6453,-7.9895,-8.3126,-8.4258,-8.4323,-8.7738,-8.789,-8.6354,-8.7147,-8.766,-8.7773,-8.6312,-8.3767,-8.1649,-8.4292,-8.0592,-7.5855,-7.8798,-7.7754,-7.5399,-7.4289,-7.5577,-7.5952,-7.0533,-7.1214,-7.1859,-6.656,-6.5743,-6.6183,-6.6238,-6.4552,-6.3578,-6.5465,-6.3271,-6.1527,-6.2273,-6.1502,-6.0781,0.0,-6.1058,-6.1618,-6.2471,-6.407,-6.5543,-6.6696,-7.0492,-7.3612,-7.5429,-7.848,-8.1187,-8.3323,-8.4536,-8.5729,-8.69,-8.6956,-8.7174,-8.777,-8.776,-8.7726,-8.7676,-8.7974,-8.8024,-8.7978,-8.8568,-8.8628,-8.8473,-8.9622,-8.9622,-8.8922,-8.976,-8.9858,-8.9465,-8.9732,-9.0152,-9.0671,-9.1261,-9.2508,-9.4259,-4.4972,-4.5051,-4.5051,-4.5051,-4.5753,-4.6612,-4.7393,-4.8353,-4.979,0.0,-5.3528,-5.5123,-5.7595,-6.0022,-6.1735,-6.2529,-6.3886,-6.3777,-6.1443,-6.1113,0.0,0.0,-5.9399,-5.9976,-6.3117,-5.7737,-5.5242,-5.6029,-5.2848,-5.128,-5.128,-5.1202,-5.2135,-5.3766,-5.3689,-5.9065,-6.8294,-6.9959,-7.6293,-8.5386,-8.8511,-8.9146,-8.8236,-8.8393,-8.529,-8.1627,-8.6952,-8.8841,-8.8841,-8.8015,-8.7604,-8.7342,-8.6759,-8.6368,-8.6084,-8.6067,-8.5429,-8.3972,-8.1062,-7.962,-7.8326,-7.522,-7.5178,-7.5173,-7.2206,-7.1627,-7.1773,-7.1985,-6.8407,-6.6748,-7.1479,-6.6957,-6.3066,-6.4967,-6.2861,-6.0935,-6.0935,-6.1597,-6.2271,-6.2603,-6.277,-6.3916,-6.6369,-6.7559,-7.0206,-7.5002,-7.6376,-7.8847,-8.3089,-8.3366,-8.4245,-8.6041,-8.6176,-8.6931,-8.855,-8.8596,-8.856,-8.8612,-8.9348,-8.8834,-8.7245,-8.8904,-8.9119,-8.8419,-9.0071,-9.0382,-8.9722,-9.0537,-9.0319,-8.9554,-9.0283,-9.052,-9.052,-9.0547,-9.2584,-9.5408,-4.4972,-4.5519,-4.5987,-4.5987,-4.6144,-4.6381,-4.6622,-4.8899,-5.1714,0.0,-5.8587,-6.1928,-6.4321,-6.6346,-6.7295,-6.691,-6.6628,0.0,0.0,0.0,0.0,-6.4523,-6.0732,-6.0075,-6.3338,-5.8428,-5.5908,-5.6078,-5.3404,-5.2057,-5.2057,-5.1513,-5.2445,-5.4621,-5.3999,-5.916,-6.845,-7.0144,-7.7117,-8.728,-8.8454,-8.6632,-8.3811,-8.7809,-8.5536,-8.0743,-8.5021,-8.7201,-8.794,-8.7114,-8.6986,-8.7145,-8.698,-8.6415,-8.5715,-8.5715,-8.5626,-8.5313,-8.4551,-8.4104,-8.3098,-7.9554,-7.9327,-7.9095,-7.5535,-7.5814,-7.6653,-7.6084,-7.4905,-7.3455,-7.135,-6.896,-6.6509,-6.4193,-6.3194,-6.2627,-6.2627,-6.2858,-6.3284,-6.4135,-6.5946,-6.6334,-6.4203,-6.8144,-7.116,-7.1897,-7.5104,-7.8592,-8.2335,-8.1945,-8.2968,-8.602,-8.6687,-8.7526,-8.8628,-8.8572,-8.8845,-8.9426,-8.9613,-8.9424,-8.8982,-8.9314,-8.9372,-8.9216,-9.0241,-9.063,-9.0474,-9.1261,-9.1423,-9.114,-9.0727,-9.0443,-9.0544,-9.1107,-9.2179,-9.3631,-4.5597,-4.63,-4.6772,-4.6387,-4.7767,-4.8893,-4.8475,-4.941,0.0,-5.5625,-5.9437,0.0,-6.4771,-6.7449,-6.909,-6.9013,-6.7782,0.0,-6.6112,0.0,0.0,-6.4263,-6.2678,-6.2965,-6.5524,-6.1484,-5.9029,-5.816,-5.535,-5.3262,-5.1901,-5.1435,-5.2368,-5.4388,-5.3922,-5.8203,-6.6129,-7.1601,-7.819,-8.4937,-8.768,-8.7148,0.0,-8.7724,-8.6388,-8.3443,-8.5214,-8.6731,-8.7824,-8.7749,-8.7642,-8.7742,-8.7801,-8.7325,-8.6709,-8.6757,-8.6757,-8.6832,-8.6832,-8.6832,-8.6371,-8.4591,-8.4255,-8.3692,-8.1005,-8.067,-8.0717,-8.0356,-7.8933,-7.7505,-7.6814,-7.3079,-6.8839,-6.5039,-6.4474,-6.4474,-6.4474,-6.4705,-6.5033,-6.5353,-6.7058,-6.7082,-6.4168,-6.9099,-7.2244,-7.1819,-7.4021,-7.6497,-7.9197,-7.9968,-8.1597,-8.4259,-8.6256,-8.7894,-8.9075,-8.9495,-8.9845,-9.0268,-9.0608,-9.034,-8.9663,-9.0304,-9.0651,-9.063,-9.1028,-9.1649,-9.2371,-9.2043,-9.207,-9.2277,-9.1345,-9.0981,-9.103,-9.1346,-9.1978,-9.2904,-4.6303,-4.7006,-4.7322,0.0,0.0,0.0,-5.1896,-5.1014,-5.1911,-5.6167,0.0,-6.1447,-6.272,-6.6266,-6.8859,-6.9629,-6.8244,-6.6679,-6.5334,-6.5779,-6.5086,-6.2811,-6.4778,-6.6679,-6.829,-6.524,-6.2789,-6.0902,-5.7809,-5.4527,-5.1202,-5.1202,-5.2057,-5.3689,-5.3689,-5.7319,-6.4075,-7.376,-7.9312,-8.2032,-8.6866,-8.8987,-8.9063,-8.8167,-8.7741,-8.7543,-8.6843,-8.7235,-8.8135,-8.8888,-8.8861,-8.8741,-8.8858,-8.8772,-8.8481,-8.853,-8.8543,-8.8418,-8.8418,-8.8418,-8.8567,-8.931,-8.8938,-8.8158,-8.7079,-8.5639,-8.4721,-8.4883,-8.221,-8.0903,-8.4291,-7.8043,-7.1112,-6.7318,-6.7064,-6.7295,-6.7218,-6.7756,-6.7911,-6.699,-6.7862,0.0,-6.5741,-6.9952,-7.2799,-7.2823,-7.2998,-7.3952,-7.6136,-7.8436,-8.0596,-8.2557,-8.5843,-8.8338,-8.9988,-9.0807,-9.1233,-9.1186,-9.2009,-9.1489,-8.9955,-9.147,-9.2105,-9.2138,-9.199,-9.2843,-9.4186,-9.2587,-9.2432,-9.3078,-9.2267,-9.19,-9.1881,-9.1792,-9.2299,-9.2949,-4.6317,-4.7012,0.0,0.0,0.0,-5.2248,-5.4805,-5.7291,-5.9202,-6.0056,-6.4078,-6.6756,-6.6294,-6.8193,-6.9552,-6.9706,-6.8783,-6.809,-6.7808,-6.7192,-6.6423,-6.5293,-6.5653,-6.6705,-6.8371,-6.5804,-6.3373,-6.0983,-5.8463,-5.5147,-5.1202,-5.1202,-5.2057,-5.3689,-5.3689,-5.9564,-6.9733,-7.4849,-8.0808,-8.681,-8.7541,-8.8669,-8.9977,-8.9687,-8.9061,-8.8511,-8.9137,-8.8918,-8.8318,-8.8469,-8.906,-8.9756,-8.9814,-8.9906,-9.0053,-9.0117,-9.0053,-9.0053,-9.0053,-9.0053,-9.0127,-9.0276,-9.0329,-9.023,-8.9994,-8.9817,-8.9713,-8.9788,-8.9248,-8.8016,-8.5579,-8.0931,-7.6044,-7.1688,-7.3223,-7.4772,-7.4082,-7.4082,-7.3377,-7.1266,-7.3119,-7.2791,-6.8369,-6.9741,-7.0874,-7.0937,-7.1731,-7.4155,-7.8689,-7.9377,-8.1345,-8.5231,-8.7936,-8.9885,-9.0846,-9.1743,-9.2074,-9.2009,-9.2848,-9.2715,-9.1703,-9.1993,-9.2416,-9.307,-9.2223,-9.2483,-9.3284,-9.2971,-9.2866,-9.3098,-9.3523,-9.3261,-9.2797,-9.4094,-9.415,-9.3654,-4.7623,0.0,0.0,0.0,0.0,-5.5308,-5.812,-6.1774,-6.356,-6.187,-6.41,-6.5881,-6.5928,-6.8527,-7.0321,-7.0321,-6.9552,-6.909,-6.909,-6.7859,-6.6936,-6.6551,-6.6551,-6.709,-6.8398,-6.8013,-6.5596,-6.1003,-6.0229,-5.693,-5.1202,-5.1668,-5.2212,-5.3145,-5.617,-6.0845,-6.69,-7.4328,-7.9918,-8.3906,-8.7146,-8.9152,-9.0219,-8.9703,-8.9687,-9.0001,-8.9925,-9.0131,-9.0335,-8.9856,-8.9867,-9.0114,-9.0488,-9.0577,-9.0499,-9.0499,-9.0499,-9.0499,-9.0499,-9.0499,-9.0499,-9.0499,-9.0563,-9.0775,-9.1147,-9.1285,-9.1348,-9.1348,-9.1348,-9.0265,-8.6749,-8.2854,-7.9476,-7.75,-7.6722,-7.6843,-7.819,-7.796,-7.704,-7.5494,-7.4896,-7.3447,-7.0658,-6.9866,-6.9959,-7.1042,-7.1965,-7.409,-7.7958,-7.8606,-8.0847,-8.5078,-8.8208,-9.0418,-9.1756,-9.2572,-9.3227,-9.3549,-9.392,-9.3863,-9.3469,-9.3348,-9.3768,-9.4472,-9.3568,-9.3904,-9.5039,-9.4082,-9.3717,-9.3611,-9.3446,-9.3755,-9.4249,-9.4512,-9.4634,-9.4666,-4.9439,-4.9707,0.0,0.0,-5.59,-5.8792,-6.094,-6.4603,-6.614,-6.3582,-6.42,-6.5103,-6.5765,-6.886,-7.0937,-7.0937,-7.0321,-6.986,-6.9706,-6.8398,-6.7475,-6.709,-6.7244,-6.7705,-6.8398,-7.0008,-6.8013,-6.2334,-6.2446,-5.8915,-5.224,-5.2511,-5.321,-5.4491,-5.9237,-6.2858,-6.6019,-7.4542,-7.9416,-8.1722,-8.7116,-8.9664,-9.0219,-8.9672,-9.0266,-9.1187,-9.0559,-9.1242,-9.2254,-9.1698,-9.1052,-9.0697,-9.1237,-9.1249,-9.1019,-9.1019,-9.1167,-9.1242,-9.1093,-9.1167,-9.1242,-9.1093,-9.1019,-9.1167,-9.1836,-9.1836,-9.1688,-9.1688,-9.1752,-9.0863,-8.7787,-8.5448,-8.3707,-8.2947,-8.0643,-7.9757,-8.2064,-8.1569,-8.0608,-7.9382,-7.6613,-7.4374,-7.3146,-7.1326,-7.0874,-7.2557,-7.2802,-7.4068,-7.6971,-7.817,-8.0536,-8.4381,-8.7946,-9.0468,-9.1856,-9.3399,-9.4362,-9.4776,-9.4893,-9.4853,-9.4712,-9.459,-9.4986,-9.5713,-9.4705,-9.5194,-9.6483,-9.5166,-9.4597,-9.4462,-9.4094,-9.4713,-9.567,-9.5239,-9.5502,-9.6057,0.0,0.0,0.0,0.0,-5.8396,-6.0964,-6.1951,-6.4908,-6.7013,-6.6654,-6.8116,-6.9194,-6.9271,-7.0244,-7.0937,-7.0937,-7.086,-7.0475,-6.9783,-6.9552,-6.8783,-6.7167,-6.7859,-6.8321,-6.8398,-7.0008,-6.9421,-6.655,-6.4386,-6.0712,-5.5487,-5.4167,-5.5952,-6.0363,-6.1601,-6.7186,-7.5787,-7.7489,-8.1686,-8.7222,-8.8543,-8.9399,-9.0143,-9.0827,-9.1112,-9.1242,-9.2023,-9.2277,-9.2405,-9.3088,-9.2949,-9.2388,-9.2346,-9.2517,-9.2802,-9.2802,-9.3248,-9.3694,-9.2951,-9.3322,-9.3694,-9.2951,-9.2802,-9.2802,-9.2876,-9.2282,-9.1688,-9.1688,-9.207,-9.143,-8.8518,-9.051,-9.0966,-8.6125,-8.7502,-8.8838,-8.7615,-8.6698,-8.5245,-8.2911,-8.0997,-7.9041,-7.6733,-7.5841,-7.5538,-7.5934,-7.4106,-7.4457,-7.77,-7.968,-8.1856,-8.463,-8.8102,-8.9971,-9.0063,-9.3912,-9.5435,-9.4718,-9.5496,-9.5475,-9.4712,-9.4712,-9.5056,-9.5786,-9.4782,-9.4834,-9.5623,-9.5468,-9.539,-9.5545,-9.7015,-9.7187,-9.6769,-9.83,-9.8346,-9.7774,-5.5226,-5.5685,-5.6695,-5.9261,-6.0817,-6.2313,-6.4162,-6.6808,-6.8475,-6.7936,-6.8936,-6.986,-7.0398,-7.0706,-7.0937,-7.0937,-7.0937,-7.0783,-7.0475,-6.9475,-6.8859,-6.8706,-6.8013,-6.8294,-6.9778,-7.0412,-6.9798,-6.7833,-6.4855,-6.1366,-5.7482,-5.7937,-6.075,-6.5589,-6.8321,-7.2035,-7.6536,-8.1267,-8.4784,-8.7256,-8.9032,-9.0113,-9.078,-9.0552,-9.1367,-9.2557,-9.2379,-9.2986,-9.3846,-9.4121,-9.3628,-9.2937,-9.3739,-9.3974,-9.39,-9.4288,-9.466,-9.4883,-9.4511,-9.4288,-9.3991,-9.3174,-9.3025,-9.2876,-9.2356,-9.2356,-9.2505,-9.2505,-9.3064,-9.3201,-9.2065,-9.1415,-9.1081,-9.0979,-8.9909,-8.945,-9.0173,-8.9638,-8.8339,-8.6315,-8.3715,-8.1533,-8.0113,-7.8062,-7.6828,-7.6932,-7.5837,-7.6256,-7.8791,-8.1034,-8.3492,-8.6155,-8.9504,-9.1809,-9.2822,-9.495,-9.6079,-9.6273,-9.6543,-9.6832,-9.6966,-9.692,-9.7004,-9.7212,-9.7285,-9.7228,-9.7092,-9.7092,-9.7325,-9.7789,-9.8021,-9.8455,-9.9073,-9.9259,-9.9444,-9.9686,-5.851,-5.8741,-5.9647,-6.2712,-6.3329,-6.4055,-6.6269,-6.8167,-6.9244,-6.9167,-6.9706,-7.0244,-7.086,-7.0937,-7.0937,-7.0937,-7.0937,-7.0937,-7.0937,-6.9783,-6.9321,-6.9706,-6.8756,-6.8883,-7.0364,-7.0784,-7.0631,-6.9692,-6.6602,-6.3777,-6.1345,-6.187,-6.5103,-7.0629,-7.3253,-7.5967,-7.8853,-8.4057,-8.6604,-8.7432,-8.9672,-9.0827,-9.1187,-9.0808,-9.1746,-9.3163,-9.2784,-9.3618,-9.4831,-9.503,-9.461,-9.4104,-9.4549,-9.456,-9.4487,-9.495,-9.5403,-9.57,-9.5477,-9.518,-9.466,-9.3619,-9.3322,-9.3099,-9.2282,-9.2579,-9.3016,-9.3146,-9.353,-9.4081,-9.4416,-9.2717,-9.1938,-9.407,-9.1973,-9.0561,-9.2007,-9.1243,-8.9791,-8.7691,-8.4595,-8.2491,-8.1955,-7.9537,-7.8238,-7.8756,-7.9106,-7.9502,-8.0221,-8.2606,-8.4971,-8.7169,-9.0719,-9.3064,-9.4111,-9.6157,-9.7264,-9.7652,-9.7843,-9.8287,-9.8908,-9.8862,-9.8764,-9.863,-9.9193,-9.9057,-9.8485,-9.8717,-9.9027,-9.9336,-9.9491,-10.0187,-10.0883,-10.0574,-10.0712,-10.1215,-6.1257,-6.2028,-6.2876,-6.5422,-6.5859,-6.6397,-6.809,-6.8398,-6.9013,-7.0629,-7.086,-7.086,-7.0937,-7.0937,-7.0937,-7.0937,-7.0937,-7.0937,-7.0937,-7.086,-7.0552,-6.9706,-7.042,-7.0364,-6.9519,-7.0984,-7.2193,-7.3035,-7.0554,-6.8819,-6.7975,-6.5603,-6.8525,-7.5571,-7.4804,-7.8547,-8.5273,-8.5426,-8.6747,-8.888,-9.0628,-9.1263,-9.1192,-9.195,-9.2254,-9.2405,-9.3239,-9.4073,-9.4907,-9.5816,-9.6436,-9.6479,-9.4414,-9.3987,-9.4338,-9.428,-9.5328,-9.6443,-9.5626,-9.5997,-9.622,-9.4585,-9.4214,-9.3991,-9.3174,-9.2951,-9.3082,-9.3513,-9.3313,-9.3509,-9.463,-9.5295,-9.5293,-9.4529,-9.4376,-9.407,-9.3229,-9.1625,-8.9373,-8.6164,-8.3486,-8.1879,-8.1879,-8.0613,-8.053,-8.2316,-8.4243,-8.4277,-8.185,-8.4319,-8.626,-8.7175,-9.1355,-9.3221,-9.2365,-9.7284,-9.9363,-9.852,-9.9374,-9.9763,-9.9763,-9.9763,-9.9692,-9.9565,-9.9565,-9.9482,-9.9336,-10.0187,-10.011,-9.9568,-10.2121,-10.2585,-10.1966,-10.2817,-10.2585,-10.1997,-6.3575,-6.4268,-6.496,-6.5782,-6.632,-6.6859,-6.7398,-6.8552,-6.9475,-7.0014,-7.0552,-7.0937,-7.0937,-7.0937,-7.0937,-7.0937,-7.0937,-7.0937,-7.0937,-7.0398,-7.0448,-7.1314,-7.0441,-7.0844,-7.2716,-7.2116,-7.2773,-7.4694,-7.1137,-7.0153,-7.1581,-7.0796,-7.3775,-7.9853,-8.0123,-8.2148,-8.546,-8.6399,-8.7559,-8.8956,-9.0532,-9.1469,-9.195,-9.2178,-9.2633,-9.3315,-9.4149,-9.4604,-9.4983,-9.6423,-9.689,-9.6762,-9.5928,-9.5943,-9.6322,-9.6585,-9.7112,-9.7409,-9.7186,-9.6889,-9.6369,-9.5254,-9.4585,-9.3991,-9.3174,-9.3025,-9.3016,-9.3146,-9.3589,-9.4081,-9.4416,-9.5105,-9.5522,-9.5293,-9.5216,-9.4911,-9.407,-9.3,-9.1472,-8.9297,-8.7768,-8.6927,-8.6927,-8.5622,-8.4291,-8.3264,-8.3966,-8.3923,-8.2854,-8.6933,-8.9484,-8.98,-9.39,-9.5921,-9.5729,-9.8408,-9.963,-9.9374,-9.9685,-10.0074,-10.0617,-10.1192,-10.1065,-10.0496,-10.1011,-10.1158,-10.1206,-10.1997,-10.2508,-10.2895,-10.3668,-10.3823,-10.3591,-10.3282,-10.3499,-10.3773,-6.4962,-6.55,-6.591,-6.5936,-6.632,-6.6859,-6.7475,-6.8475,-6.9475,-7.009,-7.0552,-7.0937,-7.0937,-7.0937,-7.0937,-7.0937,-7.0937,-7.0937,-7.0937,-7.0371,-7.0728,-7.2054,-7.0997,-7.1444,-7.38,-7.2773,-7.3199,-7.5042,-7.3111,-7.3329,-7.5474,-7.5781,-7.8394,-8.276,-8.2835,-8.4205,-8.6333,-8.6888,-8.8045,-8.9773,-9.109,-9.2026,-9.2784,-9.2784,-9.3315,-9.4149,-9.4604,-9.521,-9.5968,-9.7279,-9.8025,-9.827,-9.8019,-9.818,-9.8403,-9.8061,-9.837,-9.8746,-9.8449,-9.7929,-9.726,-9.6146,-9.5477,-9.4808,-9.3694,-9.3471,-9.3462,-9.3658,-9.4264,-9.4836,-9.4999,-9.5333,-9.5598,-9.5598,-9.5598,-9.5446,-9.4911,-9.4146,-9.2695,-9.0444,-8.9373,-8.8915,-8.8915,-8.7772,-8.6962,-8.6761,-8.701,-8.7268,-8.7448,-8.9314,-9.0946,-9.2365,-9.6133,-9.8076,-9.7829,-9.9708,-10.0617,-10.0307,-10.0617,-10.1006,-10.1472,-10.1968,-10.1866,-10.1375,-10.2173,-10.2504,-10.2475,-10.3313,-10.3901,-10.4442,-10.4829,-10.4906,-10.4829,-10.4287,-10.4613,-10.5148,-6.5678,-6.5832,-6.5858,-6.5936,-6.5936,-6.6474,-6.8167,-6.8398,-6.9013,-7.0629,-7.086,-7.0937,-7.0937,-7.0937,-7.0937,-7.086,-7.0937,-7.1014,-7.1014,-7.093,-7.1363,-7.2178,-7.2057,-7.2422,-7.3265,-7.3165,-7.359,-7.4354,-7.6036,-7.764,-7.9398,-8.0238,-8.192,-8.4289,-8.3524,-8.4856,-8.7693,-8.6888,-8.8273,-9.1192,-9.195,-9.2784,-9.3618,-9.3618,-9.4073,-9.4755,-9.4907,-9.5968,-9.7355,-9.8231,-9.9424,-10.0608,-10.0155,-10.0516,-10.0636,-9.8867,-9.9332,-10.0232,-9.9489,-9.9266,-9.882,-9.7112,-9.6591,-9.6071,-9.466,-9.4288,-9.4346,-9.4784,-9.5268,-9.5722,-9.6096,-9.5934,-9.5675,-9.5598,-9.5598,-9.5598,-9.5598,-9.4911,-9.3272,-9.0143,-8.9072,-8.8536,-8.8613,-8.7848,-8.8615,-9.1797,-9.2276,-9.2844,-9.4005,-9.1214,-9.1273,-9.4873,-9.8076,-9.9475,-9.8762,-10.1107,-10.1938,-10.1161,-10.1938,-10.2327,-10.2404,-10.2404,-10.2381,-10.2307,-10.3081,-10.3491,-10.3482,-10.4164,-10.4519,-10.4674,-10.5525,-10.5835,-10.5835,-10.568,-10.5775,-10.5894,-6.5833,-6.591,-6.6064,-6.6705,-6.632,-6.6474,-6.8167,-6.8398,-6.8783,-6.986,-7.0552,-7.0937,-7.0937,-7.0937,-7.0909,-7.0853,-7.1448,-7.1832,-7.1852,-7.2361,-7.2993,-7.3789,-7.3724,-7.4074,-7.4924,-7.4924,-7.5271,-7.6112,-7.7182,-7.8557,-8.0238,-8.1079,-8.2531,-8.4289,-8.4587,-8.5833,-8.7725,-8.7923,-8.927,-9.1192,-9.195,-9.2784,-9.3694,-9.43,-9.4225,-9.4149,-9.6044,-9.6575,-9.6726,-9.8719,-9.9972,-10.0691,-10.065,-10.1721,-10.2565,-10.1253,-10.1117,-10.1198,-10.0975,-10.0901,-10.0381,-9.8152,-9.6146,-9.4957,-9.5848,-9.5105,-9.4429,-9.5091,-9.593,-9.6291,-9.5798,-9.6197,-9.6363,-9.5675,-9.5598,-9.5598,-9.5598,-9.4911,-9.4146,-9.3306,-9.2508,-9.2202,-9.289,-9.2126,-9.1173,-9.0147,-9.0223,-9.0615,-9.1156,-9.1244,-9.3178,-9.7454,-9.9063,-9.9996,-10.0407,-10.1705,-10.2482,-10.3026,-10.2482,-10.2638,-10.3337,-10.3337,-10.3337,-10.3313,-10.4092,-10.4815,-10.5274,-10.5418,-10.5821,-10.6376,-10.6608,-10.6686,-10.6608,-10.5912,-10.6099,-10.6595,-6.5859,-6.5859,-6.6013,-6.6474,-6.6192,-6.6371,-6.768,-6.8219,-6.8758,-6.9605,-7.0425,-7.0937,-7.0882,-7.1189,-7.1391,-7.1304,-7.1852,-7.2083,-7.1995,-7.2732,-7.3514,-7.426,-7.427,-7.4618,-7.5501,-7.5501,-7.5883,-7.6723,-7.8328,-7.978,-8.1156,-8.234,-8.3752,-8.5355,-8.5647,-8.666,-8.8212,-8.853,-8.9801,-9.1723,-9.2102,-9.3012,-9.4225,-9.4604,-9.4755,-9.4983,-9.665,-9.7257,-9.756,-9.9573,-10.0804,-10.1428,-10.1824,-10.2549,-10.3522,-10.3313,-10.3191,-10.2981,-10.2313,-10.2015,-10.1495,-9.9043,-9.6889,-9.5626,-9.6889,-9.6517,-9.6146,-9.6963,-9.7518,-9.7724,-9.7272,-9.7059,-9.6745,-9.6286,-9.4572,-9.3884,-9.5369,-9.3961,-9.3425,-9.5293,-9.4758,-9.4605,-9.5446,-9.4758,-9.3688,-9.2397,-9.2411,-9.271,-9.3045,-9.3717,-9.5455,-9.8442,-9.9374,-10.0229,-10.1006,-10.2327,-10.3104,-10.357,-10.308,-10.308,-10.357,-10.3624,-10.3624,-10.3725,-10.4816,-10.5618,-10.5923,-10.6301,-10.6595,-10.6995,-10.6995,-10.7227,-10.7537,-10.6894,-10.7315,-10.7967,-6.5859,-6.6013,-6.6115,-6.6244,-6.6294,-6.6651,-6.7474,-6.8244,-6.8937,-6.9708,-7.0425,-7.0909,-7.0825,-7.1593,-7.1995,-7.1904,-7.2195,-7.2379,-7.2287,-7.299,-7.38,-7.4456,-7.4465,-7.4736,-7.5501,-7.5501,-7.5959,-7.6876,-7.9321,-8.1003,-8.1996,-8.3559,-8.5121,-8.657,-8.6595,-8.7376,-8.8805,-8.8956,-9.0228,-9.2329,-9.2329,-9.3315,-9.4831,-9.4907,-9.5437,-9.6196,-9.7181,-9.8091,-9.9,-10.035,-10.1637,-10.2563,-10.3202,-10.3741,-10.433,-10.4997,-10.5487,-10.5508,-10.3798,-10.3056,-10.2387,-10.0381,-9.8523,-9.7409,-9.8226,-9.8375,-9.8449,-9.9118,-9.9338,-9.9418,-9.9251,-9.8224,-9.7082,-9.6286,-9.3621,-9.2397,-9.4572,-9.3009,-9.2933,-9.6286,-9.6133,-9.6057,-9.6668,-9.6057,-9.5675,-9.5751,-9.6051,-9.6328,-9.6695,-9.6985,-9.7677,-9.8784,-9.9429,-10.0307,-10.1394,-10.2871,-10.3725,-10.4036,-10.3729,-10.3729,-10.4012,-10.3807,-10.3807,-10.4012,-10.5593,-10.6161,-10.6156,-10.6795,-10.7169,-10.7182,-10.7227,-10.7691,-10.8354,-10.8179,-10.8565,-10.9255,-6.5859,-6.6525,-6.7243,-6.7859,-6.8065,-6.8398,-6.9194,-6.9425,-6.9578,-6.9732,-7.0343,-7.0853,-7.0825,-7.1458,-7.1904,-7.1842,-7.3144,-7.3986,-7.3954,-7.4719,-7.5221,-7.5306,-7.5271,-7.5348,-7.5501,-7.5501,-7.6265,-7.7793,-7.9627,-8.1308,-8.2837,-8.4478,-8.5737,-8.6646,-8.7204,-8.7984,-8.8805,-8.9394,-9.0662,-9.2329,-9.2329,-9.3315,-9.4907,-9.5589,-9.5968,-9.6271,-9.7863,-9.8924,-9.9758,-10.0689,-10.2507,-10.4401,-10.4477,-10.5831,-10.7118,-10.633,-10.7348,-10.8409,-10.6622,-10.4987,-10.3724,-10.3279,-10.1495,-9.9935,-10.0827,-10.0381,-9.9935,-10.0084,-10.0419,-10.0344,-9.9343,-9.9325,-9.797,-9.3502,-9.4496,-9.4878,-9.1903,-9.4037,-9.5904,-9.5828,-9.6363,-9.6439,-9.5828,-9.5675,-9.5904,-9.6668,-9.6887,-9.7324,-9.8134,-9.8604,-9.9241,-10.018,-9.9978,-10.0928,-10.3181,-10.3492,-10.4269,-10.5823,-10.4195,-10.417,-10.5593,-10.4868,-10.5023,-10.5748,-10.6705,-10.7094,-10.7092,-10.7164,-10.757,-10.8175,-10.8111,-10.862,-10.9282,-10.9106,-10.8993,-10.8993,-6.6525,-6.6935,-6.7499,-6.8346,-6.886,-6.922,-6.9605,-7.0063,-7.0469,-7.0853,-7.0796,-7.0891,-7.1321,-7.2057,-7.2684,-7.3046,-7.427,-7.5111,-7.557,-7.557,-7.5535,-7.5501,-7.5501,-7.5653,-7.6112,-7.6112,-7.7146,-7.9209,-8.0583,-8.1996,-8.3519,-8.5197,-8.6409,-8.716,-8.7863,-8.8606,-8.9394,-8.9676,-9.0738,-9.2329,-9.2329,-9.3315,-9.4907,-9.5741,-9.612,-9.6423,-9.847,-9.9758,-10.082,-10.2487,-10.4155,-10.5595,-10.5858,-10.6601,-10.7118,-10.6481,-10.7278,-10.841,-10.7963,-10.6326,-10.4616,-10.4616,-10.2833,-10.1272,-10.261,-10.261,-10.2238,-10.2382,-10.2632,-10.2399,-10.1481,-10.1134,-9.9994,-9.7095,-9.6069,-9.538,-9.4725,-9.4845,-9.5566,-9.7432,-9.7585,-9.7585,-9.7662,-9.7203,-9.7127,-9.7509,-9.7598,-9.7925,-9.8479,-9.9171,-10.0115,-10.1313,-10.1686,-10.2404,-10.357,-10.4502,-10.5435,-10.6212,-10.5179,-10.523,-10.6032,-10.5486,-10.5563,-10.611,-10.699,-10.7301,-10.7274,-10.7735,-10.8113,-10.8439,-10.8808,-10.9712,-11.061,-10.9918,-11.014,-11.0737,-6.7269,-6.7603,-6.7988,-6.8963,-6.9655,-7.0217,-7.0502,-7.1007,-7.1535,-7.2225,-7.1475,-7.126,-7.204,-7.2696,-7.3428,-7.4431,-7.5119,-7.5806,-7.6647,-7.6112,-7.5806,-7.5806,-7.5959,-7.6341,-7.7029,-7.6993,-7.8026,-8.0276,-8.1308,-8.2491,-8.4005,-8.5681,-8.6812,-8.7559,-8.8331,-8.9118,-8.9828,-8.9828,-9.0738,-9.2329,-9.2329,-9.3315,-9.4907,-9.5968,-9.6423,-9.6726,-9.9228,-10.0668,-10.1729,-10.3776,-10.5292,-10.6505,-10.6994,-10.7206,-10.7257,-10.7223,-10.7951,-10.8707,-10.9228,-10.7738,-10.6103,-10.588,-10.417,-10.2907,-10.4022,-10.4393,-10.4541,-10.4464,-10.4496,-10.4406,-10.3941,-10.3086,-10.1901,-10.0107,-9.7598,-9.6145,-9.6866,-9.5763,-9.6069,-9.9037,-9.8961,-9.8884,-9.9343,-9.8579,-9.8273,-9.8655,-9.8655,-9.8899,-9.9585,-10.0282,-10.1173,-10.2384,-10.3367,-10.4036,-10.4191,-10.5488,-10.6265,-10.6498,-10.6134,-10.6001,-10.6212,-10.5865,-10.602,-10.6289,-10.7015,-10.7274,-10.743,-10.82,-10.8733,-10.9027,-10.9514,-11.0687,-11.2076,-11.0791,-11.1185,-11.2149,-6.8129,-6.88,-6.9596,-7.0431,-7.1257,-7.2101,-7.2809,-7.3008,-7.3008,-7.3085,-7.2333,-7.204,-7.2882,-7.3046,-7.3667,-7.5271,-7.5424,-7.5806,-7.6647,-7.6647,-7.6647,-7.6647,-7.7411,-7.787,-7.787,-7.776,-7.8561,-8.0276,-8.1154,-8.2451,-8.4088,-8.5807,-8.6942,-8.7725,-8.8471,-8.9166,-8.9828,-8.9828,-9.0738,-9.2329,-9.2329,-9.3315,-9.4983,-9.6575,-9.7257,-9.756,-10.0137,-10.1502,-10.2411,-10.3397,-10.5292,-10.7187,-10.7339,-10.8265,-10.9644,-10.9895,-11.078,-11.1394,-11.0797,-10.9827,-10.8709,-10.7889,-10.6921,-10.5879,-10.5285,-10.573,-10.6103,-10.5505,-10.5428,-10.5407,-10.5483,-10.4891,-10.2825,-9.8044,-9.8854,-9.8624,-9.4199,-9.7324,-9.9878,-9.9419,-10.0031,-10.0107,-9.9496,-9.8579,-9.8732,-10.0336,-10.0413,-10.11,-10.2829,-10.3224,-10.3482,-10.3784,-10.4527,-10.5202,-10.5978,-10.5981,-10.6421,-10.7197,-10.6282,-10.6193,-10.6998,-10.6193,-10.6193,-10.6998,-10.722,-10.7274,-10.743,-10.82,-10.9322,-11.052,-11.0495,-11.1768,-11.3483,-11.16,-11.1506,-11.2072,-6.8925,-6.926,-6.9903,-7.1286,-7.1735,-7.2364,-7.3775,-7.345,-7.3461,-7.4456,-7.3428,-7.2893,-7.3701,-7.3777,-7.4431,-7.6112,-7.5806,-7.6265,-7.8175,-7.68,-7.6418,-7.7487,-7.7793,-7.8481,-7.9551,-7.8904,-7.9934,-8.268,-8.2527,-8.3437,-8.5518,-8.6747,-8.7649,-8.8302,-8.909,-8.9573,-8.9828,-8.9828,-9.0738,-9.2329,-9.2329,-9.3618,-9.5741,-9.6878,-9.7636,-9.847,-10.0895,-10.2715,-10.4079,-10.5368,-10.7187,-10.8855,-10.8811,-10.9493,-11.0642,-11.1685,-11.2111,-11.2284,-11.2652,-11.1465,-11.02,-11.0349,-10.9305,-10.8187,-10.7888,-10.8112,-10.8036,-10.6908,-10.6674,-10.6781,-10.6647,-10.6563,-10.5551,-10.281,-10.3164,-10.2705,-9.9771,-10.0994,-10.2094,-10.1788,-10.2018,-10.2094,-10.1788,-10.1483,-10.1483,-10.217,-10.1712,-10.1941,-10.3087,-10.3991,-10.4666,-10.5328,-10.5666,-10.5852,-10.5923,-10.6472,-10.6964,-10.7274,-10.6825,-10.6812,-10.7122,-10.6673,-10.7091,-10.7987,-10.8045,-10.8412,-10.8958,-10.9836,-11.067,-11.1525,-11.2037,-11.3114,-11.4286,-11.3088,-11.3097,-11.3483,-6.9634,-6.9787,-7.0354,-7.2072,-7.2256,-7.2773,-7.4446,-7.4193,-7.4201,-7.5348,-7.4278,-7.3667,-7.4507,-7.4354,-7.4889,-7.657,-7.6188,-7.6723,-7.8787,-7.7487,-7.7182,-7.8328,-7.8939,-7.9856,-8.1232,-8.0583,-8.1536,-8.4129,-8.3783,-8.4538,-8.6343,-8.7528,-8.8319,-8.8663,-8.9449,-8.998,-9.0207,-9.0207,-9.1192,-9.2709,-9.2709,-9.4073,-9.6196,-9.7029,-9.8015,-9.9303,-10.1502,-10.3397,-10.4989,-10.6429,-10.8021,-10.9537,-10.9644,-11.0491,-11.1791,-11.2937,-11.3061,-11.3088,-11.3897,-11.2873,-11.1691,-11.1916,-11.0945,-10.9751,-10.9601,-10.9452,-10.9226,-10.7872,-10.7849,-10.7956,-10.7933,-10.791,-10.7583,-10.6477,-10.6018,-10.5227,-10.3775,-10.3622,-10.3622,-10.3622,-10.3622,-10.3622,-10.3622,-10.3317,-10.3317,-10.3622,-10.3011,-10.3087,-10.3928,-10.5005,-10.5755,-10.6292,-10.6867,-10.6988,-10.6628,-10.6905,-10.7075,-10.7135,-10.6982,-10.7072,-10.7382,-10.7624,-10.8011,-10.862,-10.8885,-10.9291,-10.9693,-11.0562,-11.1173,-11.177,-11.2579,-11.3593,-11.4579,-11.3813,-11.3712,-11.4015,-7.0381,-7.0381,-7.0992,-7.2673,-7.2979,-7.359,-7.5195,-7.5501,-7.5501,-7.5501,-7.4736,-7.4507,-7.5424,-7.4736,-7.4889,-7.657,-7.6723,-7.7105,-7.7946,-7.8787,-7.9321,-7.9321,-8.0926,-8.2149,-8.299,-8.2988,-8.329,-8.4129,-8.4843,-8.5638,-8.6475,-8.8015,-8.8805,-8.8805,-8.9497,-9.0283,-9.1117,-9.1117,-9.2026,-9.3618,-9.3618,-9.4604,-9.6196,-9.7029,-9.8394,-9.9986,-10.1729,-10.3397,-10.4913,-10.5823,-10.7187,-10.8703,-10.9613,-11.1386,-11.3367,-11.3493,-11.3779,-11.4048,-11.4184,-11.3979,-11.3477,-11.2509,-11.1467,-11.0498,-10.9676,-10.9452,-10.93,-10.8691,-10.8466,-10.8749,-10.9141,-10.8916,-10.8307,-10.7811,-10.6553,-10.538,-10.4539,-10.4386,-10.4386,-10.4386,-10.4386,-10.4386,-10.4386,-10.3699,-10.3622,-10.4386,-10.4386,-10.4769,-10.5686,-10.6526,-10.6908,-10.6908,-10.8055,-10.8619,-10.8619,-10.7062,-10.6602,-10.6783,-10.6676,-10.7102,-10.7913,-10.88,-10.9147,-10.8944,-10.9797,-10.9801,-10.9108,-10.9878,-11.0602,-11.1185,-11.2014,-11.32,-11.4397,-11.348,-11.3174,-11.3174,-7.0381,-7.0916,-7.168,-7.2826,-7.2979,-7.359,-7.5195,-7.4507,-7.4125,-7.5348,-7.5271,-7.5195,-7.5424,-7.573,-7.6418,-7.7487,-7.764,-7.7946,-7.8863,-7.9704,-8.0125,-8.0049,-8.1194,-8.2111,-8.2872,-8.3443,-8.4393,-8.5681,-8.5942,-8.6736,-8.8091,-8.8577,-8.9061,-8.9497,-9.0359,-9.0889,-9.1117,-9.1723,-9.2557,-9.3618,-9.4225,-9.5437,-9.7029,-9.7863,-9.9228,-10.0895,-10.1881,-10.3397,-10.4989,-10.6505,-10.7718,-10.8931,-11.0902,-11.2432,-11.3568,-11.4313,-11.4287,-11.4184,-11.4326,-11.3979,-11.3624,-11.3327,-11.2956,-11.2656,-11.1831,-11.1231,-11.048,-10.9725,-10.9124,-10.881,-10.9206,-10.9183,-10.8751,-10.7756,-10.792,-10.7392,-10.556,-10.6297,-10.6832,-10.622,-10.6679,-10.7061,-10.7061,-10.6832,-10.6832,-10.6985,-10.7061,-10.6908,-10.6603,-10.729,-10.7825,-10.7825,-10.8077,-10.8279,-10.8279,-10.8321,-10.8299,-10.8261,-10.822,-10.8334,-10.8488,-10.8796,-10.9181,-10.9838,-11.0069,-11.038,-11.0845,-11.1076,-11.1876,-11.292,-11.3182,-11.4093,-11.5314,-11.5085,-11.5008,-11.5008,-7.0381,-7.0839,-7.1603,-7.275,-7.2979,-7.359,-7.5195,-7.466,-7.4354,-7.5348,-7.5501,-7.5577,-7.5959,-7.6418,-7.7029,-7.7946,-7.8634,-7.9474,-8.0697,-8.1232,-8.1423,-8.1461,-8.2263,-8.2988,-8.3285,-8.4469,-8.5495,-8.6399,-8.704,-8.7908,-8.8805,-8.9061,-8.9394,-8.9828,-9.0738,-9.1268,-9.1647,-9.2481,-9.3467,-9.4604,-9.5134,-9.6347,-9.7939,-9.8773,-10.0137,-10.1729,-10.2487,-10.3928,-10.5595,-10.7187,-10.9006,-11.0826,-11.2266,-11.3403,-11.4161,-11.4692,-11.4589,-11.4251,-11.4393,-11.3973,-11.3699,-11.377,-11.3845,-11.3399,-11.2272,-11.1897,-11.1371,-11.0244,-10.9869,-10.9637,-10.9095,-10.9377,-10.9409,-10.8517,-10.8688,-10.8529,-10.7317,-10.752,-10.7596,-10.7367,-10.7596,-10.7825,-10.8207,-10.8207,-10.8207,-10.8207,-10.8513,-10.8284,-10.752,-10.8513,-10.9201,-10.9201,-10.9201,-10.943,-10.9736,-10.9743,-10.9431,-10.8825,-10.8662,-10.8893,-10.9156,-10.9464,-10.9925,-11.0385,-11.077,-11.1045,-11.1166,-11.1166,-11.1922,-11.3069,-11.3375,-11.3993,-11.4779,-11.5467,-11.5314,-11.4779,-7.0381,-7.0533,-7.1145,-7.275,-7.3132,-7.3743,-7.5271,-7.5424,-7.5424,-7.5501,-7.5577,-7.5883,-7.6647,-7.6876,-7.7335,-7.8175,-7.978,-8.1385,-8.299,-8.3066,-8.299,-8.299,-8.383,-8.4246,-8.4115,-8.5765,-8.6561,-8.6584,-8.8091,-8.8805,-8.888,-8.9497,-8.9828,-8.9828,-9.0813,-9.1571,-9.2329,-9.3391,-9.4679,-9.612,-9.6271,-9.7257,-9.8773,-9.9607,-10.0971,-10.2563,-10.3397,-10.4761,-10.6505,-10.8097,-11.0902,-11.363,-11.363,-11.4161,-11.4768,-11.4768,-11.4589,-11.4317,-11.4449,-11.4041,-11.377,-11.3835,-11.3765,-11.3323,-11.1822,-11.1972,-11.2047,-11.0395,-11.0695,-11.0776,-10.8986,-10.9493,-10.998,-10.9611,-10.9082,-10.8897,-10.9226,-10.8131,-10.752,-10.8207,-10.7672,-10.7596,-10.8284,-10.8437,-10.8437,-10.8437,-10.9201,-10.9277,-10.8513,-10.9889,-11.0806,-11.0806,-11.0806,-11.1188,-11.2105,-11.1264,-11.0142,-10.8776,-10.8776,-10.9313,-11.0079,-11.0769,-11.1007,-11.0882,-11.157,-11.1493,-11.0806,-11.0806,-11.1417,-11.2334,-11.3022,-11.3404,-11.3633,-11.5085,-11.4703,-11.3633,-7.0381,-7.1527,-7.252,-7.2902,-7.4049,-7.5042,-7.5424,-7.4889,-7.4736,-7.5424,-7.6036,-7.6494,-7.6647,-7.8481,-7.978,-7.9933,-8.1461,-8.2913,-8.3983,-8.3372,-8.2951,-8.2872,-8.3791,-8.4475,-8.4747,-8.6028,-8.7128,-8.8104,-8.853,-8.9061,-8.9573,-8.9752,-8.9828,-8.9904,-9.1344,-9.2102,-9.2405,-9.4604,-9.5741,-9.6196,-9.756,-9.8621,-9.9607,-10.0516,-10.226,-10.4307,-10.4458,-10.5595,-10.7339,-10.9006,-11.1281,-11.363,-11.363,-11.4161,-11.4768,-11.4768,-11.4642,-11.4449,-11.4513,-11.4251,-11.3759,-11.3226,-11.3389,-11.3624,-11.3323,-11.2798,-11.2197,-11.1221,-11.1221,-11.0995,-10.9875,-10.9655,-10.9787,-10.9734,-10.9493,-10.9124,-10.8488,-10.9277,-10.9659,-10.9201,-10.9583,-10.9965,-11.0118,-11.0194,-11.0194,-11.0194,-11.1035,-11.1111,-11.0194,-11.1111,-11.1723,-11.1723,-11.1723,-11.2105,-11.2869,-11.2792,-11.2233,-11.1213,-11.1213,-11.1749,-11.2386,-11.2055,-11.1774,-11.1723,-11.1188,-11.1264,-11.1723,-11.1723,-11.2563,-11.4015,-11.4168,-11.4626,-11.5238,-11.562,-11.5467,-11.5238,-7.0916,-7.145,-7.2138,-7.3361,-7.3972,-7.4584,-7.5348,-7.5424,-7.5577,-7.6036,-7.68,-7.764,-7.8404,-7.9704,-8.1003,-8.2225,-8.3142,-8.3983,-8.4824,-8.4824,-8.4631,-8.4133,-8.5013,-8.5772,-8.6311,-8.6823,-8.7649,-8.8615,-8.9042,-8.9422,-8.9828,-8.9828,-8.9828,-8.9904,-9.1571,-9.2329,-9.2405,-9.4604,-9.6196,-9.7408,-9.8242,-9.9531,-10.1123,-10.2411,-10.3397,-10.4307,-10.5065,-10.6505,-10.8173,-10.99,-11.1872,-11.3706,-11.4085,-11.4464,-11.4768,-11.4768,-11.4717,-11.4513,-11.4642,-11.4383,-11.4041,-11.3588,-11.3678,-11.3765,-11.3173,-11.3098,-11.2798,-11.1972,-11.2197,-11.2047,-11.0705,-11.041,-11.0175,-10.9949,-10.9686,-10.9613,-10.9703,-11.0244,-11.0806,-11.1188,-11.1264,-11.1264,-11.1264,-11.1264,-11.1264,-11.1264,-11.2105,-11.241,-11.1875,-11.2716,-11.3174,-11.3174,-11.2792,-11.3022,-11.3786,-11.3404,-11.3174,-11.3174,-11.2792,-11.2792,-11.3174,-11.2792,-11.2563,-11.2487,-11.2105,-11.2181,-11.2563,-11.2563,-11.3327,-11.4474,-11.4474,-11.4779,-11.5161,-11.562,-11.5696,-11.5773,-7.1527,-7.1374,-7.1756,-7.3819,-7.3896,-7.4049,-7.5271,-7.6188,-7.6723,-7.6723,-7.7487,-7.8634,-8.0315,-8.085,-8.2073,-8.4289,-8.4671,-8.4976,-8.5664,-8.6581,-8.6734,-8.597,-8.6658,-8.7375,-8.815,-8.7998,-8.8167,-8.8842,-8.9449,-8.9828,-8.9828,-8.9828,-8.9904,-9.0055,-9.1647,-9.2481,-9.286,-9.4528,-9.6575,-9.8849,-9.9,-10.0365,-10.2715,-10.4079,-10.4382,-10.4155,-10.5823,-10.749,-10.9293,-11.0776,-11.2295,-11.3692,-11.4389,-11.4768,-11.4995,-11.4995,-11.4932,-11.4805,-11.4995,-11.4729,-11.4317,-11.4251,-11.4116,-11.3759,-11.2943,-11.3173,-11.3474,-11.2723,-11.3098,-11.3177,-11.1609,-11.1163,-11.101,-11.0675,-11.01,-11.0098,-11.1482,-11.1206,-11.1493,-11.3022,-11.264,-11.2181,-11.2028,-11.2105,-11.2105,-11.2028,-11.2869,-11.3404,-11.3174,-11.4015,-11.4474,-11.4474,-11.3786,-11.3786,-11.4703,-11.4015,-11.4091,-11.4932,-11.4168,-11.3786,-11.3633,-11.348,-11.3404,-11.3404,-11.3327,-11.3327,-11.3404,-11.3404,-11.3939,-11.4703,-11.4703,-11.4703,-11.4779,-11.5467,-11.5696,-11.5773,-7.168,-7.275,-7.3819,-7.4125,-7.5348,-7.6036,-7.5577,-7.6188,-7.6723,-7.6723,-7.7487,-7.8634,-8.0315,-8.2455,-8.4212,-8.5282,-8.6046,-8.6505,-8.6658,-8.7422,-8.788,-8.7727,-8.788,-8.8519,-8.9825,-8.9216,-8.9079,-8.9676,-8.9752,-8.9828,-8.9828,-8.9828,-9.0207,-9.0965,-9.1875,-9.3088,-9.4528,-9.6271,-9.8015,-9.9683,-10.0516,-10.1805,-10.3397,-10.37,-10.461,-10.5898,-10.6808,-10.8762,-11.0987,-11.1215,-11.243,-11.3813,-11.3844,-11.4768,-11.5905,-11.5905,-11.5905,-11.5905,-11.5905,-11.5172,-11.4373,-11.4317,-11.4116,-11.391,-11.362,-11.3624,-11.3474,-11.2723,-11.3098,-11.3399,-11.2502,-11.2062,-11.1914,-11.233,-11.1176,-11.0669,-11.2067,-11.1991,-11.2181,-11.3098,-11.3098,-11.2792,-11.2105,-11.264,-11.2716,-11.2105,-11.3404,-11.4015,-11.3174,-11.4015,-11.4474,-11.4474,-11.4397,-11.4703,-11.5467,-11.5391,-11.5773,-11.669,-11.6537,-11.6078,-11.5314,-11.4626,-11.4321,-11.4321,-11.348,-11.3633,-11.4321,-11.4321,-11.4779,-11.5467,-11.5467,-11.5467,-11.562,-11.5696,-11.5696,-11.5696,-7.2979,-7.3361,-7.3819,-7.4736,-7.5119,-7.5501,-7.6112,-7.6876,-7.7564,-7.8099,-7.8863,-8.0009,-8.169,-8.3754,-8.5129,-8.5511,-8.6275,-8.681,-8.681,-8.8033,-8.8568,-8.811,-8.8492,-8.9206,-9.0205,-8.9901,-9.0143,-9.1192,-9.0283,-9.0055,-9.051,-9.0055,-9.051,-9.1799,-9.2633,-9.3694,-9.4907,-9.6575,-9.8545,-10.0592,-10.0895,-10.2411,-10.4382,-10.5406,-10.6013,-10.6449,-10.7832,-10.9104,-11.0246,-11.1215,-11.2166,-11.3114,-11.3601,-11.4754,-11.6056,-11.6056,-11.6056,-11.6056,-11.6056,-11.5702,-11.5053,-11.4544,-11.4493,-11.4512,-11.3845,-11.3699,-11.3624,-11.3173,-11.3474,-11.3624,-11.3173,-11.2731,-11.2356,-11.2492,-11.1721,-11.1383,-11.2797,-11.3003,-11.3439,-11.4497,-11.4626,-11.4321,-11.348,-11.3709,-11.3786,-11.3404,-11.4091,-11.4474,-11.4626,-11.5008,-11.5161,-11.5161,-11.5161,-11.5314,-11.5696,-11.5696,-11.5926,-11.6308,-11.6308,-11.6308,-11.6384,-11.6078,-11.562,-11.5085,-11.4779,-11.4779,-11.5161,-11.5161,-11.5391,-11.5696,-11.5696,-11.5696,-11.5773,-11.6231,-11.6078,-11.5696]}]]